Temperatur und Luftfeuchte

Temperatur und Luftfeuchte

Nummer Datum und Zeit Sensor ID Temperatur in Celsius gef├╝hlte Temperatur Luftfeuchte in %
94482 2023-03-30 16:19:32 Terrasse 12.30 11.38 68.90
94481 2023-03-30 15:59:13 Bahnzimmer 18.60 17.79 48.70
94480 2023-03-30 15:57:03 Aussentemperatur 13.30 13.25 98.40
94479 2023-03-30 15:51:19 Terrasse 13.30 12.42 66.30
94478 2023-03-30 15:29:17 Aussentemperatur 17.20 17.32 89.80
94477 2023-03-30 15:29:13 Bahnzimmer 18.50 17.67 48.30
94476 2023-03-30 15:23:12 Terrasse 15.20 14.41 62.50
94475 2023-03-30 14:59:36 Aussentemperatur 13.90 13.75 92.00
94474 2023-03-30 14:59:12 Bahnzimmer 18.60 17.74 47.00
94473 2023-03-30 14:54:59 Terrasse 14.90 13.93 56.90
94472 2023-03-30 14:32:34 Aussentemperatur 25.00 25.82 86.80
94471 2023-03-30 14:29:11 Bahnzimmer 18.60 17.77 47.90
94470 2023-03-30 14:26:47 Terrasse 16.80 15.90 52.10
94469 2023-03-30 14:03:42 Aussentemperatur 19.40 19.72 89.20
94468 2023-03-30 13:59:11 Bahnzimmer 18.60 17.78 48.50
94467 2023-03-30 13:58:28 Terrasse 16.00 15.04 52.90
94466 2023-03-30 13:36:01 Aussentemperatur 20.60 21.20 95.10
94465 2023-03-30 13:29:51 Terrasse 14.30 13.29 57.70
94464 2023-03-30 13:29:10 Bahnzimmer 18.60 17.79 48.70
94463 2023-03-30 13:08:30 Aussentemperatur 20.10 20.53 90.70
94462 2023-03-30 13:01:37 Terrasse 14.50 13.74 66.50
94461 2023-03-30 12:59:09 Bahnzimmer 18.70 17.88 48.00
94460 2023-03-30 12:39:48 Aussentemperatur 15.00 15.00 93.70
94459 2023-03-30 12:33:09 Terrasse 12.10 11.29 73.80
94458 2023-03-30 12:29:09 Bahnzimmer 18.70 17.87 47.80
94457 2023-03-30 12:11:29 Aussentemperatur 12.70 12.46 93.30
94456 2023-03-30 12:04:50 Terrasse 11.70 10.90 75.50
94455 2023-03-30 11:59:08 Bahnzimmer 18.70 17.88 48.00
94454 2023-03-30 11:43:08 Aussentemperatur 11.80 11.49 94.00
94453 2023-03-30 11:36:30 Terrasse 11.50 10.70 76.50
94452 2023-03-30 11:29:07 Bahnzimmer 18.70 17.88 48.10
94451 2023-03-30 11:14:58 Aussentemperatur 12.40 12.12 92.90
94450 2023-03-30 11:08:14 Terrasse 11.40 10.59 76.20
94449 2023-03-30 10:59:06 Bahnzimmer 18.70 17.87 47.70
94448 2023-03-30 10:46:46 Aussentemperatur 12.50 12.20 91.80
94447 2023-03-30 10:39:49 Terrasse 10.60 9.74 77.60
94446 2023-03-30 10:29:06 Bahnzimmer 18.70 17.86 47.30
94445 2023-03-30 10:18:24 Aussentemperatur 10.10 9.60 93.40
94444 2023-03-30 10:11:30 Terrasse 10.20 9.30 77.50
94443 2023-03-30 09:59:05 Bahnzimmer 18.70 17.86 47.30
94442 2023-03-30 09:50:11 Aussentemperatur 10.40 9.92 92.90
94441 2023-03-30 09:43:12 Terrasse 10.10 9.20 78.00
94440 2023-03-30 09:29:04 Bahnzimmer 18.70 17.86 47.10
94439 2023-03-30 09:21:57 Aussentemperatur 9.70 9.15 92.90
94438 2023-03-30 09:14:54 Terrasse 10.00 9.10 78.20
94437 2023-03-30 08:59:04 Bahnzimmer 18.70 17.85 47.00
94436 2023-03-30 08:53:41 Aussentemperatur 9.00 8.39 93.40
94435 2023-03-30 08:29:03 Bahnzimmer 18.70 17.85 46.80
94434 2023-03-30 08:25:26 Aussentemperatur 8.90 8.29 93.70
94433 2023-03-30 08:18:24 Terrasse 9.60 8.60 76.10
94432 2023-03-30 07:59:02 Bahnzimmer 18.80 17.95 46.70
94431 2023-03-30 07:57:12 Aussentemperatur 8.50 7.86 94.10
94430 2023-03-30 07:50:06 Terrasse 9.60 8.55 73.90
94429 2023-03-30 07:29:02 Bahnzimmer 18.80 17.95 46.50
94428 2023-03-30 07:29:00 Aussentemperatur 8.60 7.98 94.20
94427 2023-03-30 07:21:49 Terrasse 9.60 8.55 73.90
94426 2023-03-30 07:00:48 Aussentemperatur 8.80 8.20 94.20
94425 2023-03-30 06:59:01 Bahnzimmer 18.90 18.06 46.50
94424 2023-03-30 06:53:31 Terrasse 9.80 8.75 73.40
94423 2023-03-30 06:32:35 Aussentemperatur 8.90 8.31 94.50
94422 2023-03-30 06:29:00 Bahnzimmer 18.80 17.94 46.30
94421 2023-03-30 06:25:14 Terrasse 9.90 8.85 73.10
94420 2023-03-30 06:04:23 Aussentemperatur 9.10 8.54 94.60
94419 2023-03-30 05:59:00 Bahnzimmer 18.50 17.62 46.40
94418 2023-03-30 05:56:59 Terrasse 10.20 9.13 71.20
94417 2023-03-30 05:36:16 Aussentemperatur 10.40 9.93 93.40
94416 2023-03-30 05:28:59 Bahnzimmer 18.30 17.40 46.70
94415 2023-03-30 05:28:41 Terrasse 10.20 8.97 65.00
94414 2023-03-30 05:08:02 Aussentemperatur 10.10 9.60 93.30
94413 2023-03-30 05:00:22 Terrasse 10.00 8.77 65.50
94412 2023-03-30 04:58:58 Bahnzimmer 17.80 16.87 47.40
94411 2023-03-30 04:39:48 Aussentemperatur 10.00 9.49 93.10
94410 2023-03-30 04:28:58 Bahnzimmer 17.80 16.86 47.00
94409 2023-03-30 04:11:33 Aussentemperatur 9.20 8.61 93.20
94408 2023-03-30 04:03:50 Terrasse 9.30 8.03 66.80
94407 2023-03-30 03:58:57 Bahnzimmer 17.80 16.87 47.20
94406 2023-03-30 03:43:18 Aussentemperatur 8.40 7.76 94.20
94405 2023-03-30 03:35:32 Terrasse 9.00 7.70 67.00
94404 2023-03-30 03:28:56 Bahnzimmer 17.80 16.87 47.20
94403 2023-03-30 03:15:05 Aussentemperatur 8.00 7.33 94.70
94402 2023-03-30 03:07:13 Terrasse 9.10 7.83 67.70
94401 2023-03-30 02:58:56 Bahnzimmer 18.00 17.09 47.20
94400 2023-03-30 02:46:53 Aussentemperatur 8.10 7.44 94.80
94399 2023-03-30 02:38:56 Terrasse 9.20 7.95 68.00
94398 2023-03-30 02:28:55 Bahnzimmer 18.00 17.09 47.20
94397 2023-03-30 02:18:40 Aussentemperatur 8.30 7.66 94.80
94396 2023-03-30 02:10:38 Terrasse 9.40 8.17 67.80
94395 2023-03-30 01:58:54 Bahnzimmer 18.10 17.20 47.20
94394 2023-03-30 01:50:29 Aussentemperatur 8.50 7.88 94.80
94393 2023-03-30 01:42:20 Terrasse 9.40 8.16 67.50
94392 2023-03-30 01:28:54 Bahnzimmer 18.20 17.31 47.20
94391 2023-03-30 01:22:16 Aussentemperatur 8.40 7.78 95.20
94390 2023-03-30 01:14:04 Terrasse 9.50 8.27 67.60
94389 2023-03-30 00:58:53 Bahnzimmer 18.30 17.42 47.20
94388 2023-03-30 00:54:04 Aussentemperatur 8.60 8.01 95.40
94387 2023-03-30 00:45:47 Terrasse 9.80 8.60 67.60
94386 2023-03-30 00:28:52 Bahnzimmer 18.50 17.63 47.00
94385 2023-03-30 00:25:53 Aussentemperatur 8.90 8.34 95.50
94384 2023-03-30 00:17:30 Terrasse 10.00 8.81 67.30
94383 2023-03-29 23:58:52 Bahnzimmer 18.70 17.86 47.10
94382 2023-03-29 23:57:40 Aussentemperatur 9.10 8.56 95.60
94381 2023-03-29 23:49:14 Terrasse 10.20 9.03 67.30
94380 2023-03-29 23:29:27 Aussentemperatur 9.30 8.79 95.80
94379 2023-03-29 23:28:51 Bahnzimmer 19.10 18.30 47.20
94378 2023-03-29 23:20:57 Terrasse 10.40 9.25 67.30
94377 2023-03-29 23:01:16 Aussentemperatur 9.50 9.01 96.00
94376 2023-03-29 22:58:50 Bahnzimmer 19.20 18.40 46.80
94375 2023-03-29 22:52:40 Terrasse 10.60 9.47 67.20
94374 2023-03-29 22:33:03 Aussentemperatur 9.60 9.13 96.40
94373 2023-03-29 22:28:50 Bahnzimmer 18.90 18.06 46.60
94372 2023-03-29 22:24:25 Terrasse 10.90 9.80 67.30
94371 2023-03-29 22:04:52 Aussentemperatur 10.20 9.79 96.40
94370 2023-03-29 21:58:49 Bahnzimmer 18.60 17.72 46.10
94369 2023-03-29 21:56:09 Terrasse 11.30 10.20 65.80
94368 2023-03-29 21:36:39 Aussentemperatur 10.40 10.02 96.60
94367 2023-03-29 21:28:48 Bahnzimmer 18.50 17.62 46.40
94366 2023-03-29 21:27:52 Terrasse 11.50 10.42 65.80
94365 2023-03-29 21:08:28 Aussentemperatur 11.00 10.68 96.80
94364 2023-03-29 20:59:34 Terrasse 11.70 10.64 65.50
94363 2023-03-29 20:58:48 Bahnzimmer 18.40 17.51 46.40
94362 2023-03-29 20:40:16 Aussentemperatur 11.30 11.02 97.20
94361 2023-03-29 20:31:18 Terrasse 12.00 10.94 64.70
94360 2023-03-29 20:28:47 Bahnzimmer 18.40 17.51 46.40
94359 2023-03-29 20:12:04 Aussentemperatur 11.50 11.26 97.70
94358 2023-03-29 20:03:02 Terrasse 12.30 11.23 62.90
94357 2023-03-29 19:58:46 Bahnzimmer 18.30 17.40 46.40
94356 2023-03-29 19:43:54 Aussentemperatur 12.30 12.14 97.90
94355 2023-03-29 19:34:45 Terrasse 12.50 11.39 60.50
94354 2023-03-29 19:28:46 Bahnzimmer 18.20 17.30 46.80
94353 2023-03-29 19:15:43 Aussentemperatur 12.70 12.60 98.50
94352 2023-03-29 19:06:30 Terrasse 12.90 11.80 59.50
94351 2023-03-29 18:58:45 Bahnzimmer 18.30 17.41 46.90
94350 2023-03-29 18:47:33 Aussentemperatur 13.50 13.50 99.30
94349 2023-03-29 18:38:14 Terrasse 13.30 12.19 57.70
94348 2023-03-29 18:28:44 Bahnzimmer 18.60 17.73 46.50
94347 2023-03-29 18:19:23 Aussentemperatur 14.50 14.61 99.90
94346 2023-03-29 18:09:58 Terrasse 13.90 12.82 56.40
94345 2023-03-29 17:58:44 Bahnzimmer 18.50 17.60 45.80
94344 2023-03-29 17:51:16 Aussentemperatur 16.20 16.48 99.60
94343 2023-03-29 17:41:45 Terrasse 14.40 13.33 55.10
94342 2023-03-29 17:28:43 Bahnzimmer 18.40 17.49 45.80
94341 2023-03-29 17:22:59 Aussentemperatur 16.70 17.03 99.60
94340 2023-03-29 17:13:26 Terrasse 14.70 13.69 55.90
94339 2023-03-29 16:58:42 Bahnzimmer 18.20 17.28 46.30
94338 2023-03-29 16:54:54 Aussentemperatur 18.00 18.38 96.70
94337 2023-03-29 16:45:08 Terrasse 14.80 13.78 55.50
94336 2023-03-29 16:28:42 Bahnzimmer 18.70 17.81 45.40
94335 2023-03-29 16:26:40 Aussentemperatur 18.70 19.14 96.40
94334 2023-03-29 16:16:50 Terrasse 14.80 13.79 55.70
94333 2023-03-29 15:58:55 Aussentemperatur 22.30 22.93 89.70
94332 2023-03-29 15:58:41 Bahnzimmer 18.60 17.70 45.40
94331 2023-03-29 15:48:29 Terrasse 14.90 13.91 56.10
94330 2023-03-29 15:29:55 Aussentemperatur 16.80 17.08 97.30
94329 2023-03-29 15:28:40 Bahnzimmer 18.60 17.70 45.50
94328 2023-03-29 15:20:08 Terrasse 13.70 12.61 57.00
94327 2023-03-29 15:02:02 Aussentemperatur 19.20 19.59 92.50
94326 2023-03-29 14:58:40 Bahnzimmer 18.60 17.70 45.30
94325 2023-03-29 14:51:51 Terrasse 13.80 12.69 55.80
94324 2023-03-29 14:33:22 Aussentemperatur 17.00 17.23 94.70
94323 2023-03-29 14:28:39 Bahnzimmer 18.50 17.58 45.00
94322 2023-03-29 14:23:36 Terrasse 13.10 11.93 56.20
94321 2023-03-29 14:04:37 Aussentemperatur 15.30 15.35 94.40
94320 2023-03-29 13:58:38 Bahnzimmer 18.60 17.69 44.90
94319 2023-03-29 13:55:05 Terrasse 11.50 10.21 57.60
94318 2023-03-29 13:36:17 Aussentemperatur 14.00 13.94 95.10
94317 2023-03-29 13:28:38 Bahnzimmer 18.90 18.02 44.90
94316 2023-03-29 13:26:46 Terrasse 11.00 9.68 58.40
94315 2023-03-29 13:07:59 Aussentemperatur 13.40 13.27 94.60
94314 2023-03-29 12:58:37 Bahnzimmer 19.00 18.12 44.60
94313 2023-03-29 12:58:21 Terrasse 10.00 8.58 58.40
94312 2023-03-29 12:39:31 Aussentemperatur 11.10 10.75 95.30
94311 2023-03-29 12:30:00 Terrasse 9.40 7.94 59.10
94310 2023-03-29 12:28:36 Bahnzimmer 19.10 18.22 44.40
94309 2023-03-29 12:11:29 Aussentemperatur 12.10 11.82 94.10
94308 2023-03-29 12:01:39 Terrasse 9.00 7.48 58.40
94307 2023-03-29 11:58:36 Bahnzimmer 19.10 18.22 44.40
94306 2023-03-29 11:43:08 Aussentemperatur 10.60 10.18 94.30
94305 2023-03-29 11:33:15 Terrasse 8.00 6.42 59.90
94304 2023-03-29 11:28:35 Bahnzimmer 19.00 18.10 44.00
94303 2023-03-29 11:14:50 Aussentemperatur 9.50 8.97 94.40
94302 2023-03-29 11:04:57 Terrasse 7.60 6.03 61.80
94301 2023-03-29 10:58:34 Bahnzimmer 18.70 17.75 43.10
94300 2023-03-29 10:46:32 Aussentemperatur 9.00 8.41 93.90
94299 2023-03-29 10:36:33 Terrasse 6.90 5.29 62.80
94298 2023-03-29 10:28:34 Bahnzimmer 18.90 18.01 44.60
94297 2023-03-29 10:18:12 Aussentemperatur 7.50 6.77 94.50
94296 2023-03-29 10:08:12 Terrasse 6.50 4.86 63.50
94295 2023-03-29 09:58:33 Bahnzimmer 18.80 17.89 44.40
94294 2023-03-29 09:49:57 Aussentemperatur 7.00 6.22 94.20
94293 2023-03-29 09:39:54 Terrasse 6.00 4.32 63.90
94292 2023-03-29 09:28:32 Bahnzimmer 18.70 17.80 44.80
94291 2023-03-29 09:21:41 Aussentemperatur 6.60 5.78 94.40
94290 2023-03-29 09:11:33 Terrasse 5.60 3.90 64.60
94289 2023-03-29 08:58:30 Bahnzimmer 18.60 17.67 44.40
94288 2023-03-29 08:53:28 Aussentemperatur 5.90 5.00 94.10
94287 2023-03-29 08:43:14 Terrasse 5.30 3.60 65.60
94286 2023-03-29 08:28:28 Bahnzimmer 18.10 17.07 42.20
94285 2023-03-29 08:25:13 Aussentemperatur 5.30 4.34 94.00
94284 2023-03-29 08:14:53 Terrasse 5.00 3.27 65.80
94283 2023-03-29 07:58:27 Bahnzimmer 18.60 17.68 44.50
94282 2023-03-29 07:56:58 Aussentemperatur 4.50 3.47 94.40
94281 2023-03-29 07:46:34 Terrasse 4.70 3.00 68.00
94280 2023-03-29 07:28:44 Aussentemperatur 3.70 2.60 94.90
94279 2023-03-29 07:28:26 Bahnzimmer 18.50 17.56 44.20
94278 2023-03-29 07:18:16 Terrasse 4.60 2.87 67.20
94277 2023-03-29 07:00:32 Aussentemperatur 3.50 2.39 95.00
94276 2023-03-29 06:58:26 Bahnzimmer 18.60 17.67 44.10
94275 2023-03-29 06:49:58 Terrasse 4.50 2.78 68.00
94274 2023-03-29 06:32:20 Aussentemperatur 3.30 2.17 95.20
94273 2023-03-29 06:28:25 Bahnzimmer 18.50 17.56 44.20
94272 2023-03-29 06:21:41 Terrasse 4.40 2.68 68.20
94271 2023-03-29 06:04:06 Aussentemperatur 3.30 2.18 95.50
94270 2023-03-29 05:58:24 Bahnzimmer 18.70 17.77 43.90
94269 2023-03-29 05:53:25 Terrasse 4.40 2.65 67.10
94268 2023-03-29 05:35:54 Aussentemperatur 3.40 2.29 95.50
94267 2023-03-29 05:28:24 Bahnzimmer 18.40 17.44 44.00
94266 2023-03-29 05:25:08 Terrasse 4.40 2.64 66.90
94265 2023-03-29 05:07:43 Aussentemperatur 3.50 2.41 95.80
94264 2023-03-29 04:58:23 Bahnzimmer 17.80 16.80 44.70
94263 2023-03-29 04:56:50 Terrasse 4.50 2.73 65.90
94262 2023-03-29 04:39:30 Aussentemperatur 3.40 2.30 96.00
94261 2023-03-29 04:28:34 Terrasse 4.50 2.79 68.30
94260 2023-03-29 04:28:22 Bahnzimmer 17.50 16.47 44.70
94259 2023-03-29 04:11:17 Aussentemperatur 3.40 2.31 96.30
94258 2023-03-29 04:00:16 Terrasse 4.50 2.75 67.00
94257 2023-03-29 03:58:22 Bahnzimmer 17.60 16.58 44.70
94256 2023-03-29 03:43:05 Aussentemperatur 3.40 2.32 96.50
94255 2023-03-29 03:32:00 Terrasse 4.70 2.94 65.80
94254 2023-03-29 03:28:21 Bahnzimmer 17.60 16.58 44.60
94253 2023-03-29 03:14:53 Aussentemperatur 3.50 2.43 96.70
94252 2023-03-29 03:03:42 Terrasse 4.70 2.96 66.60
94251 2023-03-29 02:58:20 Bahnzimmer 17.70 16.69 44.50
94250 2023-03-29 02:46:41 Aussentemperatur 3.50 2.44 97.00
94249 2023-03-29 02:35:26 Terrasse 4.70 2.91 64.50
94248 2023-03-29 02:28:20 Bahnzimmer 17.70 16.69 44.50
94247 2023-03-29 02:18:29 Aussentemperatur 3.50 2.44 97.20
94246 2023-03-29 02:07:09 Terrasse 4.90 3.09 63.00
94245 2023-03-29 01:58:19 Bahnzimmer 17.70 16.68 44.40
94244 2023-03-29 01:50:18 Aussentemperatur 3.60 2.57 97.70
94243 2023-03-29 01:38:52 Terrasse 4.90 3.10 63.20
94242 2023-03-29 01:28:18 Bahnzimmer 17.80 16.79 44.10
94241 2023-03-29 01:22:06 Aussentemperatur 3.50 2.47 98.10
94240 2023-03-29 01:10:35 Terrasse 5.00 3.22 63.80
94239 2023-03-29 00:58:18 Bahnzimmer 17.90 16.90 44.10
94238 2023-03-29 00:53:53 Aussentemperatur 3.70 2.71 98.90
94237 2023-03-29 00:42:18 Terrasse 5.00 3.17 61.80
94236 2023-03-29 00:28:17 Bahnzimmer 18.00 17.01 44.10
94235 2023-03-29 00:25:42 Aussentemperatur 3.80 2.80 98.40
94234 2023-03-29 00:14:02 Terrasse 5.30 3.50 61.70
94233 2023-03-28 23:58:16 Bahnzimmer 18.20 17.22 43.90
94232 2023-03-28 23:57:32 Aussentemperatur 4.20 3.27 99.20
94231 2023-03-28 23:45:45 Terrasse 5.30 3.43 59.00
94230 2023-03-28 23:29:19 Aussentemperatur 4.10 3.17 99.90
94229 2023-03-28 23:28:16 Bahnzimmer 18.40 17.43 43.30
94228 2023-03-28 23:17:26 Terrasse 5.30 3.39 57.80
94227 2023-03-28 23:01:08 Aussentemperatur 4.30 3.39 99.80
94226 2023-03-28 22:58:15 Bahnzimmer 18.60 17.65 43.30
94225 2023-03-28 22:49:11 Terrasse 5.90 3.95 53.70
94224 2023-03-28 22:32:57 Aussentemperatur 5.00 4.16 99.90
94223 2023-03-28 22:28:15 Bahnzimmer 18.50 17.54 43.30
94222 2023-03-28 22:20:55 Terrasse 5.90 3.87 50.80
94221 2023-03-28 22:04:48 Aussentemperatur 5.30 4.49 99.90
94220 2023-03-28 21:58:14 Bahnzimmer 18.40 17.43 43.30
94219 2023-03-28 21:52:38 Terrasse 6.10 4.06 49.50
94218 2023-03-28 21:36:36 Aussentemperatur 5.30 4.49 99.90
94217 2023-03-28 21:28:13 Bahnzimmer 18.40 17.43 43.30
94216 2023-03-28 21:24:21 Terrasse 6.30 4.27 49.10
94215 2023-03-28 21:08:26 Aussentemperatur 5.50 4.71 99.90
94214 2023-03-28 20:58:13 Bahnzimmer 18.40 17.43 43.40
94213 2023-03-28 20:56:05 Terrasse 6.70 4.73 50.00
94212 2023-03-28 20:40:15 Aussentemperatur 5.90 5.15 99.90
94211 2023-03-28 20:28:12 Bahnzimmer 18.20 17.21 43.40
94210 2023-03-28 20:27:48 Terrasse 6.70 4.68 48.10
94209 2023-03-28 20:12:05 Aussentemperatur 6.10 5.37 99.90
94208 2023-03-28 19:59:31 Terrasse 7.00 5.02 48.60
94207 2023-03-28 19:58:11 Bahnzimmer 18.10 17.09 43.20
94206 2023-03-28 19:43:56 Aussentemperatur 6.70 6.03 99.90
94205 2023-03-28 19:31:17 Terrasse 7.50 5.54 47.40
94204 2023-03-28 19:28:11 Bahnzimmer 18.10 17.10 43.50
94203 2023-03-28 19:15:50 Aussentemperatur 7.80 7.21 98.50
94202 2023-03-28 19:03:03 Terrasse 8.20 6.27 45.90
94201 2023-03-28 18:58:10 Bahnzimmer 18.00 16.98 43.00
94200 2023-03-28 18:47:49 Aussentemperatur 9.70 9.25 96.80
94199 2023-03-28 18:34:50 Terrasse 9.00 7.09 43.60
94198 2023-03-28 18:28:09 Bahnzimmer 17.80 16.76 43.10
94197 2023-03-28 18:19:42 Aussentemperatur 11.20 10.87 95.50
94196 2023-03-28 18:06:38 Terrasse 9.70 7.85 43.20
94195 2023-03-28 17:58:09 Bahnzimmer 17.80 16.77 43.60
94194 2023-03-28 17:51:36 Aussentemperatur 11.90 11.58 93.40
94193 2023-03-28 17:38:34 Terrasse 11.70 10.01 41.40
94192 2023-03-28 17:28:08 Bahnzimmer 18.00 16.98 42.90
94191 2023-03-28 17:23:37 Aussentemperatur 15.20 15.09 88.70
94190 2023-03-28 17:10:18 Terrasse 13.70 12.13 38.60
94189 2023-03-28 16:58:07 Bahnzimmer 18.00 16.99 43.30
94188 2023-03-28 16:55:36 Aussentemperatur 17.30 17.28 84.10
94187 2023-03-28 16:41:57 Terrasse 12.20 10.53 40.30
94186 2023-03-28 16:28:07 Bahnzimmer 18.10 17.09 43.00
94185 2023-03-28 16:27:20 Aussentemperatur 18.30 18.28 80.30
94184 2023-03-28 16:13:44 Terrasse 12.50 10.82 39.00
94183 2023-03-28 15:59:35 Aussentemperatur 24.40 24.87 75.50
94182 2023-03-28 15:58:06 Bahnzimmer 17.80 16.76 43.10
94181 2023-03-28 15:45:26 Terrasse 12.80 11.14 38.30
94180 2023-03-28 15:30:41 Aussentemperatur 21.20 21.40 77.50
94179 2023-03-28 15:28:05 Bahnzimmer 17.80 16.77 43.30
94178 2023-03-28 15:17:06 Terrasse 11.90 10.21 40.60
94177 2023-03-28 15:02:31 Aussentemperatur 22.60 22.91 76.40
94176 2023-03-28 14:58:04 Bahnzimmer 17.60 16.54 42.90
94175 2023-03-28 14:49:00 Terrasse 12.20 10.39 35.10
94174 2023-03-28 14:33:55 Aussentemperatur 20.10 20.17 76.70
94173 2023-03-28 14:28:03 Bahnzimmer 17.50 16.44 43.60
94172 2023-03-28 14:20:41 Terrasse 12.20 10.55 41.30
94171 2023-03-28 14:05:41 Aussentemperatur 19.70 19.80 79.40
94170 2023-03-28 13:58:02 Bahnzimmer 17.40 16.34 44.00
94169 2023-03-28 13:52:11 Terrasse 11.30 9.63 43.70
94168 2023-03-28 13:37:20 Aussentemperatur 18.10 18.02 78.70
94167 2023-03-28 13:28:02 Bahnzimmer 17.40 16.34 43.90
94166 2023-03-28 13:23:36 Terrasse 10.30 8.56 44.90
94165 2023-03-28 13:07:55 Aussentemperatur 11.30 10.84 90.20
94164 2023-03-28 12:58:01 Bahnzimmer 17.40 16.33 43.50
94163 2023-03-28 12:55:29 Terrasse 10.10 8.34 45.00
94162 2023-03-28 12:39:45 Aussentemperatur 13.50 13.18 87.10
94161 2023-03-28 12:28:00 Bahnzimmer 17.40 16.34 43.70
94160 2023-03-28 12:26:59 Terrasse 9.40 7.56 44.60
94159 2023-03-28 12:10:40 Aussentemperatur 7.40 6.60 92.10
94158 2023-03-28 11:58:25 Terrasse 8.00 6.10 47.70
94157 2023-03-28 11:58:00 Bahnzimmer 17.40 16.33 43.40
94156 2023-03-28 11:42:17 Aussentemperatur 4.70 3.65 92.90
94155 2023-03-28 11:30:02 Terrasse 7.00 5.06 50.10
94154 2023-03-28 11:27:59 Bahnzimmer 17.50 16.42 42.70
94153 2023-03-28 11:13:59 Aussentemperatur 3.70 2.56 93.30
94152 2023-03-28 11:01:36 Terrasse 5.70 3.71 52.90
94151 2023-03-28 10:57:58 Bahnzimmer 17.20 16.08 42.30
94150 2023-03-28 10:45:42 Aussentemperatur 2.80 1.56 92.90
94149 2023-03-28 10:33:12 Terrasse 4.50 2.50 57.20
94148 2023-03-28 10:27:56 Bahnzimmer 17.50 16.49 45.40
94147 2023-03-28 10:17:28 Aussentemperatur 2.40 1.12 92.70
94146 2023-03-28 10:04:50 Terrasse 3.70 1.71 60.50
94145 2023-03-28 09:49:11 Aussentemperatur 1.40 0.03 93.20
94144 2023-03-28 09:36:27 Terrasse 2.50 0.47 63.80
94143 2023-03-28 09:27:49 Bahnzimmer 17.70 16.70 45.10
94142 2023-03-28 09:20:55 Aussentemperatur 0.60 -0.84 93.70
94141 2023-03-28 09:08:07 Terrasse 1.50 -0.54 67.10
94140 2023-03-28 08:57:49 Bahnzimmer 17.90 16.92 45.00
94139 2023-03-28 08:52:42 Aussentemperatur 0.30 -1.16 93.90
94138 2023-03-28 08:39:49 Terrasse 1.10 -0.96 67.80
94137 2023-03-28 08:27:48 Bahnzimmer 18.00 17.03 45.10
94136 2023-03-28 08:24:31 Aussentemperatur 0.60 -0.85 93.30
94135 2023-03-28 08:11:33 Terrasse 1.00 -1.05 68.90
94134 2023-03-28 07:57:48 Bahnzimmer 18.10 17.14 45.00
94133 2023-03-28 07:56:19 Aussentemperatur 0.50 -0.94 94.00
94132 2023-03-28 07:43:16 Terrasse 0.60 -1.48 69.20
94131 2023-03-28 07:28:07 Aussentemperatur -0.10 -1.58 94.60
94130 2023-03-28 07:27:47 Bahnzimmer 18.10 17.13 44.70
94129 2023-03-28 07:15:02 Terrasse 0.50 -1.58 69.50
94128 2023-03-28 06:59:57 Aussentemperatur -0.20 -1.70 94.50
94127 2023-03-28 06:57:46 Bahnzimmer 18.10 17.14 44.80
94126 2023-03-28 06:46:47 Terrasse 0.60 -1.46 70.00
94125 2023-03-28 06:31:45 Aussentemperatur -0.10 -1.57 95.10
94124 2023-03-28 06:27:45 Bahnzimmer 18.10 17.14 45.10
94123 2023-03-28 06:18:33 Terrasse 0.60 -1.47 69.30
94122 2023-03-28 06:03:34 Aussentemperatur -0.10 -1.56 95.40
94121 2023-03-28 05:57:45 Bahnzimmer 18.20 17.25 45.00
94120 2023-03-28 05:50:17 Terrasse 0.60 -1.48 69.00
94119 2023-03-28 05:35:22 Aussentemperatur 0.00 -1.46 95.30
94118 2023-03-28 05:27:44 Bahnzimmer 18.40 17.47 44.90
94117 2023-03-28 05:22:01 Terrasse 0.80 -1.26 69.10
94116 2023-03-28 05:07:10 Aussentemperatur 0.00 -1.44 95.80
94115 2023-03-28 04:57:44 Bahnzimmer 18.30 17.36 44.80
94114 2023-03-28 04:53:48 Terrasse 0.90 -1.15 69.00
94113 2023-03-28 04:39:00 Aussentemperatur 0.10 -1.33 95.80
94112 2023-03-28 04:27:43 Bahnzimmer 18.00 17.04 45.30
94111 2023-03-28 04:25:32 Terrasse 0.80 -1.26 69.00
94110 2023-03-28 04:10:49 Aussentemperatur 0.00 -1.44 96.10
94109 2023-03-28 03:57:42 Bahnzimmer 18.00 17.04 45.20
94108 2023-03-28 03:57:17 Terrasse 1.00 -1.04 69.10
94107 2023-03-28 03:42:36 Aussentemperatur -0.10 -1.53 96.50
94106 2023-03-28 03:29:02 Terrasse 0.80 -1.25 69.30
94105 2023-03-28 03:27:42 Bahnzimmer 18.00 17.04 45.20
94104 2023-03-28 03:14:26 Aussentemperatur 0.00 -1.42 96.60
94103 2023-03-28 03:00:46 Terrasse 0.80 -1.25 69.40
94102 2023-03-28 02:57:41 Bahnzimmer 18.00 17.04 45.30
94101 2023-03-28 02:46:14 Aussentemperatur -0.20 -1.63 97.00
94100 2023-03-28 02:32:29 Terrasse 0.70 -1.37 69.00
94099 2023-03-28 02:27:40 Bahnzimmer 18.00 17.04 45.20
94098 2023-03-28 02:18:03 Aussentemperatur -0.50 -1.95 97.50
94097 2023-03-28 02:04:13 Terrasse 0.60 -1.46 69.80
94096 2023-03-28 01:57:40 Bahnzimmer 18.00 17.04 45.20
94095 2023-03-28 01:49:51 Aussentemperatur -0.70 -2.17 97.60
94094 2023-03-28 01:35:57 Terrasse 0.60 -1.46 69.90
94093 2023-03-28 01:27:39 Bahnzimmer 18.00 17.04 45.30
94092 2023-03-28 01:21:38 Aussentemperatur -1.10 -2.62 97.20
94091 2023-03-28 01:07:42 Terrasse 0.70 -1.37 69.10
94090 2023-03-28 00:57:38 Bahnzimmer 18.00 17.04 45.30
94089 2023-03-28 00:53:29 Aussentemperatur -0.40 -1.83 97.90
94088 2023-03-28 00:39:28 Terrasse 1.00 -1.06 68.50
94087 2023-03-28 00:27:38 Bahnzimmer 18.00 17.04 45.50
94086 2023-03-28 00:25:16 Aussentemperatur -0.60 -2.05 97.90
94085 2023-03-28 00:11:14 Terrasse 1.00 -1.06 68.20
94084 2023-03-27 23:57:37 Bahnzimmer 18.10 17.15 45.40
94083 2023-03-27 23:57:07 Aussentemperatur -0.40 -1.84 97.60
94082 2023-03-27 23:43:00 Terrasse 1.30 -0.75 67.60
94081 2023-03-27 23:28:56 Aussentemperatur -0.10 -1.50 97.90
94080 2023-03-27 23:27:36 Bahnzimmer 18.30 17.37 45.20
94079 2023-03-27 23:14:46 Terrasse 1.50 -0.54 67.10
94078 2023-03-27 23:00:45 Aussentemperatur 0.00 -1.39 97.90
94077 2023-03-27 22:57:36 Bahnzimmer 18.40 17.47 45.00
94076 2023-03-27 22:46:31 Terrasse 1.60 -0.44 66.80
94075 2023-03-27 22:32:36 Aussentemperatur 0.20 -1.16 98.10
94074 2023-03-27 22:27:35 Bahnzimmer 18.40 17.47 44.90
94073 2023-03-27 22:18:16 Terrasse 1.80 -0.21 67.10
94072 2023-03-27 22:04:24 Aussentemperatur 0.40 -0.95 98.00
94071 2023-03-27 21:57:34 Bahnzimmer 18.50 17.58 45.00
94070 2023-03-27 21:50:02 Terrasse 2.00 -0.01 66.40
94069 2023-03-27 21:36:14 Aussentemperatur 0.50 -0.85 97.40
94068 2023-03-27 21:27:34 Bahnzimmer 18.50 17.58 45.00
94067 2023-03-27 21:21:50 Terrasse 2.40 0.42 65.90
94066 2023-03-27 21:08:04 Aussentemperatur 0.90 -0.42 97.20
94065 2023-03-27 20:57:33 Bahnzimmer 18.60 17.69 45.10
94064 2023-03-27 20:53:35 Terrasse 2.70 0.72 64.80
94063 2023-03-27 20:39:54 Aussentemperatur 1.20 -0.08 97.30
94062 2023-03-27 20:27:32 Bahnzimmer 18.80 17.91 45.10
94061 2023-03-27 20:25:19 Terrasse 2.90 0.93 64.40
94060 2023-03-27 20:11:45 Aussentemperatur 1.60 0.30 95.20
94059 2023-03-27 19:57:32 Bahnzimmer 18.70 17.79 44.70
94058 2023-03-27 19:57:07 Terrasse 3.50 1.54 62.60
94057 2023-03-27 19:43:37 Aussentemperatur 2.50 1.27 94.30
94056 2023-03-27 19:28:56 Terrasse 4.20 2.29 61.80
94055 2023-03-27 19:27:31 Bahnzimmer 18.70 17.78 44.10
94054 2023-03-27 19:15:35 Aussentemperatur 4.40 3.33 93.20
94053 2023-03-27 19:00:44 Terrasse 5.30 3.35 56.10
94052 2023-03-27 18:57:31 Bahnzimmer 18.70 17.77 44.00
94051 2023-03-27 18:47:40 Aussentemperatur 7.90 7.09 89.80
94050 2023-03-27 18:32:32 Terrasse 5.90 3.99 55.20
94049 2023-03-27 18:27:30 Bahnzimmer 18.80 17.87 43.50
94048 2023-03-27 18:19:31 Aussentemperatur 8.90 8.25 92.00
94047 2023-03-27 18:04:19 Terrasse 7.00 5.19 55.00
94046 2023-03-27 17:57:29 Bahnzimmer 18.90 17.97 43.20
94045 2023-03-27 17:51:33 Aussentemperatur 9.00 8.27 88.70
94044 2023-03-27 17:36:09 Terrasse 8.50 6.83 54.50
94043 2023-03-27 17:27:29 Bahnzimmer 19.00 18.04 41.60
94042 2023-03-27 17:23:11 Aussentemperatur 7.90 7.08 89.40
94041 2023-03-27 17:07:35 Terrasse 6.70 4.97 59.10
94040 2023-03-27 16:57:28 Bahnzimmer 19.90 19.08 43.50
94039 2023-03-27 16:55:18 Aussentemperatur 9.00 8.07 81.10
94038 2023-03-27 16:39:41 Terrasse 10.60 9.00 49.30
94037 2023-03-27 16:28:05 Aussentemperatur 24.60 24.83 65.80
94036 2023-03-27 16:27:26 Bahnzimmer 19.70 18.87 43.70
94035 2023-03-27 16:11:07 Terrasse 9.40 7.73 51.20
94034 2023-03-27 15:59:02 Aussentemperatur 15.00 14.68 81.50
94033 2023-03-27 15:57:26 Bahnzimmer 19.50 18.64 43.60
94032 2023-03-27 15:42:50 Terrasse 8.30 6.67 56.80
94031 2023-03-27 15:31:21 Aussentemperatur 14.70 14.47 85.80
94030 2023-03-27 15:27:25 Bahnzimmer 19.20 18.29 42.50
94029 2023-03-27 15:14:43 Terrasse 8.90 7.34 57.10
94028 2023-03-27 15:04:05 Aussentemperatur 18.40 18.20 73.10
94027 2023-03-27 14:57:24 Bahnzimmer 19.50 18.66 44.30
94026 2023-03-27 14:46:47 Terrasse 11.50 10.09 52.90
94025 2023-03-27 14:35:39 Aussentemperatur 20.10 20.04 71.70
94024 2023-03-27 14:27:24 Bahnzimmer 19.20 18.36 45.50
94023 2023-03-27 14:18:34 Terrasse 11.60 10.27 55.80
94022 2023-03-27 14:08:02 Aussentemperatur 17.40 17.24 78.30
94021 2023-03-27 13:57:23 Bahnzimmer 19.10 18.25 45.20
94020 2023-03-27 13:50:05 Terrasse 9.20 7.65 56.50
94019 2023-03-27 13:40:36 Aussentemperatur 17.20 17.04 79.10
94018 2023-03-27 13:27:22 Bahnzimmer 19.10 18.26 45.60
94017 2023-03-27 13:21:47 Terrasse 11.40 9.84 47.80
94016 2023-03-27 13:13:14 Aussentemperatur 20.50 20.59 75.90
94015 2023-03-27 12:57:21 Bahnzimmer 19.10 18.25 45.40
94014 2023-03-27 12:53:03 Terrasse 9.60 7.99 52.70
94013 2023-03-27 12:42:56 Aussentemperatur 9.20 8.51 89.40
94012 2023-03-27 12:27:20 Bahnzimmer 19.30 18.48 45.60
94011 2023-03-27 12:24:41 Terrasse 7.80 6.05 54.00
94010 2023-03-27 12:13:43 Aussentemperatur 6.40 5.46 90.40
94009 2023-03-27 11:57:19 Bahnzimmer 19.40 18.58 45.50
94008 2023-03-27 11:56:15 Terrasse 7.10 5.34 56.50
94007 2023-03-27 11:45:19 Aussentemperatur 4.20 3.06 91.20
94006 2023-03-27 11:28:00 Terrasse 6.40 4.65 59.50
94005 2023-03-27 11:27:19 Bahnzimmer 19.50 18.69 45.20
94004 2023-03-27 11:17:09 Aussentemperatur 4.70 3.59 90.50
94003 2023-03-27 10:59:37 Terrasse 5.50 3.73 62.20
94002 2023-03-27 10:57:18 Bahnzimmer 19.30 18.47 45.30
94001 2023-03-27 10:48:54 Aussentemperatur 4.00 2.77 88.80
94000 2023-03-27 10:31:11 Terrasse 4.40 2.57 64.20
93999 2023-03-27 10:27:15 Bahnzimmer 19.20 18.34 44.50
93998 2023-03-27 10:20:29 Aussentemperatur 2.00 0.60 89.80
93997 2023-03-27 10:02:50 Terrasse 3.10 1.20 66.30
93996 2023-03-27 09:57:15 Bahnzimmer 18.60 17.60 41.60
93995 2023-03-27 09:52:14 Aussentemperatur 1.00 -0.49 90.20
93994 2023-03-27 09:34:31 Terrasse 2.30 0.38 68.70
93993 2023-03-27 09:27:14 Bahnzimmer 19.50 18.70 45.80
93992 2023-03-27 09:24:00 Aussentemperatur 0.50 -1.04 90.10
93991 2023-03-27 09:06:13 Terrasse 1.60 -0.37 69.50
93990 2023-03-27 08:57:13 Bahnzimmer 19.30 18.46 44.90
93989 2023-03-27 08:55:47 Aussentemperatur 0.00 -1.59 90.30
93988 2023-03-27 08:37:54 Terrasse 1.10 -0.89 70.50
93987 2023-03-27 08:27:34 Aussentemperatur -0.30 -1.91 90.50
93986 2023-03-27 08:27:13 Bahnzimmer 19.80 18.99 44.40
93985 2023-03-27 08:09:37 Terrasse 0.80 -1.27 68.90
93984 2023-03-27 07:59:22 Aussentemperatur -0.50 -2.13 90.50
93983 2023-03-27 07:57:12 Bahnzimmer 19.70 18.86 43.30
93982 2023-03-27 07:41:23 Terrasse 1.00 -1.08 67.50
93981 2023-03-27 07:31:11 Aussentemperatur -0.60 -2.23 90.80
93980 2023-03-27 07:27:11 Bahnzimmer 18.60 17.62 42.30
93979 2023-03-27 07:13:07 Terrasse 1.00 -1.07 68.00
93978 2023-03-27 07:03:00 Aussentemperatur -0.60 -2.23 91.10
93977 2023-03-27 06:57:11 Bahnzimmer 19.40 18.59 45.80
93976 2023-03-27 06:44:52 Terrasse 1.10 -0.97 67.70
93975 2023-03-27 06:34:48 Aussentemperatur -0.60 -2.22 91.30
93974 2023-03-27 06:27:10 Bahnzimmer 19.20 18.37 45.90
93973 2023-03-27 06:16:36 Terrasse 1.20 -0.86 67.50
93972 2023-03-27 06:06:37 Aussentemperatur -0.70 -2.33 91.50
93971 2023-03-27 05:57:09 Bahnzimmer 19.00 18.16 46.30
93970 2023-03-27 05:48:20 Terrasse 1.50 -0.53 67.40
93969 2023-03-27 05:38:26 Aussentemperatur -0.30 -1.88 91.60
93968 2023-03-27 05:27:09 Bahnzimmer 19.00 18.16 46.20
93967 2023-03-27 05:20:05 Terrasse 1.40 -0.63 68.00
93966 2023-03-27 05:10:17 Aussentemperatur -0.20 -1.76 91.90
93965 2023-03-27 04:57:08 Bahnzimmer 18.50 17.62 46.70
93964 2023-03-27 04:51:51 Terrasse 1.80 -0.20 67.40
93963 2023-03-27 04:42:06 Aussentemperatur -0.10 -1.65 92.20
93962 2023-03-27 04:27:07 Bahnzimmer 18.20 17.32 47.50
93961 2023-03-27 04:23:36 Terrasse 2.00 0.02 67.40
93960 2023-03-27 04:13:57 Aussentemperatur 0.40 -1.09 92.50
93959 2023-03-27 03:57:07 Bahnzimmer 18.20 17.32 47.80
93958 2023-03-27 03:55:21 Terrasse 2.20 0.26 68.20
93957 2023-03-27 03:45:48 Aussentemperatur 0.50 -0.97 92.80
93956 2023-03-27 03:27:08 Terrasse 2.80 0.95 69.60
93955 2023-03-27 03:27:06 Bahnzimmer 18.20 17.32 47.80
93954 2023-03-27 03:17:39 Aussentemperatur 1.00 -0.42 92.90
93953 2023-03-27 02:58:54 Terrasse 3.50 1.78 71.80
93952 2023-03-27 02:57:05 Bahnzimmer 18.30 17.44 48.00
93951 2023-03-27 02:49:32 Aussentemperatur 1.90 0.57 92.80
93950 2023-03-27 02:30:39 Terrasse 3.90 2.28 74.00
93949 2023-03-27 02:27:05 Bahnzimmer 18.30 17.44 48.10
93948 2023-03-27 02:21:20 Aussentemperatur 2.30 1.02 93.30
93947 2023-03-27 02:02:24 Terrasse 4.10 2.48 73.20
93946 2023-03-27 01:57:04 Bahnzimmer 18.40 17.55 48.10
93945 2023-03-27 01:53:09 Aussentemperatur 2.50 1.24 93.40
93944 2023-03-27 01:34:07 Terrasse 4.30 2.72 74.00
93943 2023-03-27 01:27:04 Bahnzimmer 18.50 17.66 48.20
93942 2023-03-27 01:24:58 Aussentemperatur 2.50 1.26 94.00
93941 2023-03-27 01:05:52 Terrasse 4.60 3.05 74.00
93940 2023-03-27 00:57:03 Bahnzimmer 18.70 17.88 48.00
93939 2023-03-27 00:56:47 Aussentemperatur 3.10 1.92 94.00
93938 2023-03-27 00:37:37 Terrasse 5.00 3.48 73.60
93937 2023-03-27 00:28:37 Aussentemperatur 3.50 2.36 94.00
93936 2023-03-27 00:27:02 Bahnzimmer 18.80 17.99 48.20
93935 2023-03-27 00:09:22 Terrasse 5.30 3.85 75.20
93934 2023-03-27 00:00:26 Aussentemperatur 3.90 2.81 94.30
93933 2023-03-26 23:57:02 Bahnzimmer 19.10 18.32 48.00
93932 2023-03-26 23:41:07 Terrasse 5.50 4.07 75.40
93931 2023-03-26 23:32:15 Aussentemperatur 4.10 3.03 94.40
93930 2023-03-26 23:27:01 Bahnzimmer 19.20 18.43 47.90
93929 2023-03-26 23:12:51 Terrasse 5.80 4.40 75.10
93928 2023-03-26 23:04:06 Aussentemperatur 4.60 3.58 94.20
93927 2023-03-26 22:57:00 Bahnzimmer 19.20 18.43 47.90
93926 2023-03-26 22:44:35 Terrasse 6.10 4.77 76.60
93925 2023-03-26 22:35:54 Aussentemperatur 4.70 3.70 94.60
93924 2023-03-26 22:27:00 Bahnzimmer 19.20 18.43 48.00
93923 2023-03-26 22:16:18 Terrasse 6.10 4.77 76.60
93922 2023-03-26 22:07:43 Aussentemperatur 4.70 3.71 95.10
93921 2023-03-26 21:56:59 Bahnzimmer 19.10 18.32 48.20
93920 2023-03-26 21:48:02 Terrasse 6.00 4.69 77.80
93919 2023-03-26 21:39:30 Aussentemperatur 4.60 3.61 95.50
93918 2023-03-26 21:26:58 Bahnzimmer 19.10 18.33 48.30
93917 2023-03-26 21:19:44 Terrasse 6.20 4.86 76.00
93916 2023-03-26 21:11:18 Aussentemperatur 4.60 3.62 96.00
93915 2023-03-26 20:56:58 Bahnzimmer 19.20 18.43 48.00
93914 2023-03-26 20:51:27 Terrasse 6.30 4.97 76.00
93913 2023-03-26 20:43:06 Aussentemperatur 4.90 3.96 96.40
93912 2023-03-26 20:26:57 Bahnzimmer 19.00 18.21 48.10
93911 2023-03-26 20:23:12 Terrasse 6.60 5.28 75.30
93910 2023-03-26 20:14:54 Aussentemperatur 5.00 4.09 97.20
93909 2023-03-26 19:56:56 Bahnzimmer 19.00 18.21 48.20
93908 2023-03-26 19:54:56 Terrasse 6.90 5.58 73.90
93907 2023-03-26 19:46:48 Aussentemperatur 5.70 4.87 97.60
93906 2023-03-26 19:26:56 Bahnzimmer 19.00 18.21 48.20
93905 2023-03-26 19:26:39 Terrasse 7.10 5.80 74.20
93904 2023-03-26 19:18:37 Aussentemperatur 6.00 5.22 98.30
93903 2023-03-26 18:58:23 Terrasse 7.30 5.98 72.60
93902 2023-03-26 18:56:55 Bahnzimmer 19.00 18.21 48.00
93901 2023-03-26 18:50:29 Aussentemperatur 6.70 5.99 98.20
93900 2023-03-26 18:30:07 Terrasse 7.60 6.30 72.10
93899 2023-03-26 18:26:54 Bahnzimmer 18.90 18.10 48.00
93898 2023-03-26 18:22:21 Aussentemperatur 7.10 6.47 99.90
93897 2023-03-26 18:01:51 Terrasse 7.40 6.07 71.60
93896 2023-03-26 17:56:54 Bahnzimmer 19.10 18.31 47.60
93895 2023-03-26 17:54:04 Aussentemperatur 5.20 4.38 99.90
93894 2023-03-26 17:33:48 Terrasse 9.80 8.48 62.80
93893 2023-03-26 17:26:53 Bahnzimmer 19.20 18.42 47.80
93892 2023-03-26 17:26:14 Aussentemperatur 10.20 9.85 98.50
93891 2023-03-26 17:05:34 Terrasse 10.40 9.15 63.40
93890 2023-03-26 16:58:08 Aussentemperatur 11.80 11.56 96.60
93889 2023-03-26 16:56:52 Bahnzimmer 19.30 18.53 47.50
93888 2023-03-26 16:37:20 Terrasse 11.30 10.09 61.40
93887 2023-03-26 16:30:06 Aussentemperatur 14.20 14.07 91.60
93886 2023-03-26 16:26:52 Bahnzimmer 19.20 18.43 48.10
93885 2023-03-26 16:09:03 Terrasse 12.00 10.99 66.50
93884 2023-03-26 16:02:03 Aussentemperatur 18.60 18.73 84.90
93883 2023-03-26 15:56:51 Bahnzimmer 19.30 18.54 48.20
93882 2023-03-26 15:40:50 Terrasse 11.50 10.33 62.30
93881 2023-03-26 15:34:03 Aussentemperatur 16.50 16.50 88.00
93880 2023-03-26 15:26:50 Bahnzimmer 19.10 18.33 48.60
93879 2023-03-26 15:12:21 Terrasse 11.00 9.99 70.40
93878 2023-03-26 15:05:07 Aussentemperatur 13.60 13.48 94.40
93877 2023-03-26 14:56:50 Bahnzimmer 19.30 18.55 48.30
93876 2023-03-26 14:44:17 Terrasse 11.70 10.66 66.30
93875 2023-03-26 14:37:58 Aussentemperatur 19.10 19.31 85.80
93874 2023-03-26 14:26:49 Bahnzimmer 19.20 18.44 48.60
93873 2023-03-26 14:15:41 Terrasse 9.50 8.47 75.40
93872 2023-03-26 14:09:08 Aussentemperatur 11.50 11.09 91.50
93871 2023-03-26 13:56:48 Bahnzimmer 19.20 18.43 48.20
93870 2023-03-26 13:47:17 Terrasse 8.10 6.99 77.50
93869 2023-03-26 13:40:42 Aussentemperatur 8.60 7.94 92.90
93868 2023-03-26 13:26:48 Bahnzimmer 19.00 18.21 47.90
93867 2023-03-26 13:19:10 Terrasse 7.80 6.64 76.90
93866 2023-03-26 13:12:36 Aussentemperatur 9.00 8.36 92.10
93865 2023-03-26 12:50:45 Terrasse 7.00 5.78 77.70
93864 2023-03-26 12:44:18 Aussentemperatur 7.50 6.71 92.10
93863 2023-03-26 12:26:41 Bahnzimmer 19.30 18.53 47.80
93862 2023-03-26 12:22:28 Terrasse 6.60 5.31 76.40
93861 2023-03-26 12:16:03 Aussentemperatur 6.10 5.19 92.70
93860 2023-03-26 11:56:41 Bahnzimmer 19.20 18.43 47.90
93859 2023-03-26 11:54:10 Terrasse 6.40 5.10 76.90
93858 2023-03-26 11:47:50 Aussentemperatur 5.90 4.98 93.10
93857 2023-03-26 11:26:40 Bahnzimmer 19.40 18.65 48.10
93856 2023-03-26 11:25:52 Terrasse 6.50 5.24 78.00
93855 2023-03-26 11:19:38 Aussentemperatur 6.20 5.28 92.20
93854 2023-03-26 10:57:33 Terrasse 6.30 5.03 78.30
93853 2023-03-26 10:56:39 Bahnzimmer 19.50 18.75 47.80
93852 2023-03-26 10:51:24 Aussentemperatur 5.90 4.96 92.50
93851 2023-03-26 10:29:15 Terrasse 6.20 4.93 78.50
93850 2023-03-26 10:26:39 Bahnzimmer 19.40 18.62 46.90
93849 2023-03-26 10:23:10 Aussentemperatur 5.60 4.64 92.90
93848 2023-03-26 10:00:58 Terrasse 6.20 4.91 77.80
93847 2023-03-26 09:56:37 Bahnzimmer 19.50 18.73 46.80
93846 2023-03-26 09:54:57 Aussentemperatur 5.70 4.75 93.00
93845 2023-03-26 09:32:40 Terrasse 6.10 4.76 76.50
93844 2023-03-26 09:26:45 Aussentemperatur 5.50 4.53 92.80
93843 2023-03-26 09:26:36 Bahnzimmer 19.50 18.72 46.60
93842 2023-03-26 09:04:21 Terrasse 6.20 4.87 76.40
93841 2023-03-26 08:58:34 Aussentemperatur 5.60 4.63 92.60
93840 2023-03-26 08:56:36 Bahnzimmer 19.40 18.61 46.70
93839 2023-03-26 08:36:03 Terrasse 6.00 4.66 76.70
93838 2023-03-26 08:30:19 Aussentemperatur 5.30 4.31 92.90
93837 2023-03-26 08:26:35 Bahnzimmer 19.30 18.51 46.90
93836 2023-03-26 08:07:45 Terrasse 6.00 4.64 76.10
93835 2023-03-26 08:02:07 Aussentemperatur 5.00 3.98 93.00
93834 2023-03-26 07:56:34 Bahnzimmer 19.10 18.29 47.00
93833 2023-03-26 07:39:27 Terrasse 5.80 4.42 76.00
93832 2023-03-26 07:33:55 Aussentemperatur 4.80 3.77 93.20
93831 2023-03-26 07:26:34 Bahnzimmer 19.00 18.18 46.90
93830 2023-03-26 07:11:11 Terrasse 5.80 4.41 75.50
93829 2023-03-26 07:05:43 Aussentemperatur 4.70 3.66 93.20
93828 2023-03-26 06:56:33 Bahnzimmer 18.70 17.85 47.00
93827 2023-03-26 06:42:53 Terrasse 5.80 4.39 75.00
93826 2023-03-26 06:37:31 Aussentemperatur 4.80 3.77 93.40
93825 2023-03-26 06:26:32 Bahnzimmer 17.90 17.00 48.10
93824 2023-03-26 06:14:36 Terrasse 5.90 4.46 73.40
93823 2023-03-26 06:09:19 Aussentemperatur 4.90 3.88 93.30
93822 2023-03-26 05:56:32 Bahnzimmer 17.80 16.89 48.20
93821 2023-03-26 05:46:18 Terrasse 5.90 4.44 72.40
93820 2023-03-26 05:41:06 Aussentemperatur 4.80 3.78 93.50
93819 2023-03-26 05:26:31 Bahnzimmer 17.80 16.89 48.20
93818 2023-03-26 05:18:00 Terrasse 5.90 4.42 71.60
93817 2023-03-26 05:12:53 Aussentemperatur 4.50 3.46 93.90
93816 2023-03-26 04:56:30 Bahnzimmer 18.00 17.11 48.20
93815 2023-03-26 04:49:44 Terrasse 5.90 4.40 71.00
93814 2023-03-26 04:44:42 Aussentemperatur 4.70 3.67 93.80
93813 2023-03-26 04:26:30 Bahnzimmer 17.90 17.00 48.20
93812 2023-03-26 04:21:26 Terrasse 6.10 4.62 71.10
93811 2023-03-26 04:16:30 Aussentemperatur 4.90 3.89 93.80
93810 2023-03-26 03:56:29 Bahnzimmer 18.00 17.11 48.00
93809 2023-03-26 03:53:08 Terrasse 6.10 4.61 70.70
93808 2023-03-26 03:48:19 Aussentemperatur 4.70 3.69 94.20
93807 2023-03-26 03:26:28 Bahnzimmer 18.00 17.11 47.90
93806 2023-03-26 03:24:51 Terrasse 6.10 4.59 69.90
93805 2023-03-26 03:20:09 Aussentemperatur 4.70 3.69 94.30
93804 2023-03-26 01:56:34 Terrasse 6.20 4.65 68.10
93803 2023-03-26 01:56:28 Bahnzimmer 18.00 17.11 47.90
93802 2023-03-26 01:51:57 Aussentemperatur 4.90 3.92 94.70
93801 2023-03-26 01:28:17 Terrasse 6.60 5.07 67.30
93800 2023-03-26 01:26:27 Bahnzimmer 18.10 17.21 47.70
93799 2023-03-26 01:23:48 Aussentemperatur 5.50 4.58 94.70
93798 2023-03-26 01:00:01 Terrasse 6.60 5.06 66.90
93797 2023-03-26 00:56:27 Bahnzimmer 18.30 17.43 47.70
93796 2023-03-26 00:55:37 Aussentemperatur 5.60 4.70 95.00
93795 2023-03-26 00:31:43 Terrasse 6.60 5.04 66.00
93794 2023-03-26 00:27:26 Aussentemperatur 5.60 4.70 95.20
93793 2023-03-26 00:26:26 Bahnzimmer 18.40 17.54 47.50
93792 2023-03-26 00:03:26 Terrasse 6.80 5.25 65.50
93791 2023-03-25 23:59:16 Aussentemperatur 5.90 5.03 95.30
93790 2023-03-25 23:56:25 Bahnzimmer 18.60 17.75 47.40
93789 2023-03-25 23:35:09 Terrasse 6.90 5.34 64.90
93788 2023-03-25 23:31:05 Aussentemperatur 6.10 5.26 95.50
93787 2023-03-25 23:26:25 Bahnzimmer 18.70 17.86 47.10
93786 2023-03-25 23:06:52 Terrasse 7.00 5.46 65.30
93785 2023-03-25 23:02:54 Aussentemperatur 6.20 5.37 95.70
93784 2023-03-25 22:56:24 Bahnzimmer 18.70 17.86 47.40
93783 2023-03-25 22:38:35 Terrasse 7.20 5.68 65.20
93782 2023-03-25 22:34:42 Aussentemperatur 6.20 5.39 96.20
93781 2023-03-25 22:26:23 Bahnzimmer 18.60 17.75 47.30
93780 2023-03-25 22:10:17 Terrasse 7.40 5.87 64.10
93779 2023-03-25 22:06:30 Aussentemperatur 6.20 5.40 96.50
93778 2023-03-25 21:56:23 Bahnzimmer 18.50 17.64 47.30
93777 2023-03-25 21:42:01 Terrasse 7.50 5.95 63.00
93776 2023-03-25 21:38:32 Aussentemperatur 6.50 5.74 96.90
93775 2023-03-25 21:26:22 Bahnzimmer 18.60 17.75 47.10
93774 2023-03-25 21:13:45 Terrasse 7.90 6.36 62.00
93773 2023-03-25 21:10:17 Aussentemperatur 6.80 6.08 97.50
93772 2023-03-25 20:56:21 Bahnzimmer 18.80 17.97 47.10
93771 2023-03-25 20:45:30 Terrasse 8.30 6.74 59.40
93770 2023-03-25 20:42:07 Aussentemperatur 7.20 6.53 97.90
93769 2023-03-25 20:26:21 Bahnzimmer 18.70 17.85 46.80
93768 2023-03-25 20:17:15 Terrasse 8.70 7.10 56.60
93767 2023-03-25 20:13:57 Aussentemperatur 7.80 7.20 98.30
93766 2023-03-25 19:56:20 Bahnzimmer 18.60 17.75 47.20
93765 2023-03-25 19:49:01 Terrasse 9.20 7.61 54.80
93764 2023-03-25 19:45:49 Aussentemperatur 8.30 7.77 98.80
93763 2023-03-25 19:26:19 Bahnzimmer 18.50 17.64 47.10
93762 2023-03-25 19:20:47 Terrasse 9.70 8.14 54.00
93761 2023-03-25 19:17:39 Aussentemperatur 9.00 8.56 99.60
93760 2023-03-25 18:56:19 Bahnzimmer 18.50 17.65 47.70
93759 2023-03-25 18:52:33 Terrasse 10.10 8.52 52.00
93758 2023-03-25 18:49:31 Aussentemperatur 9.50 9.11 99.90
93757 2023-03-25 18:26:18 Bahnzimmer 18.60 17.75 47.40
93756 2023-03-25 18:24:18 Terrasse 10.70 9.15 50.90
93755 2023-03-25 18:21:24 Aussentemperatur 10.60 10.32 99.90
93754 2023-03-25 17:56:17 Bahnzimmer 18.80 17.97 47.10
93753 2023-03-25 17:56:07 Terrasse 11.30 9.75 48.50
93752 2023-03-25 17:53:17 Aussentemperatur 11.70 11.53 99.90
93751 2023-03-25 17:27:55 Terrasse 12.10 10.58 46.50
93750 2023-03-25 17:26:17 Bahnzimmer 18.70 17.85 46.90
93749 2023-03-25 17:25:25 Aussentemperatur 14.80 14.93 99.20
93748 2023-03-25 16:59:42 Terrasse 13.30 11.81 43.10
93747 2023-03-25 16:57:07 Aussentemperatur 15.20 15.34 98.20
93746 2023-03-25 16:56:16 Bahnzimmer 18.70 17.85 46.90
93745 2023-03-25 16:31:43 Terrasse 15.20 13.85 41.30
93744 2023-03-25 16:28:51 Aussentemperatur 15.90 16.08 97.20
93743 2023-03-25 16:26:15 Bahnzimmer 18.80 17.98 47.50
93742 2023-03-25 16:03:03 Terrasse 13.10 11.62 44.40
93741 2023-03-25 16:00:30 Aussentemperatur 14.70 14.82 99.30
93740 2023-03-25 15:56:15 Bahnzimmer 18.90 18.09 47.50
93739 2023-03-25 15:34:50 Terrasse 13.50 12.13 46.90
93738 2023-03-25 15:32:44 Aussentemperatur 16.80 16.97 93.10
93737 2023-03-25 15:26:14 Bahnzimmer 18.90 18.08 47.30
93736 2023-03-25 15:06:31 Terrasse 13.60 12.31 49.40
93735 2023-03-25 15:05:04 Aussentemperatur 25.10 25.82 82.70
93734 2023-03-25 14:56:13 Bahnzimmer 18.70 17.89 48.30
93733 2023-03-25 14:38:14 Terrasse 13.10 11.78 50.30
93732 2023-03-25 14:37:07 Aussentemperatur 22.10 22.56 84.00
93731 2023-03-25 14:26:13 Bahnzimmer 18.80 18.00 48.60
93730 2023-03-25 14:09:58 Terrasse 12.50 11.12 50.30
93729 2023-03-25 14:08:59 Aussentemperatur 18.70 18.99 90.70
93728 2023-03-25 13:56:12 Bahnzimmer 18.80 18.01 48.90
93727 2023-03-25 13:41:38 Terrasse 11.90 10.50 51.80
93726 2023-03-25 13:41:00 Aussentemperatur 16.30 16.45 94.40
93725 2023-03-25 13:26:11 Bahnzimmer 19.00 18.23 49.00
93724 2023-03-25 13:13:17 Terrasse 11.90 10.56 54.20
93723 2023-03-25 13:12:32 Aussentemperatur 14.80 14.78 93.50
93722 2023-03-25 12:56:11 Bahnzimmer 19.00 18.23 49.00
93721 2023-03-25 12:45:12 Terrasse 13.00 11.75 53.30
93720 2023-03-25 12:44:34 Aussentemperatur 17.00 17.04 87.50
93719 2023-03-25 12:26:10 Bahnzimmer 19.10 18.34 49.00
93718 2023-03-25 12:16:37 Terrasse 12.70 11.46 54.90
93717 2023-03-25 12:16:23 Aussentemperatur 19.00 19.14 83.50
93716 2023-03-25 11:56:09 Bahnzimmer 19.30 18.56 48.70
93715 2023-03-25 11:47:38 Terrasse 10.10 8.86 64.80
93714 2023-03-25 11:47:02 Aussentemperatur 14.80 14.60 86.80
93713 2023-03-25 11:26:04 Bahnzimmer 19.30 18.55 48.60
93712 2023-03-25 11:19:02 Terrasse 8.00 6.77 73.30
93711 2023-03-25 11:17:56 Aussentemperatur 10.80 10.39 94.10
93710 2023-03-25 10:56:04 Bahnzimmer 19.40 18.66 48.50
93709 2023-03-25 10:50:36 Terrasse 5.70 4.20 71.90
93708 2023-03-25 10:49:20 Aussentemperatur 3.70 2.64 96.20
93707 2023-03-25 10:26:03 Bahnzimmer 19.40 18.67 48.70
93706 2023-03-25 10:22:27 Terrasse 7.60 6.25 70.40
93705 2023-03-25 10:21:22 Aussentemperatur 7.10 6.31 93.50
93704 2023-03-25 09:56:02 Bahnzimmer 19.70 19.02 49.50
93703 2023-03-25 09:54:10 Terrasse 7.80 6.46 69.80
93702 2023-03-25 09:53:19 Aussentemperatur 8.30 7.61 92.70
93701 2023-03-25 09:26:02 Bahnzimmer 19.50 18.80 49.50
93700 2023-03-25 09:25:49 Terrasse 7.20 5.85 71.70
93699 2023-03-25 09:24:59 Aussentemperatur 7.20 6.41 93.10
93698 2023-03-25 08:57:41 Terrasse 7.20 5.87 72.50
93697 2023-03-25 08:56:48 Aussentemperatur 7.40 6.62 92.90
93696 2023-03-25 08:56:01 Bahnzimmer 19.50 18.78 49.00
93695 2023-03-25 08:29:20 Terrasse 6.90 5.58 74.00
93694 2023-03-25 08:28:32 Aussentemperatur 6.80 5.95 92.60
93693 2023-03-25 08:26:00 Bahnzimmer 19.40 18.67 48.80
93692 2023-03-25 08:01:01 Terrasse 6.50 5.17 75.10
93691 2023-03-25 08:00:16 Aussentemperatur 6.00 5.09 93.10
93690 2023-03-25 07:55:59 Bahnzimmer 18.80 17.99 48.10
93689 2023-03-25 07:32:43 Terrasse 6.30 4.96 75.50
93688 2023-03-25 07:32:03 Aussentemperatur 5.50 4.54 93.40
93687 2023-03-25 07:25:59 Bahnzimmer 18.70 17.88 48.20
93686 2023-03-25 07:04:25 Terrasse 6.20 4.85 75.80
93685 2023-03-25 07:03:54 Aussentemperatur 5.40 4.44 93.50
93684 2023-03-25 06:55:56 Bahnzimmer 18.40 17.56 48.30
93683 2023-03-25 06:36:07 Terrasse 6.10 4.75 76.00
93682 2023-03-25 06:35:41 Aussentemperatur 5.00 4.00 93.60
93681 2023-03-25 06:25:53 Bahnzimmer 17.60 16.71 49.60
93680 2023-03-25 06:07:51 Terrasse 6.10 4.76 76.20
93679 2023-03-25 06:07:27 Aussentemperatur 5.00 4.00 93.80
93678 2023-03-25 05:55:53 Bahnzimmer 17.60 16.71 49.60
93677 2023-03-25 05:39:34 Terrasse 6.20 4.88 76.90
93676 2023-03-25 05:39:17 Aussentemperatur 5.10 4.11 93.80
93675 2023-03-25 05:25:52 Bahnzimmer 17.70 16.82 49.60
93674 2023-03-25 05:11:16 Terrasse 6.10 4.77 76.80
93673 2023-03-25 05:11:05 Aussentemperatur 5.10 4.12 94.00
93672 2023-03-25 04:55:51 Bahnzimmer 17.70 16.82 49.50
93671 2023-03-25 04:42:58 Terrasse 6.10 4.78 77.30
93670 2023-03-25 04:42:53 Aussentemperatur 5.00 4.02 94.20
93669 2023-03-25 04:25:51 Bahnzimmer 17.80 16.93 49.60
93668 2023-03-25 04:14:42 Terrasse 6.00 4.66 76.70
93667 2023-03-25 04:14:40 Aussentemperatur 4.70 3.69 94.30
93666 2023-03-25 03:55:50 Bahnzimmer 17.80 16.93 49.60
93665 2023-03-25 03:46:29 Aussentemperatur 4.70 3.70 94.70
93664 2023-03-25 03:46:25 Terrasse 6.10 4.77 76.90
93663 2023-03-25 03:25:49 Bahnzimmer 17.80 16.93 49.50
93662 2023-03-25 03:18:18 Aussentemperatur 4.70 3.70 94.80
93661 2023-03-25 03:18:08 Terrasse 6.10 4.73 75.30
93660 2023-03-25 02:55:49 Bahnzimmer 17.80 16.93 49.70
93659 2023-03-25 02:50:06 Aussentemperatur 5.00 4.04 95.10
93658 2023-03-25 02:49:51 Terrasse 6.30 4.92 74.10
93657 2023-03-25 02:25:48 Bahnzimmer 17.80 16.93 49.70
93656 2023-03-25 02:21:55 Aussentemperatur 5.10 4.15 95.10
93655 2023-03-25 02:21:34 Terrasse 6.30 4.92 74.00
93654 2023-03-25 01:55:47 Bahnzimmer 17.90 17.04 49.70
93653 2023-03-25 01:53:43 Aussentemperatur 5.30 4.38 95.40
93652 2023-03-25 01:53:17 Terrasse 6.60 5.26 74.50
93651 2023-03-25 01:25:47 Bahnzimmer 18.00 17.16 50.00
93650 2023-03-25 01:25:33 Aussentemperatur 5.30 4.39 95.80
93649 2023-03-25 01:25:02 Terrasse 6.70 5.38 75.00
93648 2023-03-25 00:57:23 Aussentemperatur 5.50 4.61 95.80
93647 2023-03-25 00:56:47 Terrasse 7.20 5.90 73.60
93646 2023-03-25 00:55:46 Bahnzimmer 18.10 17.26 49.70
93645 2023-03-25 00:29:12 Aussentemperatur 5.90 5.06 96.30
93644 2023-03-25 00:28:30 Terrasse 7.40 6.12 73.60
93643 2023-03-25 00:25:46 Bahnzimmer 18.20 17.37 49.70
93642 2023-03-25 00:01:02 Aussentemperatur 6.20 5.40 96.50
93641 2023-03-25 00:00:14 Terrasse 7.60 6.30 72.30
93640 2023-03-24 23:55:45 Bahnzimmer 18.30 17.48 49.50
93639 2023-03-24 23:32:51 Aussentemperatur 6.30 5.51 96.80
93638 2023-03-24 23:31:57 Terrasse 7.80 6.49 71.20
93637 2023-03-24 23:25:44 Bahnzimmer 18.30 17.48 49.60
93636 2023-03-24 23:04:41 Aussentemperatur 6.50 5.74 97.10
93635 2023-03-24 23:03:41 Terrasse 8.00 6.69 70.40
93634 2023-03-24 22:55:44 Bahnzimmer 18.30 17.47 49.30
93633 2023-03-24 22:36:29 Aussentemperatur 6.50 5.75 97.60
93632 2023-03-24 22:35:27 Terrasse 8.30 7.05 71.40
93631 2023-03-24 22:25:43 Bahnzimmer 18.30 17.48 49.50
93630 2023-03-24 22:08:18 Aussentemperatur 6.90 6.20 98.00
93629 2023-03-24 22:07:10 Terrasse 8.50 7.17 67.60
93628 2023-03-24 21:55:42 Bahnzimmer 18.40 17.59 49.50
93627 2023-03-24 21:40:33 Aussentemperatur 7.10 6.43 98.20
93626 2023-03-24 21:38:55 Terrasse 8.90 7.60 67.30
93625 2023-03-24 21:25:42 Bahnzimmer 18.40 17.59 49.60
93624 2023-03-24 21:12:13 Aussentemperatur 7.50 6.89 99.10
93623 2023-03-24 21:10:39 Terrasse 9.20 7.90 66.20
93622 2023-03-24 20:55:41 Bahnzimmer 18.40 17.59 49.40
93621 2023-03-24 20:44:03 Aussentemperatur 7.80 7.24 99.70
93620 2023-03-24 20:42:25 Terrasse 9.80 8.52 64.60
93619 2023-03-24 20:25:40 Bahnzimmer 18.60 17.81 49.60
93618 2023-03-24 20:16:00 Aussentemperatur 9.50 9.06 98.00
93617 2023-03-24 20:14:14 Terrasse 11.10 9.87 61.40
93616 2023-03-24 19:55:40 Bahnzimmer 18.40 17.59 49.40
93615 2023-03-24 19:47:51 Aussentemperatur 10.70 10.43 99.90
93614 2023-03-24 19:45:57 Terrasse 11.40 10.05 55.80
93613 2023-03-24 19:25:39 Bahnzimmer 18.30 17.46 48.90
93612 2023-03-24 19:19:43 Aussentemperatur 11.30 11.09 99.90
93611 2023-03-24 19:17:43 Terrasse 11.90 10.55 53.90
93610 2023-03-24 18:55:38 Bahnzimmer 18.30 17.47 49.30
93609 2023-03-24 18:51:34 Aussentemperatur 12.10 11.97 99.90
93608 2023-03-24 18:49:27 Terrasse 12.50 11.16 51.70
93607 2023-03-24 18:25:38 Bahnzimmer 18.40 17.57 48.90
93606 2023-03-24 18:23:29 Aussentemperatur 13.50 13.51 99.90
93605 2023-03-24 18:21:25 Terrasse 13.10 11.78 50.50
93604 2023-03-24 17:55:37 Bahnzimmer 18.40 17.60 49.80
93603 2023-03-24 17:55:33 Aussentemperatur 16.40 16.70 99.90
93602 2023-03-24 17:53:08 Terrasse 13.90 12.67 50.60
93601 2023-03-24 17:27:02 Aussentemperatur 15.30 15.49 99.90
93600 2023-03-24 17:25:36 Bahnzimmer 18.50 17.71 49.80
93599 2023-03-24 17:24:50 Terrasse 14.10 12.87 49.80
93598 2023-03-24 16:59:04 Aussentemperatur 17.00 17.36 99.90
93597 2023-03-24 16:56:36 Terrasse 15.00 13.82 48.30
93596 2023-03-24 16:55:36 Bahnzimmer 18.70 17.93 49.90
93595 2023-03-24 16:30:53 Aussentemperatur 17.10 17.47 99.90
93594 2023-03-24 16:28:22 Terrasse 15.70 14.56 47.30
93593 2023-03-24 16:25:35 Bahnzimmer 18.90 18.15 49.90
93592 2023-03-24 16:02:38 Aussentemperatur 17.20 17.58 99.90
93591 2023-03-24 16:00:01 Terrasse 15.20 14.08 49.90
93590 2023-03-24 15:55:34 Bahnzimmer 19.00 18.26 49.80
93589 2023-03-24 15:35:01 Aussentemperatur 22.20 22.85 91.10
93588 2023-03-24 15:31:54 Terrasse 17.60 16.68 48.50
93587 2023-03-24 15:25:34 Bahnzimmer 18.90 18.14 49.70
93586 2023-03-24 15:06:39 Aussentemperatur 25.70 27.14 81.90
93585 2023-03-24 15:03:27 Terrasse 15.90 14.82 48.80
93584 2023-03-24 14:55:33 Bahnzimmer 18.90 18.15 50.00
93583 2023-03-24 14:39:07 Aussentemperatur 30.00 36.78 76.80
93582 2023-03-24 14:35:11 Terrasse 16.40 15.42 50.80
93581 2023-03-24 14:25:32 Bahnzimmer 18.80 18.06 50.70
93580 2023-03-24 14:10:40 Aussentemperatur 25.80 27.34 82.00
93579 2023-03-24 14:06:48 Terrasse 15.20 14.13 51.90
93578 2023-03-24 13:55:32 Bahnzimmer 18.90 18.17 50.80
93577 2023-03-24 13:42:09 Aussentemperatur 21.50 22.04 89.30
93576 2023-03-24 13:38:30 Terrasse 14.50 13.70 65.00
93575 2023-03-24 13:25:31 Bahnzimmer 19.00 18.28 50.90
93574 2023-03-24 13:13:42 Aussentemperatur 18.40 18.70 92.10
93573 2023-03-24 13:10:04 Terrasse 13.50 12.71 69.00
93572 2023-03-24 12:55:30 Bahnzimmer 19.10 18.41 51.40
93571 2023-03-24 12:45:23 Aussentemperatur 16.60 16.72 92.20
93570 2023-03-24 12:41:33 Terrasse 12.00 11.26 76.80
93569 2023-03-24 12:25:29 Bahnzimmer 19.20 18.51 51.20
93568 2023-03-24 12:16:43 Aussentemperatur 11.10 10.70 93.30
93567 2023-03-24 12:13:09 Terrasse 10.60 9.77 78.50
93566 2023-03-24 11:55:28 Bahnzimmer 19.10 18.40 51.10
93565 2023-03-24 11:48:24 Aussentemperatur 10.30 9.83 93.80
93564 2023-03-24 11:44:49 Terrasse 10.40 9.54 78.20
93563 2023-03-24 11:20:04 Aussentemperatur 9.50 8.96 94.10
93562 2023-03-24 11:16:32 Terrasse 9.90 8.98 77.90
93561 2023-03-24 10:55:22 Bahnzimmer 19.10 18.37 50.10
93560 2023-03-24 10:51:48 Aussentemperatur 9.10 8.54 94.70
93559 2023-03-24 10:48:16 Terrasse 10.00 9.10 78.30
93558 2023-03-24 10:25:22 Bahnzimmer 19.10 18.38 50.40
93557 2023-03-24 10:23:41 Aussentemperatur 10.40 9.94 93.80
93556 2023-03-24 10:20:00 Terrasse 10.50 9.74 81.90
93555 2023-03-24 09:55:30 Aussentemperatur 10.50 10.04 93.40
93554 2023-03-24 09:55:21 Bahnzimmer 19.00 18.27 50.30
93553 2023-03-24 09:51:40 Terrasse 10.60 9.88 83.00
93552 2023-03-24 09:27:19 Aussentemperatur 10.20 9.71 93.30
93551 2023-03-24 09:23:22 Terrasse 10.40 9.64 82.20
93550 2023-03-24 08:59:03 Aussentemperatur 9.80 9.27 93.40
93549 2023-03-24 08:55:15 Bahnzimmer 18.80 18.03 49.60
93548 2023-03-24 08:55:02 Terrasse 10.20 9.42 82.10
93547 2023-03-24 08:30:51 Aussentemperatur 9.50 8.95 93.50
93546 2023-03-24 08:26:45 Terrasse 10.10 9.30 81.60
93545 2023-03-24 08:25:11 Bahnzimmer 19.00 18.25 49.70
93544 2023-03-24 08:02:37 Aussentemperatur 9.50 8.94 93.20
93543 2023-03-24 07:58:25 Terrasse 10.00 9.19 81.70
93542 2023-03-24 07:55:10 Bahnzimmer 19.30 18.58 49.70
93541 2023-03-24 07:34:24 Aussentemperatur 9.40 8.84 93.50
93540 2023-03-24 07:30:07 Terrasse 9.80 8.98 82.10
93539 2023-03-24 07:25:08 Bahnzimmer 19.20 18.47 49.70
93538 2023-03-24 07:06:11 Aussentemperatur 9.20 8.62 93.50
93537 2023-03-24 07:01:50 Terrasse 9.80 8.97 81.70
93536 2023-03-24 06:55:08 Bahnzimmer 19.00 18.21 48.10
93535 2023-03-24 06:38:00 Aussentemperatur 9.00 8.40 93.60
93534 2023-03-24 06:33:31 Terrasse 9.80 8.96 81.30
93533 2023-03-24 06:25:07 Bahnzimmer 18.80 17.99 48.00
93532 2023-03-24 06:09:47 Aussentemperatur 9.00 8.40 93.70
93531 2023-03-24 06:05:12 Terrasse 9.80 8.96 81.30
93530 2023-03-24 05:55:06 Bahnzimmer 18.60 17.77 48.10
93529 2023-03-24 05:41:33 Aussentemperatur 8.80 8.18 93.70
93528 2023-03-24 05:36:53 Terrasse 9.70 8.81 80.00
93527 2023-03-24 05:25:06 Bahnzimmer 18.30 17.45 48.30
93526 2023-03-24 05:13:21 Aussentemperatur 8.70 8.07 93.70
93525 2023-03-24 05:08:35 Terrasse 9.60 8.67 78.80
93524 2023-03-24 04:55:05 Bahnzimmer 17.80 16.92 49.10
93523 2023-03-24 04:45:07 Aussentemperatur 8.70 8.07 93.80
93522 2023-03-24 04:40:16 Terrasse 9.60 8.67 78.60
93521 2023-03-24 04:25:04 Bahnzimmer 17.90 17.02 49.00
93520 2023-03-24 04:16:55 Aussentemperatur 8.50 7.86 94.00
93519 2023-03-24 04:11:58 Terrasse 9.60 8.68 79.00
93518 2023-03-24 03:55:04 Bahnzimmer 18.00 17.13 49.00
93517 2023-03-24 03:48:44 Aussentemperatur 8.60 7.97 94.00
93516 2023-03-24 03:43:40 Terrasse 9.70 8.78 78.50
93515 2023-03-24 03:25:03 Bahnzimmer 18.00 17.13 49.00
93514 2023-03-24 03:20:30 Aussentemperatur 8.60 7.98 94.20
93513 2023-03-24 03:15:23 Terrasse 9.70 8.79 79.00
93512 2023-03-24 02:55:02 Bahnzimmer 18.00 17.13 49.00
93511 2023-03-24 02:52:19 Aussentemperatur 8.60 7.98 94.30
93510 2023-03-24 02:47:05 Terrasse 9.80 8.90 78.90
93509 2023-03-24 02:25:02 Bahnzimmer 18.10 17.24 49.00
93508 2023-03-24 02:24:08 Aussentemperatur 8.80 8.21 94.60
93507 2023-03-24 02:18:49 Terrasse 9.80 8.89 78.80
93506 2023-03-24 01:55:56 Aussentemperatur 8.90 8.32 94.60
93505 2023-03-24 01:55:01 Bahnzimmer 18.20 17.35 48.90
93504 2023-03-24 01:50:32 Terrasse 10.10 9.23 79.00
93503 2023-03-24 01:27:44 Aussentemperatur 9.20 8.65 94.70
93502 2023-03-24 01:25:00 Bahnzimmer 18.30 17.46 48.80
93501 2023-03-24 01:22:15 Terrasse 10.20 9.31 77.80
93500 2023-03-24 00:59:33 Aussentemperatur 9.20 8.65 94.90
93499 2023-03-24 00:55:00 Bahnzimmer 18.40 17.57 48.80
93498 2023-03-24 00:53:57 Terrasse 10.30 9.41 77.50
93497 2023-03-24 00:31:22 Aussentemperatur 9.40 8.88 95.20
93496 2023-03-24 00:25:40 Terrasse 10.50 9.59 76.10
93495 2023-03-24 00:24:59 Bahnzimmer 18.60 17.78 48.50
93494 2023-03-24 00:03:12 Aussentemperatur 10.00 9.53 94.80
93493 2023-03-23 23:57:24 Terrasse 10.60 9.66 74.60
93492 2023-03-23 23:54:58 Bahnzimmer 18.80 17.99 48.20
93491 2023-03-23 23:35:00 Aussentemperatur 10.20 9.75 94.60
93490 2023-03-23 23:29:08 Terrasse 10.80 9.85 73.30
93489 2023-03-23 23:24:58 Bahnzimmer 19.10 18.31 47.70
93488 2023-03-23 23:06:48 Aussentemperatur 10.30 9.86 94.70
93487 2023-03-23 23:00:50 Terrasse 10.80 9.84 73.00
93486 2023-03-23 22:54:57 Bahnzimmer 19.30 18.53 47.50
93485 2023-03-23 22:38:36 Aussentemperatur 10.30 9.86 94.90
93484 2023-03-23 22:32:32 Terrasse 10.70 9.72 72.70
93483 2023-03-23 22:24:56 Bahnzimmer 19.20 18.42 47.50
93482 2023-03-23 22:10:24 Aussentemperatur 10.20 9.76 95.00
93481 2023-03-23 22:04:15 Terrasse 10.80 9.81 71.80
93480 2023-03-23 21:54:56 Bahnzimmer 19.10 18.31 47.60
93479 2023-03-23 21:42:11 Aussentemperatur 10.20 9.76 95.20
93478 2023-03-23 21:35:58 Terrasse 10.80 9.80 71.40
93477 2023-03-23 21:24:55 Bahnzimmer 19.10 18.31 47.70
93476 2023-03-23 21:14:00 Aussentemperatur 10.30 9.87 95.10
93475 2023-03-23 21:07:40 Terrasse 10.90 9.92 71.80
93474 2023-03-23 20:54:54 Bahnzimmer 19.00 18.20 47.70
93473 2023-03-23 20:45:49 Aussentemperatur 10.30 9.88 95.40
93472 2023-03-23 20:39:22 Terrasse 10.90 9.89 70.70
93471 2023-03-23 20:24:54 Bahnzimmer 18.90 18.09 47.60
93470 2023-03-23 20:17:37 Aussentemperatur 10.30 9.88 95.70
93469 2023-03-23 20:11:03 Terrasse 11.00 9.98 69.70
93468 2023-03-23 19:54:53 Bahnzimmer 18.60 17.76 47.70
93467 2023-03-23 19:49:25 Aussentemperatur 10.30 9.89 96.10
93466 2023-03-23 19:42:46 Terrasse 11.10 10.09 69.80
93465 2023-03-23 19:24:51 Bahnzimmer 18.60 17.77 48.00
93464 2023-03-23 19:21:14 Aussentemperatur 10.40 10.02 96.50
93463 2023-03-23 19:14:30 Terrasse 11.20 10.22 70.60
93462 2023-03-23 18:54:51 Bahnzimmer 18.40 17.55 48.20
93461 2023-03-23 18:53:03 Aussentemperatur 10.90 10.57 96.70
93460 2023-03-23 18:46:14 Terrasse 11.60 10.64 70.00
93459 2023-03-23 18:24:56 Aussentemperatur 11.50 11.24 97.10
93458 2023-03-23 18:24:50 Bahnzimmer 18.50 17.67 48.60
93457 2023-03-23 18:17:58 Terrasse 12.00 11.02 67.60
93456 2023-03-23 17:56:48 Aussentemperatur 12.50 12.34 96.90
93455 2023-03-23 17:54:49 Bahnzimmer 18.40 17.57 49.00
93454 2023-03-23 17:49:43 Terrasse 12.50 11.49 64.70
93453 2023-03-23 17:28:36 Aussentemperatur 13.10 13.01 97.60
93452 2023-03-23 17:24:49 Bahnzimmer 18.40 17.56 48.50
93451 2023-03-23 17:21:27 Terrasse 12.90 11.89 62.90
93450 2023-03-23 17:00:28 Aussentemperatur 14.20 14.21 97.20
93449 2023-03-23 16:54:48 Bahnzimmer 18.40 17.56 48.60
93448 2023-03-23 16:53:12 Terrasse 13.30 12.29 61.40
93447 2023-03-23 16:32:23 Aussentemperatur 15.60 15.71 95.60
93446 2023-03-23 16:24:58 Terrasse 14.40 13.46 59.90
93445 2023-03-23 16:24:47 Bahnzimmer 18.30 17.46 48.80
93444 2023-03-23 16:03:56 Aussentemperatur 13.60 13.59 98.70
93443 2023-03-23 15:56:35 Terrasse 13.00 12.01 63.50
93442 2023-03-23 15:54:47 Bahnzimmer 18.20 17.36 49.30
93441 2023-03-23 15:35:50 Aussentemperatur 14.80 14.92 99.00
93440 2023-03-23 15:28:23 Terrasse 13.90 12.95 61.40
93439 2023-03-23 15:24:43 Bahnzimmer 18.30 17.45 48.30
93438 2023-03-23 15:07:54 Aussentemperatur 18.30 18.66 94.90
93437 2023-03-23 15:00:08 Terrasse 14.50 13.57 60.10
93436 2023-03-23 14:54:42 Bahnzimmer 18.20 17.37 49.40
93435 2023-03-23 14:39:21 Aussentemperatur 16.60 16.80 95.20
93434 2023-03-23 14:31:45 Terrasse 13.60 12.68 63.70
93433 2023-03-23 14:24:41 Bahnzimmer 18.20 17.35 48.90
93432 2023-03-23 14:11:04 Aussentemperatur 15.60 15.70 95.20
93431 2023-03-23 14:03:24 Terrasse 13.10 12.13 63.90
93430 2023-03-23 13:54:41 Bahnzimmer 18.10 17.23 48.60
93429 2023-03-23 13:42:50 Aussentemperatur 15.00 15.02 94.40
93428 2023-03-23 13:35:01 Terrasse 12.70 11.73 65.30
93427 2023-03-23 13:24:40 Bahnzimmer 18.20 17.35 48.90
93426 2023-03-23 13:14:29 Aussentemperatur 12.90 12.78 96.90
93425 2023-03-23 13:06:46 Terrasse 12.50 11.48 64.00
93424 2023-03-23 12:54:39 Bahnzimmer 18.20 17.35 48.70
93423 2023-03-23 12:46:33 Aussentemperatur 15.20 15.24 94.50
93422 2023-03-23 12:38:30 Terrasse 12.90 11.91 63.90
93421 2023-03-23 12:24:39 Bahnzimmer 18.20 17.35 48.90
93420 2023-03-23 12:18:14 Aussentemperatur 14.60 14.57 93.90
93419 2023-03-23 12:10:05 Terrasse 12.10 11.04 64.20
93418 2023-03-23 11:54:38 Bahnzimmer 18.20 17.35 48.80
93417 2023-03-23 11:50:07 Aussentemperatur 13.70 13.57 93.70
93416 2023-03-23 11:41:44 Terrasse 11.80 10.76 66.20
93415 2023-03-23 11:24:37 Bahnzimmer 18.20 17.35 48.80
93414 2023-03-23 11:21:49 Aussentemperatur 12.00 11.74 95.30
93413 2023-03-23 11:13:26 Terrasse 11.50 10.46 67.30
93412 2023-03-23 10:54:37 Bahnzimmer 18.20 17.34 48.40
93411 2023-03-23 10:53:43 Aussentemperatur 12.30 12.05 94.50
93410 2023-03-23 10:45:06 Terrasse 11.50 10.52 69.60
93409 2023-03-23 10:25:27 Aussentemperatur 12.10 11.82 94.00
93408 2023-03-23 10:24:36 Bahnzimmer 18.20 17.34 48.30
93407 2023-03-23 10:16:45 Terrasse 10.90 9.89 70.70
93406 2023-03-23 09:57:11 Aussentemperatur 11.20 10.83 94.10
93405 2023-03-23 09:54:35 Bahnzimmer 18.10 17.23 48.30
93404 2023-03-23 09:48:25 Terrasse 10.60 9.60 72.00
93403 2023-03-23 09:28:58 Aussentemperatur 10.50 10.07 94.20
93402 2023-03-23 09:24:35 Bahnzimmer 18.10 17.22 48.20
93401 2023-03-23 09:20:06 Terrasse 10.30 9.26 71.90
93400 2023-03-23 09:00:45 Aussentemperatur 10.00 9.53 94.70
93399 2023-03-23 08:51:47 Terrasse 10.10 9.04 71.80
93398 2023-03-23 08:32:34 Aussentemperatur 9.90 9.42 94.70
93397 2023-03-23 08:24:29 Bahnzimmer 18.00 17.11 48.00
93396 2023-03-23 08:23:31 Terrasse 10.20 9.12 70.60
93395 2023-03-23 08:04:23 Aussentemperatur 10.00 9.52 94.30
93394 2023-03-23 07:55:12 Terrasse 10.20 9.10 70.00
93393 2023-03-23 07:54:28 Bahnzimmer 18.00 17.10 47.80
93392 2023-03-23 07:36:10 Aussentemperatur 9.70 9.19 94.50
93391 2023-03-23 07:26:53 Terrasse 10.20 9.12 70.50
93390 2023-03-23 07:24:27 Bahnzimmer 17.90 16.99 47.70
93389 2023-03-23 07:07:58 Aussentemperatur 9.50 8.97 94.50
93388 2023-03-23 06:58:36 Terrasse 10.30 9.16 67.80
93387 2023-03-23 06:39:44 Aussentemperatur 9.50 8.97 94.40
93386 2023-03-23 06:30:17 Terrasse 10.30 9.12 66.50
93385 2023-03-23 06:24:21 Bahnzimmer 18.10 17.20 47.20
93384 2023-03-23 06:11:32 Aussentemperatur 9.40 8.86 94.40
93383 2023-03-23 06:01:58 Terrasse 10.30 9.10 65.50
93382 2023-03-23 05:54:20 Bahnzimmer 18.10 17.19 47.00
93381 2023-03-23 05:43:20 Aussentemperatur 9.50 8.97 94.40
93380 2023-03-23 05:33:41 Terrasse 10.20 9.00 65.90
93379 2023-03-23 05:24:20 Bahnzimmer 17.80 16.87 47.30
93378 2023-03-23 05:15:06 Aussentemperatur 9.00 8.43 94.70
93377 2023-03-23 05:05:22 Terrasse 10.10 8.90 66.40
93376 2023-03-23 04:54:19 Bahnzimmer 17.40 16.45 47.90
93375 2023-03-23 04:46:53 Aussentemperatur 8.50 7.90 95.70
93374 2023-03-23 04:37:04 Terrasse 10.10 8.90 66.30
93373 2023-03-23 04:24:18 Bahnzimmer 17.40 16.45 47.90
93372 2023-03-23 04:18:42 Aussentemperatur 8.30 7.71 96.50
93371 2023-03-23 04:08:48 Terrasse 10.40 9.18 64.40
93370 2023-03-23 03:54:18 Bahnzimmer 17.50 16.55 47.70
93369 2023-03-23 03:50:36 Aussentemperatur 9.30 8.78 95.50
93368 2023-03-23 03:40:32 Terrasse 10.70 9.40 60.30
93367 2023-03-23 03:24:17 Bahnzimmer 17.50 16.55 47.70
93366 2023-03-23 03:22:26 Aussentemperatur 10.20 9.77 95.70
93365 2023-03-23 03:12:15 Terrasse 10.70 9.39 59.90
93364 2023-03-23 02:54:16 Bahnzimmer 17.60 16.66 47.60
93363 2023-03-23 02:54:15 Aussentemperatur 10.30 9.89 95.80
93362 2023-03-23 02:43:58 Terrasse 10.80 9.49 59.40
93361 2023-03-23 02:26:04 Aussentemperatur 10.40 10.00 96.10
93360 2023-03-23 02:24:16 Bahnzimmer 17.60 16.66 47.60
93359 2023-03-23 02:15:40 Terrasse 10.90 9.59 59.10
93358 2023-03-23 01:57:53 Aussentemperatur 10.50 10.12 96.20
93357 2023-03-23 01:54:15 Bahnzimmer 17.70 16.77 47.60
93356 2023-03-23 01:47:23 Terrasse 11.00 9.68 58.30
93355 2023-03-23 01:29:42 Aussentemperatur 10.70 10.34 96.20
93354 2023-03-23 01:24:14 Bahnzimmer 17.80 16.88 47.50
93353 2023-03-23 01:19:07 Terrasse 11.10 9.77 57.80
93352 2023-03-23 01:01:30 Aussentemperatur 10.70 10.34 96.40
93351 2023-03-23 00:54:14 Bahnzimmer 17.90 16.99 47.50
93350 2023-03-23 00:50:50 Terrasse 11.10 9.76 57.40
93349 2023-03-23 00:33:17 Aussentemperatur 10.80 10.46 96.60
93348 2023-03-23 00:24:13 Bahnzimmer 18.00 17.09 47.20
93347 2023-03-23 00:22:32 Terrasse 11.30 9.97 56.90
93346 2023-03-23 00:05:07 Aussentemperatur 11.00 10.68 96.60
93345 2023-03-22 23:54:15 Terrasse 11.40 10.07 56.30
93344 2023-03-22 23:54:13 Bahnzimmer 18.10 17.20 47.10
93343 2023-03-22 23:36:55 Aussentemperatur 11.10 10.79 96.70
93342 2023-03-22 23:25:56 Terrasse 11.50 10.16 55.80
93341 2023-03-22 23:24:12 Bahnzimmer 18.20 17.30 46.90
93340 2023-03-22 23:08:42 Aussentemperatur 11.00 10.69 96.90
93339 2023-03-22 22:57:37 Terrasse 11.40 10.04 55.20
93338 2023-03-22 22:54:11 Bahnzimmer 18.20 17.31 47.10
93337 2023-03-22 22:40:31 Aussentemperatur 11.00 10.70 97.30
93336 2023-03-22 22:29:19 Terrasse 11.40 10.05 55.60
93335 2023-03-22 22:24:11 Bahnzimmer 18.20 17.31 47.10
93334 2023-03-22 22:12:20 Aussentemperatur 11.00 10.70 97.60
93333 2023-03-22 22:01:01 Terrasse 11.50 10.17 55.90
93332 2023-03-22 21:54:10 Bahnzimmer 18.20 17.30 46.90
93331 2023-03-22 21:44:09 Aussentemperatur 11.10 10.82 98.00
93330 2023-03-22 21:32:53 Terrasse 11.70 10.38 55.60
93329 2023-03-22 21:24:09 Bahnzimmer 18.20 17.30 47.00
93328 2023-03-22 21:15:57 Aussentemperatur 11.20 10.95 98.50
93327 2023-03-22 21:04:34 Terrasse 11.90 10.58 55.10
93326 2023-03-22 20:54:09 Bahnzimmer 18.20 17.30 47.00
93325 2023-03-22 20:47:47 Aussentemperatur 11.70 11.49 98.40
93324 2023-03-22 20:36:15 Terrasse 11.90 10.54 53.30
93323 2023-03-22 20:24:08 Bahnzimmer 18.20 17.30 46.90
93322 2023-03-22 20:19:36 Aussentemperatur 11.70 11.51 98.90
93321 2023-03-22 20:08:02 Terrasse 11.90 10.56 54.20
93320 2023-03-22 19:54:07 Bahnzimmer 18.20 17.31 47.20
93319 2023-03-22 19:51:24 Aussentemperatur 11.70 11.52 99.50
93318 2023-03-22 19:39:44 Terrasse 12.00 10.70 55.50
93317 2023-03-22 19:24:07 Bahnzimmer 18.00 17.09 47.30
93316 2023-03-22 19:23:12 Aussentemperatur 11.70 11.53 99.90
93315 2023-03-22 19:11:28 Terrasse 12.20 10.94 56.10
93314 2023-03-22 18:55:02 Aussentemperatur 11.90 11.75 99.90
93313 2023-03-22 18:54:06 Bahnzimmer 17.90 16.99 47.60
93312 2023-03-22 18:43:11 Terrasse 12.50 11.25 55.40
93311 2023-03-22 18:27:05 Aussentemperatur 12.30 12.19 99.90
93310 2023-03-22 18:24:05 Bahnzimmer 17.80 16.89 48.00
93309 2023-03-22 18:14:54 Terrasse 12.80 11.56 54.40
93308 2023-03-22 17:58:52 Aussentemperatur 12.90 12.85 99.90
93307 2023-03-22 17:54:05 Bahnzimmer 17.90 17.01 48.50
93306 2023-03-22 17:46:38 Terrasse 13.10 11.88 54.20
93305 2023-03-22 17:30:42 Aussentemperatur 13.40 13.40 99.90
93304 2023-03-22 17:24:04 Bahnzimmer 18.00 17.13 48.80
93303 2023-03-22 17:18:22 Terrasse 13.50 12.29 53.00
93302 2023-03-22 17:02:34 Aussentemperatur 14.30 14.39 99.90
93301 2023-03-22 16:54:03 Bahnzimmer 18.00 17.12 48.50
93300 2023-03-22 16:50:04 Terrasse 13.70 12.51 53.00
93299 2023-03-22 16:34:25 Aussentemperatur 15.00 15.16 99.90
93298 2023-03-22 16:24:03 Bahnzimmer 18.00 17.12 48.60
93297 2023-03-22 16:21:49 Terrasse 14.10 12.96 53.60
93296 2023-03-22 16:06:13 Aussentemperatur 15.50 15.71 99.90
93295 2023-03-22 15:54:02 Bahnzimmer 18.10 17.21 47.70
93294 2023-03-22 15:53:34 Terrasse 14.30 13.18 53.30
93293 2023-03-22 15:38:05 Aussentemperatur 16.40 16.70 99.90
93292 2023-03-22 15:25:20 Terrasse 15.20 14.13 52.00
93291 2023-03-22 15:24:01 Bahnzimmer 18.30 17.41 47.00
93290 2023-03-22 15:10:08 Aussentemperatur 19.30 19.81 96.70
93289 2023-03-22 14:57:11 Terrasse 16.70 15.70 48.90
93288 2023-03-22 14:54:01 Bahnzimmer 18.30 17.43 47.50
93287 2023-03-22 14:42:40 Aussentemperatur 28.10 33.27 85.40
93286 2023-03-22 14:28:51 Terrasse 17.20 16.26 49.30
93285 2023-03-22 14:24:00 Bahnzimmer 18.20 17.32 47.80
93284 2023-03-22 14:14:24 Aussentemperatur 26.90 29.92 84.40
93283 2023-03-22 14:00:36 Terrasse 17.40 16.53 51.00
93282 2023-03-22 13:54:00 Bahnzimmer 18.20 17.31 47.40
93281 2023-03-22 13:46:15 Aussentemperatur 28.30 32.98 80.70
93280 2023-03-22 13:32:20 Terrasse 16.80 15.84 50.10
93279 2023-03-22 13:23:59 Bahnzimmer 18.10 17.24 48.70
93278 2023-03-22 13:18:26 Aussentemperatur 29.60 36.08 78.50
93277 2023-03-22 13:03:53 Terrasse 16.00 15.11 55.70
93276 2023-03-22 12:49:15 Aussentemperatur 21.70 22.27 89.90
93275 2023-03-22 12:35:19 Terrasse 13.60 12.61 61.10
93274 2023-03-22 12:19:56 Aussentemperatur 14.60 14.61 95.40
93273 2023-03-22 12:07:01 Terrasse 12.90 11.91 63.90
93272 2023-03-22 11:53:47 Bahnzimmer 18.10 17.24 49.00
93271 2023-03-22 11:52:09 Aussentemperatur 16.90 17.07 92.70
93270 2023-03-22 11:38:31 Terrasse 11.50 10.48 67.90
93269 2023-03-22 11:23:47 Bahnzimmer 18.10 17.23 48.60
93268 2023-03-22 11:23:26 Aussentemperatur 12.60 12.36 93.70
93267 2023-03-22 11:10:09 Terrasse 10.60 9.54 69.90
93266 2023-03-22 10:55:14 Aussentemperatur 12.20 11.88 92.20
93265 2023-03-22 10:53:46 Bahnzimmer 18.10 17.23 48.60
93264 2023-03-22 10:41:48 Terrasse 10.40 9.39 72.60
93263 2023-03-22 10:26:56 Aussentemperatur 11.50 11.11 92.10
93262 2023-03-22 10:23:45 Bahnzimmer 18.10 17.24 48.90
93261 2023-03-22 10:13:25 Terrasse 9.30 8.26 75.50
93260 2023-03-22 09:58:40 Aussentemperatur 10.30 9.79 92.10
93259 2023-03-22 09:53:45 Bahnzimmer 18.10 17.24 48.70
93258 2023-03-22 09:45:06 Terrasse 9.20 8.16 76.00
93257 2023-03-22 09:30:24 Aussentemperatur 9.80 9.24 92.00
93256 2023-03-22 09:23:44 Bahnzimmer 18.10 17.23 48.50
93255 2023-03-22 09:16:49 Terrasse 9.20 8.16 76.00
93254 2023-03-22 09:02:10 Aussentemperatur 9.90 9.31 90.40
93253 2023-03-22 08:53:43 Bahnzimmer 18.10 17.23 48.40
93252 2023-03-22 08:48:21 Terrasse 7.80 6.73 80.40
93251 2023-03-22 08:33:47 Aussentemperatur 7.80 7.00 90.50
93250 2023-03-22 08:23:36 Bahnzimmer 18.40 17.55 48.10
93249 2023-03-22 08:19:58 Terrasse 6.70 5.54 80.90
93248 2023-03-22 08:05:29 Aussentemperatur 6.70 5.79 90.40
93247 2023-03-22 07:53:36 Bahnzimmer 18.60 17.75 47.30
93246 2023-03-22 07:51:36 Terrasse 6.10 4.86 80.20
93245 2023-03-22 07:37:13 Aussentemperatur 5.50 4.48 90.80
93244 2023-03-22 07:23:35 Bahnzimmer 18.70 17.86 47.10
93243 2023-03-22 07:23:16 Terrasse 5.70 4.39 78.90
93242 2023-03-22 07:08:57 Aussentemperatur 4.20 3.06 91.40
93241 2023-03-22 06:54:57 Terrasse 5.30 3.92 77.80
93240 2023-03-22 06:53:34 Bahnzimmer 18.80 17.96 46.90
93239 2023-03-22 06:40:44 Aussentemperatur 3.60 2.43 92.30
93238 2023-03-22 06:26:39 Terrasse 5.30 3.91 77.70
93237 2023-03-22 06:23:34 Bahnzimmer 18.80 17.96 47.00
93236 2023-03-22 06:12:33 Aussentemperatur 3.60 2.43 92.40
93235 2023-03-22 05:58:22 Terrasse 5.50 4.13 77.60
93234 2023-03-22 05:53:33 Bahnzimmer 19.00 18.17 46.70
93233 2023-03-22 05:44:23 Aussentemperatur 3.80 2.65 92.50
93232 2023-03-22 05:30:05 Terrasse 5.60 4.25 78.10
93231 2023-03-22 05:23:33 Bahnzimmer 18.50 17.64 47.10
93230 2023-03-22 05:16:13 Aussentemperatur 3.90 2.77 92.90
93229 2023-03-22 05:01:48 Terrasse 5.80 4.48 78.40
93228 2023-03-22 04:53:32 Bahnzimmer 17.80 16.89 48.10
93227 2023-03-22 04:48:02 Aussentemperatur 4.40 3.32 92.90
93226 2023-03-22 04:33:31 Terrasse 6.20 4.91 77.80
93225 2023-03-22 04:23:31 Bahnzimmer 17.80 16.89 48.00
93224 2023-03-22 04:19:53 Aussentemperatur 5.00 3.97 92.60
93223 2023-03-22 04:05:15 Terrasse 6.40 5.16 78.90
93222 2023-03-22 03:53:31 Bahnzimmer 17.90 17.00 48.10
93221 2023-03-22 03:51:41 Aussentemperatur 5.30 4.31 92.80
93220 2023-03-22 03:36:59 Terrasse 6.70 5.49 78.90
93219 2023-03-22 03:23:30 Aussentemperatur 5.80 4.85 92.60
93218 2023-03-22 03:23:30 Bahnzimmer 17.90 17.00 48.20
93217 2023-03-22 03:08:41 Terrasse 6.80 5.59 78.70
93216 2023-03-22 02:55:18 Aussentemperatur 6.20 5.28 92.00
93215 2023-03-22 02:53:29 Bahnzimmer 17.90 17.00 48.20
93214 2023-03-22 02:40:24 Terrasse 6.90 5.71 79.10
93213 2023-03-22 02:27:06 Aussentemperatur 5.90 4.96 92.40
93212 2023-03-22 02:23:29 Bahnzimmer 18.00 17.12 48.30
93211 2023-03-22 02:12:07 Terrasse 6.90 5.71 79.10
93210 2023-03-22 01:58:53 Aussentemperatur 6.00 5.07 92.30
93209 2023-03-22 01:53:28 Bahnzimmer 18.00 17.11 48.20
93208 2023-03-22 01:43:50 Terrasse 6.90 5.72 79.40
93207 2023-03-22 01:30:49 Aussentemperatur 6.00 5.07 92.30
93206 2023-03-22 01:23:27 Bahnzimmer 18.00 17.11 48.20
93205 2023-03-22 01:02:33 Aussentemperatur 5.60 4.64 92.70
93204 2023-03-22 00:53:27 Bahnzimmer 18.20 17.34 48.30
93203 2023-03-22 00:44:55 Terrasse 6.90 5.69 78.40
93202 2023-03-22 00:34:21 Aussentemperatur 5.70 4.75 92.90
93201 2023-03-22 00:23:26 Bahnzimmer 18.40 17.55 48.00
93200 2023-03-22 00:16:37 Terrasse 7.00 5.80 78.40
93199 2023-03-22 00:06:11 Aussentemperatur 5.60 4.65 93.30
93198 2023-03-21 23:53:25 Bahnzimmer 18.50 17.66 48.00
93197 2023-03-21 23:48:21 Terrasse 7.20 6.03 78.80
93196 2023-03-21 23:38:01 Aussentemperatur 6.10 5.19 92.90
93195 2023-03-21 23:23:25 Bahnzimmer 18.60 17.76 47.80
93194 2023-03-21 23:20:04 Terrasse 7.50 6.37 79.10
93193 2023-03-21 23:09:48 Aussentemperatur 6.50 5.63 92.80
93192 2023-03-21 22:53:24 Bahnzimmer 18.80 17.98 47.70
93191 2023-03-21 22:51:46 Terrasse 7.50 6.37 78.90
93190 2023-03-21 22:41:35 Aussentemperatur 6.40 5.53 93.10
93189 2023-03-21 22:23:27 Terrasse 7.50 6.36 78.60
93188 2023-03-21 22:23:23 Bahnzimmer 18.70 17.87 47.80
93187 2023-03-21 22:13:25 Aussentemperatur 6.40 5.53 93.10
93186 2023-03-21 21:55:10 Terrasse 7.70 6.58 78.50
93185 2023-03-21 21:53:23 Bahnzimmer 18.80 17.98 47.80
93184 2023-03-21 21:45:13 Aussentemperatur 6.60 5.75 93.10
93183 2023-03-21 21:26:53 Terrasse 7.80 6.66 77.60
93182 2023-03-21 21:23:22 Bahnzimmer 18.70 17.88 48.00
93181 2023-03-21 21:17:01 Aussentemperatur 6.60 5.75 93.40
93180 2023-03-21 20:58:36 Terrasse 7.80 6.69 78.50
93179 2023-03-21 20:53:21 Bahnzimmer 18.90 18.10 47.90
93178 2023-03-21 20:48:49 Aussentemperatur 6.80 5.97 93.20
93177 2023-03-21 20:30:18 Terrasse 7.80 6.66 77.40
93176 2023-03-21 20:23:21 Bahnzimmer 19.00 18.22 48.40
93175 2023-03-21 20:20:37 Aussentemperatur 6.80 5.97 93.40
93174 2023-03-21 20:02:00 Terrasse 7.90 6.76 77.10
93173 2023-03-21 19:53:20 Bahnzimmer 18.80 17.98 47.70
93172 2023-03-21 19:52:26 Aussentemperatur 7.00 6.20 93.60
93171 2023-03-21 19:33:44 Terrasse 8.00 6.86 76.70
93170 2023-03-21 19:24:15 Aussentemperatur 6.80 6.00 94.30
93169 2023-03-21 19:23:20 Bahnzimmer 18.80 17.98 47.50
93168 2023-03-21 19:05:27 Terrasse 8.20 7.07 76.20
93167 2023-03-21 18:56:07 Aussentemperatur 7.20 6.44 94.40
93166 2023-03-21 18:53:19 Bahnzimmer 18.90 18.09 47.60
93165 2023-03-21 18:37:12 Terrasse 8.50 7.38 75.60
93164 2023-03-21 18:27:56 Aussentemperatur 8.10 7.42 94.00
93163 2023-03-21 18:23:18 Bahnzimmer 18.80 17.98 47.80
93162 2023-03-21 18:08:57 Terrasse 8.80 7.71 75.70
93161 2023-03-21 17:59:46 Aussentemperatur 8.40 7.76 94.20
93160 2023-03-21 17:53:18 Bahnzimmer 18.80 17.99 47.90
93159 2023-03-21 17:40:41 Terrasse 9.00 7.91 75.00
93158 2023-03-21 17:31:36 Aussentemperatur 8.90 8.30 94.00
93157 2023-03-21 17:23:17 Bahnzimmer 18.80 17.99 48.20
93156 2023-03-21 17:12:25 Terrasse 9.20 8.13 74.80
93155 2023-03-21 17:03:24 Aussentemperatur 9.20 8.62 93.70
93154 2023-03-21 16:53:16 Bahnzimmer 19.00 18.22 48.40
93153 2023-03-21 16:44:11 Terrasse 9.10 7.98 73.40
93152 2023-03-21 16:35:12 Aussentemperatur 9.20 8.62 93.70
93151 2023-03-21 16:23:16 Bahnzimmer 19.10 18.32 48.00
93150 2023-03-21 16:15:53 Terrasse 9.20 8.13 75.00
93149 2023-03-21 16:07:00 Aussentemperatur 9.20 8.61 93.30
93148 2023-03-21 15:53:15 Bahnzimmer 19.00 18.21 48.10
93147 2023-03-21 15:47:35 Terrasse 9.00 7.93 75.50
93146 2023-03-21 15:38:46 Aussentemperatur 8.60 7.97 94.00
93145 2023-03-21 15:23:14 Bahnzimmer 19.00 18.20 47.70
93144 2023-03-21 15:19:17 Terrasse 9.00 7.87 73.50
93143 2023-03-21 15:10:34 Aussentemperatur 8.60 7.98 94.30
93142 2023-03-21 14:53:14 Bahnzimmer 19.00 18.21 48.20
93141 2023-03-21 14:51:00 Terrasse 9.20 8.05 71.60
93140 2023-03-21 14:42:22 Aussentemperatur 8.60 8.00 95.00
93139 2023-03-21 14:23:13 Bahnzimmer 18.90 18.10 47.90
93138 2023-03-21 14:22:43 Terrasse 9.40 8.25 71.10
93137 2023-03-21 14:14:13 Aussentemperatur 9.20 8.65 94.70
93136 2023-03-21 13:54:31 Terrasse 9.50 8.34 70.30
93135 2023-03-21 13:53:12 Bahnzimmer 18.80 17.98 47.50
93134 2023-03-21 13:46:07 Aussentemperatur 9.90 9.40 94.10
93133 2023-03-21 13:26:13 Terrasse 9.50 8.34 70.10
93132 2023-03-21 13:23:12 Bahnzimmer 19.00 18.20 47.50
93131 2023-03-21 13:17:53 Aussentemperatur 9.70 9.18 94.10
93130 2023-03-21 12:57:53 Terrasse 9.50 8.36 71.10
93129 2023-03-21 12:53:11 Bahnzimmer 18.90 18.08 47.10
93128 2023-03-21 12:49:38 Aussentemperatur 9.50 8.95 93.80
93127 2023-03-21 12:29:36 Terrasse 9.40 8.25 70.90
93126 2023-03-21 12:23:10 Bahnzimmer 17.90 16.98 47.10
93125 2023-03-21 12:21:23 Aussentemperatur 8.60 8.00 95.20
93124 2023-03-21 12:01:20 Terrasse 9.60 8.38 67.60
93123 2023-03-21 11:53:13 Aussentemperatur 9.20 8.67 95.50
93122 2023-03-21 11:53:10 Bahnzimmer 19.40 18.62 46.80
93121 2023-03-21 11:33:06 Terrasse 10.00 8.71 63.20
93120 2023-03-21 11:25:12 Aussentemperatur 10.80 10.40 94.30
93119 2023-03-21 11:23:09 Bahnzimmer 19.30 18.52 47.20
93118 2023-03-21 11:04:48 Terrasse 10.10 8.77 61.60
93117 2023-03-21 10:57:01 Aussentemperatur 11.50 11.14 93.40
93116 2023-03-21 10:53:08 Bahnzimmer 18.90 18.07 47.00
93115 2023-03-21 10:36:30 Terrasse 9.60 8.21 61.20
93114 2023-03-21 10:28:46 Aussentemperatur 11.00 10.59 93.40
93113 2023-03-21 10:23:08 Bahnzimmer 19.10 18.29 47.00
93112 2023-03-21 10:08:11 Terrasse 9.20 7.80 62.10
93111 2023-03-21 10:00:29 Aussentemperatur 10.30 9.82 93.40
93110 2023-03-21 09:53:07 Bahnzimmer 19.10 18.30 47.20
93109 2023-03-21 09:39:52 Terrasse 8.90 7.51 63.70
93108 2023-03-21 09:32:15 Aussentemperatur 9.80 9.27 93.30
93107 2023-03-21 09:23:06 Bahnzimmer 19.00 18.18 46.80
93106 2023-03-21 09:11:35 Terrasse 8.80 7.40 63.90
93105 2023-03-21 09:04:04 Aussentemperatur 9.60 9.04 92.90
93104 2023-03-21 08:53:06 Bahnzimmer 18.80 17.96 47.00
93103 2023-03-21 08:43:15 Terrasse 8.50 7.09 64.60
93102 2023-03-21 08:35:48 Aussentemperatur 9.40 8.80 92.00
93101 2023-03-21 08:23:05 Bahnzimmer 19.10 18.28 46.50
93100 2023-03-21 08:14:54 Terrasse 7.90 6.46 65.80
93099 2023-03-21 08:07:32 Aussentemperatur 8.30 7.59 92.00
93098 2023-03-21 07:53:04 Bahnzimmer 19.00 18.17 46.40
93097 2023-03-21 07:46:33 Terrasse 7.40 5.96 67.50
93096 2023-03-21 07:39:15 Aussentemperatur 7.20 6.38 92.20
93095 2023-03-21 07:23:02 Bahnzimmer 19.00 18.14 45.30
93094 2023-03-21 07:18:14 Terrasse 6.90 5.43 68.50
93093 2023-03-21 07:10:59 Aussentemperatur 6.30 5.40 92.40
93092 2023-03-21 06:53:01 Bahnzimmer 19.10 18.24 44.80
93091 2023-03-21 06:49:56 Terrasse 6.50 5.03 69.80
93090 2023-03-21 06:42:46 Aussentemperatur 5.80 4.85 92.60
93089 2023-03-21 06:22:58 Bahnzimmer 18.80 17.91 45.10
93088 2023-03-21 06:21:38 Terrasse 6.50 5.04 70.30
93087 2023-03-21 06:14:34 Aussentemperatur 5.60 4.64 93.00
93086 2023-03-21 05:53:20 Terrasse 6.40 4.93 70.10
93085 2023-03-21 05:52:58 Bahnzimmer 18.60 17.69 45.00
93084 2023-03-21 05:46:21 Aussentemperatur 5.80 4.85 92.60
93083 2023-03-21 05:25:03 Terrasse 6.60 5.13 69.30
93082 2023-03-21 05:22:57 Bahnzimmer 18.30 17.37 45.20
93081 2023-03-21 05:18:08 Aussentemperatur 5.70 4.74 92.60
93080 2023-03-21 04:56:45 Terrasse 6.30 4.80 69.40
93079 2023-03-21 04:52:56 Bahnzimmer 17.60 16.62 46.00
93078 2023-03-21 04:50:04 Aussentemperatur 5.50 4.53 92.70
93077 2023-03-21 04:28:25 Terrasse 6.10 4.58 69.40
93076 2023-03-21 04:22:56 Bahnzimmer 17.60 16.62 46.00
93075 2023-03-21 04:21:47 Aussentemperatur 5.00 3.99 93.40
93074 2023-03-21 04:00:10 Terrasse 6.30 4.75 67.60
93073 2023-03-21 03:53:37 Aussentemperatur 4.70 3.67 93.70
93072 2023-03-21 03:52:55 Bahnzimmer 17.60 16.62 46.10
93071 2023-03-21 03:31:53 Terrasse 6.70 5.19 67.70
93070 2023-03-21 03:25:26 Aussentemperatur 5.10 4.12 94.00
93069 2023-03-21 03:22:54 Bahnzimmer 17.70 16.73 46.00
93068 2023-03-21 03:03:38 Terrasse 6.90 5.39 66.80
93067 2023-03-21 02:57:18 Aussentemperatur 5.70 4.77 93.70
93066 2023-03-21 02:52:54 Bahnzimmer 17.60 16.62 46.10
93065 2023-03-21 02:35:21 Terrasse 7.20 5.68 65.20
93064 2023-03-21 02:29:06 Aussentemperatur 6.10 5.21 93.70
93063 2023-03-21 02:22:53 Bahnzimmer 17.80 16.84 46.10
93062 2023-03-21 02:07:03 Terrasse 7.30 5.81 66.10
93061 2023-03-21 02:00:56 Aussentemperatur 6.30 5.43 93.70
93060 2023-03-21 01:52:52 Bahnzimmer 17.90 16.94 45.90
93059 2023-03-21 01:38:45 Terrasse 7.50 5.99 64.60
93058 2023-03-21 01:32:45 Aussentemperatur 6.70 5.86 93.40
93057 2023-03-21 01:22:52 Bahnzimmer 18.00 17.05 45.80
93056 2023-03-21 01:10:27 Terrasse 7.40 5.85 63.30
93055 2023-03-21 01:04:34 Aussentemperatur 6.60 5.77 93.90
93054 2023-03-21 00:52:51 Bahnzimmer 18.10 17.16 45.60
93053 2023-03-21 00:42:11 Terrasse 7.50 5.96 63.50
93052 2023-03-21 00:36:22 Aussentemperatur 6.70 5.88 94.10
93051 2023-03-21 00:22:50 Bahnzimmer 18.30 17.37 45.50
93050 2023-03-21 00:13:54 Terrasse 7.60 6.04 62.30
93049 2023-03-21 00:08:12 Aussentemperatur 6.90 6.10 94.10
93048 2023-03-20 23:52:50 Bahnzimmer 18.40 17.48 45.20
93047 2023-03-20 23:45:38 Terrasse 7.80 6.25 61.90
93046 2023-03-20 23:40:01 Aussentemperatur 7.00 6.22 94.20
93045 2023-03-20 23:22:49 Bahnzimmer 18.70 17.80 44.80
93044 2023-03-20 23:17:20 Terrasse 7.80 6.24 61.40
93043 2023-03-20 23:11:48 Aussentemperatur 7.00 6.22 94.30
93042 2023-03-20 22:52:48 Bahnzimmer 18.70 17.79 44.70
93041 2023-03-20 22:49:03 Terrasse 8.00 6.44 60.50
93040 2023-03-20 22:43:36 Aussentemperatur 7.20 6.44 94.30
93039 2023-03-20 22:22:48 Bahnzimmer 18.70 17.79 44.70
93038 2023-03-20 22:20:47 Terrasse 8.00 6.39 58.70
93037 2023-03-20 22:15:24 Aussentemperatur 7.20 6.44 94.40
93036 2023-03-20 21:52:47 Bahnzimmer 18.70 17.79 44.70
93035 2023-03-20 21:52:31 Terrasse 8.20 6.61 58.60
93034 2023-03-20 21:47:12 Aussentemperatur 7.40 6.66 94.50
93033 2023-03-20 21:24:13 Terrasse 8.20 6.59 58.00
93032 2023-03-20 21:22:46 Bahnzimmer 18.80 17.89 44.40
93031 2023-03-20 21:19:02 Aussentemperatur 7.50 6.78 94.80
93030 2023-03-20 20:55:57 Terrasse 8.30 6.68 57.30
93029 2023-03-20 20:52:46 Bahnzimmer 18.80 17.90 44.50
93028 2023-03-20 20:50:51 Aussentemperatur 7.50 6.79 95.00
93027 2023-03-20 20:27:40 Terrasse 8.50 6.90 57.20
93026 2023-03-20 20:22:45 Bahnzimmer 18.70 17.78 44.40
93025 2023-03-20 20:22:40 Aussentemperatur 7.50 6.80 95.40
93024 2023-03-20 19:59:24 Terrasse 8.60 7.04 58.20
93023 2023-03-20 19:54:30 Aussentemperatur 7.50 6.81 96.10
93022 2023-03-20 19:52:45 Bahnzimmer 18.70 17.78 44.30
93021 2023-03-20 19:31:08 Terrasse 8.90 7.33 56.80
93020 2023-03-20 19:26:20 Aussentemperatur 8.10 7.47 95.90
93019 2023-03-20 19:22:44 Bahnzimmer 18.70 17.78 44.20
93018 2023-03-20 19:02:53 Terrasse 9.20 7.58 53.70
93017 2023-03-20 18:58:10 Aussentemperatur 8.50 7.93 96.80
93016 2023-03-20 18:52:43 Bahnzimmer 18.20 17.22 43.70
93015 2023-03-20 18:34:38 Terrasse 9.50 7.86 52.00
93014 2023-03-20 18:29:59 Aussentemperatur 8.90 8.39 97.30
93013 2023-03-20 18:22:42 Bahnzimmer 18.10 17.10 43.40
93012 2023-03-20 18:06:23 Terrasse 10.10 8.47 50.00
93011 2023-03-20 18:01:52 Aussentemperatur 9.90 9.49 97.50
93010 2023-03-20 17:52:41 Bahnzimmer 18.00 16.99 43.60
93009 2023-03-20 17:38:12 Terrasse 11.00 9.37 46.70
93008 2023-03-20 17:33:45 Aussentemperatur 11.10 10.81 97.50
93007 2023-03-20 17:22:41 Bahnzimmer 18.10 17.05 41.40
93006 2023-03-20 17:09:58 Terrasse 11.80 10.21 45.00
93005 2023-03-20 17:05:40 Aussentemperatur 12.60 12.43 96.30
93004 2023-03-20 16:52:40 Bahnzimmer 17.90 16.89 43.80
93003 2023-03-20 16:41:40 Terrasse 11.70 10.12 45.80
93002 2023-03-20 16:37:27 Aussentemperatur 12.80 12.66 96.60
93001 2023-03-20 16:22:39 Bahnzimmer 18.30 17.41 47.00
93000 2023-03-20 16:13:25 Terrasse 12.10 10.61 47.80
92999 2023-03-20 16:09:18 Aussentemperatur 12.90 12.78 96.90
92998 2023-03-20 15:52:39 Bahnzimmer 18.40 17.51 46.70
92997 2023-03-20 15:45:09 Terrasse 12.50 11.10 49.70
92996 2023-03-20 15:41:09 Aussentemperatur 13.50 13.45 97.50
92995 2023-03-20 15:22:38 Bahnzimmer 18.40 17.51 46.70
92994 2023-03-20 15:16:54 Terrasse 13.10 11.71 47.70
92993 2023-03-20 15:13:03 Aussentemperatur 14.70 14.74 96.20
92992 2023-03-20 14:52:35 Bahnzimmer 18.20 17.31 47.30
92991 2023-03-20 14:48:34 Terrasse 12.90 11.50 48.00
92990 2023-03-20 14:44:45 Aussentemperatur 13.90 13.89 97.30
92989 2023-03-20 14:22:35 Bahnzimmer 18.20 17.33 48.20
92988 2023-03-20 14:20:18 Terrasse 12.90 11.49 47.60
92987 2023-03-20 14:16:33 Aussentemperatur 14.00 14.02 98.10
92986 2023-03-20 13:52:34 Bahnzimmer 18.20 17.34 48.50
92985 2023-03-20 13:52:04 Terrasse 13.70 12.48 51.90
92984 2023-03-20 13:48:24 Aussentemperatur 15.50 15.67 98.20
92983 2023-03-20 13:23:52 Terrasse 14.60 13.50 53.00
92982 2023-03-20 13:22:33 Bahnzimmer 18.30 17.44 48.20
92981 2023-03-20 13:20:31 Aussentemperatur 17.60 17.92 95.80
92980 2023-03-20 12:55:26 Terrasse 13.90 12.79 55.50
92979 2023-03-20 12:52:33 Bahnzimmer 18.00 17.14 49.30
92978 2023-03-20 12:51:51 Aussentemperatur 15.60 15.70 95.30
92977 2023-03-20 12:27:03 Terrasse 12.10 10.92 59.50
92976 2023-03-20 12:23:28 Aussentemperatur 13.50 13.38 94.70
92975 2023-03-20 12:22:32 Bahnzimmer 18.00 17.14 49.10
92974 2023-03-20 11:58:45 Terrasse 12.00 10.81 59.60
92973 2023-03-20 11:55:10 Aussentemperatur 12.80 12.63 95.40
92972 2023-03-20 11:52:31 Bahnzimmer 18.10 17.24 48.70
92971 2023-03-20 11:30:25 Terrasse 11.90 10.75 61.50
92970 2023-03-20 11:26:49 Aussentemperatur 12.10 11.87 96.10
92969 2023-03-20 11:22:31 Bahnzimmer 18.30 17.45 48.30
92968 2023-03-20 11:02:19 Terrasse 13.30 12.28 61.10
92967 2023-03-20 10:58:50 Aussentemperatur 14.10 14.01 93.70
92966 2023-03-20 10:52:30 Bahnzimmer 18.30 17.44 47.90
92965 2023-03-20 10:33:48 Terrasse 12.20 11.15 64.30
92964 2023-03-20 10:30:28 Aussentemperatur 12.50 12.25 93.70
92963 2023-03-20 10:22:29 Bahnzimmer 18.20 17.34 48.30
92962 2023-03-20 10:05:29 Terrasse 12.50 11.49 64.50
92961 2023-03-20 10:02:08 Aussentemperatur 11.40 11.04 93.70
92960 2023-03-20 09:52:29 Bahnzimmer 18.40 17.55 48.20
92959 2023-03-20 09:37:01 Terrasse 9.60 8.42 69.00
92958 2023-03-20 09:33:47 Aussentemperatur 9.60 9.06 93.50
92957 2023-03-20 09:22:28 Bahnzimmer 18.70 17.87 47.80
92956 2023-03-20 09:08:42 Terrasse 9.40 8.22 70.00
92955 2023-03-20 09:05:35 Aussentemperatur 9.30 8.72 93.40
92954 2023-03-20 08:52:27 Bahnzimmer 18.90 18.08 47.10
92953 2023-03-20 08:40:24 Terrasse 9.20 8.00 69.70
92952 2023-03-20 08:37:22 Aussentemperatur 8.80 8.16 92.90
92951 2023-03-20 08:22:27 Bahnzimmer 19.30 18.49 46.20
92950 2023-03-20 08:12:06 Terrasse 9.00 7.79 70.20
92949 2023-03-20 08:09:14 Aussentemperatur 8.50 7.83 92.70
92948 2023-03-20 07:52:26 Bahnzimmer 19.20 18.38 46.20
92947 2023-03-20 07:43:46 Terrasse 8.50 7.26 71.20
92946 2023-03-20 07:40:57 Aussentemperatur 7.50 6.74 93.10
92945 2023-03-20 07:22:25 Bahnzimmer 19.10 18.27 46.30
92944 2023-03-20 07:15:29 Terrasse 8.60 7.40 72.10
92943 2023-03-20 07:12:45 Aussentemperatur 7.20 6.41 93.20
92942 2023-03-20 06:52:25 Bahnzimmer 18.90 18.06 46.70
92941 2023-03-20 06:47:11 Terrasse 8.50 7.31 72.90
92940 2023-03-20 06:44:32 Aussentemperatur 7.20 6.42 93.50
92939 2023-03-20 06:18:54 Terrasse 8.30 7.12 74.00
92938 2023-03-20 06:16:21 Aussentemperatur 6.90 6.10 93.90
92937 2023-03-20 05:52:16 Bahnzimmer 18.30 17.42 47.30
92936 2023-03-20 05:50:41 Terrasse 8.60 7.46 74.30
92935 2023-03-20 05:48:11 Aussentemperatur 7.40 6.64 93.60
92934 2023-03-20 05:22:23 Terrasse 8.90 7.80 74.80
92933 2023-03-20 05:22:16 Bahnzimmer 18.10 17.20 47.30
92932 2023-03-20 05:20:01 Aussentemperatur 7.50 6.75 93.60
92931 2023-03-20 04:54:07 Terrasse 9.30 8.21 73.60
92930 2023-03-20 04:52:15 Bahnzimmer 17.60 16.67 48.20
92929 2023-03-20 04:51:50 Aussentemperatur 8.00 7.29 93.40
92928 2023-03-20 04:25:48 Terrasse 9.40 8.31 73.50
92927 2023-03-20 04:23:37 Aussentemperatur 8.00 7.29 93.40
92926 2023-03-20 04:22:14 Bahnzimmer 17.60 16.67 48.20
92925 2023-03-20 03:57:30 Terrasse 9.20 8.10 73.80
92924 2023-03-20 03:55:25 Aussentemperatur 8.00 7.29 93.30
92923 2023-03-20 03:52:14 Bahnzimmer 17.60 16.67 48.20
92922 2023-03-20 03:29:12 Terrasse 9.20 8.10 73.60
92921 2023-03-20 03:27:13 Aussentemperatur 7.80 7.07 93.20
92920 2023-03-20 03:22:13 Bahnzimmer 17.80 16.89 48.10
92919 2023-03-20 03:00:53 Terrasse 9.20 8.09 73.40
92918 2023-03-20 02:59:02 Aussentemperatur 7.70 6.96 93.20
92917 2023-03-20 02:52:12 Bahnzimmer 17.80 16.89 48.00
92916 2023-03-20 02:32:35 Terrasse 9.10 7.97 73.10
92915 2023-03-20 02:30:49 Aussentemperatur 7.40 6.64 93.50
92914 2023-03-20 02:22:12 Bahnzimmer 18.00 17.11 47.90
92913 2023-03-20 02:04:19 Terrasse 9.00 7.86 72.80
92912 2023-03-20 02:02:37 Aussentemperatur 7.20 6.42 93.70
92911 2023-03-20 01:52:11 Bahnzimmer 18.00 17.11 48.00
92910 2023-03-20 01:36:02 Terrasse 9.00 7.85 72.40
92909 2023-03-20 01:34:26 Aussentemperatur 7.30 6.53 93.60
92908 2023-03-20 01:22:10 Bahnzimmer 18.20 17.32 47.80
92907 2023-03-20 01:07:46 Terrasse 9.20 8.06 72.20
92906 2023-03-20 01:06:15 Aussentemperatur 7.20 6.43 93.90
92905 2023-03-20 00:52:10 Bahnzimmer 18.30 17.43 47.70
92904 2023-03-20 00:39:29 Terrasse 9.20 8.05 71.70
92903 2023-03-20 00:38:02 Aussentemperatur 7.20 6.43 94.00
92902 2023-03-20 00:22:09 Bahnzimmer 18.50 17.65 47.50
92901 2023-03-20 00:11:12 Terrasse 9.40 8.25 71.20
92900 2023-03-20 00:09:51 Aussentemperatur 7.40 6.65 94.00
92899 2023-03-19 23:52:08 Bahnzimmer 18.70 17.86 47.30
92898 2023-03-19 23:42:54 Terrasse 9.50 8.36 70.90
92897 2023-03-19 23:41:39 Aussentemperatur 7.70 6.98 93.90
92896 2023-03-19 23:22:08 Bahnzimmer 18.70 17.87 47.50
92895 2023-03-19 23:14:36 Terrasse 9.50 8.36 71.10
92894 2023-03-19 23:13:27 Aussentemperatur 7.50 6.76 94.10
92893 2023-03-19 22:52:03 Bahnzimmer 18.70 17.86 47.20
92892 2023-03-19 22:46:18 Terrasse 9.50 8.35 70.50
92891 2023-03-19 22:45:13 Aussentemperatur 7.20 6.44 94.30
92890 2023-03-19 22:22:02 Bahnzimmer 18.70 17.86 47.40
92889 2023-03-19 22:18:02 Terrasse 9.50 8.33 69.90
92888 2023-03-19 22:17:01 Aussentemperatur 7.20 6.44 94.50
92887 2023-03-19 21:52:01 Bahnzimmer 18.60 17.76 47.50
92886 2023-03-19 21:49:45 Terrasse 9.60 8.41 68.80
92885 2023-03-19 21:48:50 Aussentemperatur 7.00 6.24 95.10
92884 2023-03-19 21:22:01 Bahnzimmer 18.50 17.65 47.70
92883 2023-03-19 21:21:29 Terrasse 9.80 8.61 68.00
92882 2023-03-19 21:20:40 Aussentemperatur 7.40 6.68 95.20
92881 2023-03-19 20:53:11 Terrasse 9.80 8.61 67.90
92880 2023-03-19 20:52:28 Aussentemperatur 7.80 7.12 95.30
92879 2023-03-19 20:52:00 Bahnzimmer 18.70 17.87 47.70
92878 2023-03-19 20:24:55 Terrasse 10.00 8.80 66.70
92877 2023-03-19 20:24:17 Aussentemperatur 7.60 6.93 96.20
92876 2023-03-19 20:21:59 Bahnzimmer 18.90 18.10 48.10
92875 2023-03-19 19:56:38 Terrasse 10.50 9.33 65.90
92874 2023-03-19 19:56:08 Aussentemperatur 8.20 7.60 96.70
92873 2023-03-19 19:51:59 Bahnzimmer 18.70 17.88 47.90
92872 2023-03-19 19:28:24 Terrasse 11.20 10.08 65.10
92871 2023-03-19 19:28:01 Aussentemperatur 9.20 8.70 96.60
92870 2023-03-19 19:21:58 Bahnzimmer 18.40 17.53 47.30
92869 2023-03-19 19:00:09 Terrasse 11.70 10.59 63.80
92868 2023-03-19 18:59:52 Aussentemperatur 10.30 9.92 97.20
92867 2023-03-19 18:51:57 Bahnzimmer 18.40 17.54 47.70
92866 2023-03-19 18:31:52 Terrasse 11.90 10.79 62.90
92865 2023-03-19 18:31:43 Aussentemperatur 10.80 10.51 98.50
92864 2023-03-19 18:21:57 Bahnzimmer 18.50 17.65 47.60
92863 2023-03-19 18:03:48 Terrasse 12.50 11.40 61.10
92862 2023-03-19 18:03:38 Aussentemperatur 12.20 12.05 98.70
92861 2023-03-19 17:51:56 Bahnzimmer 18.50 17.65 47.70
92860 2023-03-19 17:35:34 Aussentemperatur 16.00 16.10 93.80
92859 2023-03-19 17:35:30 Terrasse 13.00 11.91 59.70
92858 2023-03-19 17:21:53 Bahnzimmer 18.50 17.67 48.30
92857 2023-03-19 17:07:29 Aussentemperatur 14.60 14.66 97.60
92856 2023-03-19 17:07:19 Terrasse 14.10 13.06 57.20
92855 2023-03-19 16:51:51 Bahnzimmer 18.60 17.78 48.40
92854 2023-03-19 16:39:30 Aussentemperatur 16.40 16.59 95.70
92853 2023-03-19 16:39:11 Terrasse 16.80 15.88 51.50
92852 2023-03-19 16:21:51 Bahnzimmer 18.70 17.89 48.50
92851 2023-03-19 16:11:14 Aussentemperatur 16.40 16.56 94.40
92850 2023-03-19 16:10:43 Terrasse 15.00 14.02 56.10
92849 2023-03-19 15:51:50 Bahnzimmer 18.80 18.01 48.80
92848 2023-03-19 15:42:49 Aussentemperatur 13.90 13.85 95.90
92847 2023-03-19 15:42:20 Terrasse 13.30 12.27 60.80
92846 2023-03-19 15:21:49 Bahnzimmer 18.90 18.13 49.10
92845 2023-03-19 15:14:35 Aussentemperatur 13.30 13.20 96.40
92844 2023-03-19 15:14:01 Terrasse 13.10 12.08 62.00
92843 2023-03-19 14:51:49 Bahnzimmer 18.80 18.01 48.90
92842 2023-03-19 14:46:15 Aussentemperatur 12.50 12.33 96.80
92841 2023-03-19 14:45:39 Terrasse 12.50 11.48 64.10
92840 2023-03-19 14:21:47 Bahnzimmer 18.70 17.90 48.90
92839 2023-03-19 14:18:06 Aussentemperatur 12.10 11.91 97.50
92838 2023-03-19 14:17:27 Terrasse 12.90 11.87 62.20
92837 2023-03-19 13:51:46 Bahnzimmer 18.80 17.95 46.70
92836 2023-03-19 13:50:09 Aussentemperatur 14.90 14.93 95.30
92835 2023-03-19 13:49:13 Terrasse 13.80 12.81 60.40
92834 2023-03-19 13:22:15 Aussentemperatur 16.00 16.12 94.30
92833 2023-03-19 13:21:46 Bahnzimmer 18.80 17.97 47.20
92832 2023-03-19 13:21:01 Terrasse 14.40 13.49 60.90
92831 2023-03-19 12:53:43 Aussentemperatur 13.30 13.18 95.70
92830 2023-03-19 12:52:40 Terrasse 13.60 12.66 62.90
92829 2023-03-19 12:51:45 Bahnzimmer 18.80 17.96 47.00
92828 2023-03-19 12:25:10 Aussentemperatur 11.40 11.15 98.00
92827 2023-03-19 12:24:12 Terrasse 12.50 11.49 64.70
92826 2023-03-19 12:21:44 Bahnzimmer 19.00 18.18 46.80
92825 2023-03-19 11:57:07 Aussentemperatur 13.50 13.43 96.60
92824 2023-03-19 11:56:00 Terrasse 13.20 12.11 58.60
92823 2023-03-19 11:51:44 Bahnzimmer 19.20 18.38 46.00
92822 2023-03-19 11:29:03 Aussentemperatur 15.30 15.35 94.50
92821 2023-03-19 11:27:41 Terrasse 13.70 12.64 58.00
92820 2023-03-19 11:21:43 Bahnzimmer 19.30 18.48 45.70
92819 2023-03-19 11:00:49 Aussentemperatur 14.80 14.78 93.80
92818 2023-03-19 10:59:21 Terrasse 13.40 12.32 58.40
92817 2023-03-19 10:51:42 Bahnzimmer 19.50 18.71 46.20
92816 2023-03-19 10:32:29 Aussentemperatur 13.50 13.34 93.20
92815 2023-03-19 10:31:03 Terrasse 13.00 11.89 58.90
92814 2023-03-19 10:21:41 Bahnzimmer 19.40 18.60 46.20
92813 2023-03-19 10:04:05 Aussentemperatur 11.90 11.58 93.20
92812 2023-03-19 10:02:38 Terrasse 11.70 10.53 61.50
92811 2023-03-19 09:51:41 Bahnzimmer 19.50 18.70 45.70
92810 2023-03-19 09:35:47 Aussentemperatur 10.50 10.05 93.50
92809 2023-03-19 09:34:16 Terrasse 10.90 9.69 63.00
92808 2023-03-19 09:21:40 Bahnzimmer 19.30 18.46 45.10
92807 2023-03-19 09:07:36 Aussentemperatur 10.20 9.69 92.60
92806 2023-03-19 09:05:53 Terrasse 10.40 9.17 64.20
92805 2023-03-19 08:51:39 Bahnzimmer 18.80 17.90 44.70
92804 2023-03-19 08:39:16 Aussentemperatur 8.60 7.94 92.90
92803 2023-03-19 08:37:32 Terrasse 9.70 8.44 65.70
92802 2023-03-19 08:21:39 Bahnzimmer 18.80 17.90 44.50
92801 2023-03-19 08:11:04 Aussentemperatur 8.20 7.50 92.90
92800 2023-03-19 08:09:11 Terrasse 9.50 8.25 66.80
92799 2023-03-19 07:51:38 Bahnzimmer 18.60 17.68 44.60
92798 2023-03-19 07:42:50 Aussentemperatur 7.30 6.52 93.20
92797 2023-03-19 07:40:52 Terrasse 8.90 7.62 67.80
92796 2023-03-19 07:21:37 Bahnzimmer 18.30 17.35 44.70
92795 2023-03-19 07:14:35 Aussentemperatur 6.50 5.65 93.80
92794 2023-03-19 07:12:33 Terrasse 8.40 7.05 67.30
92793 2023-03-19 06:51:37 Bahnzimmer 18.00 17.03 45.10
92792 2023-03-19 06:46:22 Aussentemperatur 6.10 5.22 94.00
92791 2023-03-19 06:44:17 Terrasse 8.50 7.13 66.20
92790 2023-03-19 06:21:36 Bahnzimmer 17.40 16.39 45.70
92789 2023-03-19 06:18:12 Aussentemperatur 6.40 5.56 94.20
92788 2023-03-19 06:15:59 Terrasse 8.70 7.34 65.80
92787 2023-03-19 05:51:35 Bahnzimmer 17.40 16.39 45.90
92786 2023-03-19 05:50:01 Aussentemperatur 6.80 6.00 94.20
92785 2023-03-19 05:47:44 Terrasse 9.00 7.67 65.60
92784 2023-03-19 05:21:52 Aussentemperatur 7.20 6.44 94.50
92783 2023-03-19 05:21:35 Bahnzimmer 17.40 16.39 45.90
92782 2023-03-19 05:19:29 Terrasse 9.40 8.10 65.20
92781 2023-03-19 04:53:43 Aussentemperatur 7.60 6.88 94.50
92780 2023-03-19 04:51:34 Bahnzimmer 17.50 16.50 45.80
92779 2023-03-19 04:51:13 Terrasse 9.60 8.32 65.20
92778 2023-03-19 04:25:31 Aussentemperatur 7.90 7.22 94.70
92777 2023-03-19 04:22:56 Terrasse 9.90 8.64 64.90
92776 2023-03-19 04:21:33 Bahnzimmer 17.50 16.50 45.90
92775 2023-03-19 03:57:21 Aussentemperatur 8.40 7.76 94.40
92774 2023-03-19 03:54:39 Terrasse 10.20 8.97 64.80
92773 2023-03-19 03:51:32 Bahnzimmer 17.50 16.50 45.90
92772 2023-03-19 03:29:09 Aussentemperatur 8.50 7.88 94.70
92771 2023-03-19 03:26:21 Terrasse 10.30 9.07 64.40
92770 2023-03-19 03:21:32 Bahnzimmer 17.60 16.61 45.70
92769 2023-03-19 03:00:58 Aussentemperatur 8.40 7.78 95.00
92768 2023-03-19 02:58:05 Terrasse 10.30 9.06 64.30
92767 2023-03-19 02:51:31 Bahnzimmer 17.60 16.61 45.80
92766 2023-03-19 02:32:47 Aussentemperatur 8.60 7.99 94.90
92765 2023-03-19 02:29:47 Terrasse 10.50 9.29 64.60
92764 2023-03-19 02:21:30 Bahnzimmer 17.70 16.72 45.90
92763 2023-03-19 02:04:36 Aussentemperatur 9.00 8.43 94.90
92762 2023-03-19 02:01:29 Terrasse 10.60 9.38 63.90
92761 2023-03-19 01:51:30 Bahnzimmer 17.80 16.83 45.80
92760 2023-03-19 01:36:26 Aussentemperatur 8.80 8.22 95.10
92759 2023-03-19 01:33:13 Terrasse 10.70 9.48 63.30
92758 2023-03-19 01:21:29 Bahnzimmer 17.90 16.94 45.60
92757 2023-03-19 01:08:14 Aussentemperatur 9.00 8.44 95.20
92756 2023-03-19 01:04:55 Terrasse 10.70 9.47 63.00
92755 2023-03-19 00:51:28 Bahnzimmer 18.00 17.05 45.60
92754 2023-03-19 00:40:03 Aussentemperatur 9.00 8.45 95.40
92753 2023-03-19 00:36:38 Terrasse 10.80 9.57 62.50
92752 2023-03-19 00:21:28 Bahnzimmer 18.10 17.15 45.30
92751 2023-03-19 00:11:52 Aussentemperatur 9.00 8.45 95.50
92750 2023-03-19 00:08:21 Terrasse 10.80 9.55 61.90
92749 2023-03-18 23:51:26 Bahnzimmer 18.20 17.26 45.30
92748 2023-03-18 23:43:42 Aussentemperatur 9.20 8.67 95.40
92747 2023-03-18 23:40:03 Terrasse 10.90 9.64 60.90
92746 2023-03-18 23:21:24 Bahnzimmer 18.30 17.37 45.20
92745 2023-03-18 23:15:32 Aussentemperatur 8.90 8.35 96.00
92744 2023-03-18 23:11:47 Terrasse 10.90 9.65 61.40
92743 2023-03-18 22:51:23 Bahnzimmer 18.20 17.26 45.40
92742 2023-03-18 22:47:21 Aussentemperatur 9.20 8.68 95.90
92741 2023-03-18 22:43:29 Terrasse 11.00 9.77 61.90
92740 2023-03-18 22:21:23 Bahnzimmer 18.10 17.15 45.40
92739 2023-03-18 22:19:10 Aussentemperatur 9.20 8.70 96.50
92738 2023-03-18 22:15:12 Terrasse 11.10 9.85 60.50
92737 2023-03-18 21:51:22 Bahnzimmer 18.10 17.14 45.10
92736 2023-03-18 21:51:00 Aussentemperatur 9.40 8.91 96.40
92735 2023-03-18 21:46:54 Terrasse 11.30 10.06 60.40
92734 2023-03-18 21:22:49 Aussentemperatur 9.20 8.71 96.90
92733 2023-03-18 21:21:21 Bahnzimmer 18.10 17.15 45.30
92732 2023-03-18 21:18:36 Terrasse 11.30 10.06 60.30
92731 2023-03-18 20:54:38 Aussentemperatur 9.20 8.72 97.50
92730 2023-03-18 20:51:21 Bahnzimmer 18.00 17.03 45.10
92729 2023-03-18 20:50:20 Terrasse 11.40 10.15 59.70
92728 2023-03-18 20:26:27 Aussentemperatur 9.40 8.94 97.60
92727 2023-03-18 20:22:04 Terrasse 11.50 10.26 59.60
92726 2023-03-18 20:21:20 Bahnzimmer 18.00 17.04 45.40
92725 2023-03-18 19:58:19 Aussentemperatur 9.80 9.40 98.20
92724 2023-03-18 19:53:47 Terrasse 11.90 10.68 58.90
92723 2023-03-18 19:51:19 Bahnzimmer 17.90 16.93 45.50
92722 2023-03-18 19:30:10 Aussentemperatur 10.30 9.97 99.10
92721 2023-03-18 19:25:31 Terrasse 12.50 11.32 58.00
92720 2023-03-18 19:21:19 Bahnzimmer 17.80 16.82 45.50
92719 2023-03-18 19:02:02 Aussentemperatur 11.10 10.87 99.70
92718 2023-03-18 18:57:17 Terrasse 13.10 11.94 56.60
92717 2023-03-18 18:51:18 Bahnzimmer 17.80 16.83 45.90
92716 2023-03-18 18:33:58 Aussentemperatur 12.50 12.41 99.90
92715 2023-03-18 18:29:04 Terrasse 14.10 13.03 56.10
92714 2023-03-18 18:21:17 Bahnzimmer 17.80 16.84 46.00
92713 2023-03-18 18:05:58 Aussentemperatur 15.20 15.38 99.90
92712 2023-03-18 18:00:49 Terrasse 15.00 13.95 53.40
92711 2023-03-18 17:51:17 Bahnzimmer 17.90 16.95 46.00
92710 2023-03-18 17:37:52 Aussentemperatur 17.50 17.85 97.30
92709 2023-03-18 17:32:36 Terrasse 15.50 14.45 51.50
92708 2023-03-18 17:21:16 Bahnzimmer 17.80 16.83 45.90
92707 2023-03-18 17:09:38 Aussentemperatur 17.00 17.33 98.60
92706 2023-03-18 17:04:18 Terrasse 16.00 15.03 52.80
92705 2023-03-18 16:51:15 Bahnzimmer 17.90 16.94 45.80
92704 2023-03-18 16:41:16 Aussentemperatur 15.40 15.55 97.80
92703 2023-03-18 16:35:59 Terrasse 15.60 14.53 50.40
92702 2023-03-18 16:21:15 Bahnzimmer 18.00 17.04 45.40
92701 2023-03-18 16:13:13 Aussentemperatur 16.80 17.12 98.80
92700 2023-03-18 16:07:42 Terrasse 16.10 15.05 49.10
92699 2023-03-18 15:51:14 Bahnzimmer 18.00 17.03 45.00
92698 2023-03-18 15:45:08 Aussentemperatur 17.20 17.49 96.40
92697 2023-03-18 15:39:34 Terrasse 17.50 16.53 46.90
92696 2023-03-18 15:21:13 Bahnzimmer 18.10 17.14 45.10
92695 2023-03-18 15:17:00 Aussentemperatur 19.50 20.06 98.00
92694 2023-03-18 15:11:14 Terrasse 17.80 16.88 47.60
92693 2023-03-18 14:51:12 Bahnzimmer 18.20 17.26 45.20
92692 2023-03-18 14:48:51 Aussentemperatur 19.70 20.20 94.60
92691 2023-03-18 14:43:04 Terrasse 18.50 17.65 47.80
92690 2023-03-18 14:21:12 Bahnzimmer 18.20 17.26 45.50
92689 2023-03-18 14:20:49 Aussentemperatur 22.20 22.90 93.00
92688 2023-03-18 14:14:49 Terrasse 19.30 18.47 45.50
92687 2023-03-18 13:52:32 Aussentemperatur 22.90 23.72 94.90
92686 2023-03-18 13:51:10 Bahnzimmer 18.20 17.27 45.60
92685 2023-03-18 13:46:17 Terrasse 18.90 18.07 47.00
92684 2023-03-18 13:24:12 Aussentemperatur 21.00 21.62 94.50
92683 2023-03-18 13:21:09 Bahnzimmer 18.20 17.28 46.10
92682 2023-03-18 13:18:06 Terrasse 19.40 18.62 46.90
92681 2023-03-18 12:56:30 Aussentemperatur 23.90 24.70 90.00
92680 2023-03-18 12:51:07 Bahnzimmer 18.20 17.28 46.30
92679 2023-03-18 12:49:52 Terrasse 20.50 19.74 43.60
92678 2023-03-18 12:28:11 Aussentemperatur 24.20 24.95 87.20
92677 2023-03-18 12:21:31 Terrasse 22.00 21.42 44.60
92676 2023-03-18 12:21:06 Bahnzimmer 18.10 17.15 45.40
92675 2023-03-18 11:59:59 Aussentemperatur 24.60 25.33 84.90
92674 2023-03-18 11:53:14 Terrasse 20.60 19.90 45.50
92673 2023-03-18 11:51:05 Bahnzimmer 18.30 17.38 45.90
92672 2023-03-18 11:31:03 Aussentemperatur 20.10 20.47 88.30
92671 2023-03-18 11:24:56 Terrasse 21.10 20.47 46.10
92670 2023-03-18 11:21:05 Bahnzimmer 18.40 17.48 45.50
92669 2023-03-18 11:02:05 Aussentemperatur 12.50 12.20 91.60
92668 2023-03-18 10:56:09 Terrasse 19.00 18.24 49.30
92667 2023-03-18 10:51:04 Bahnzimmer 18.60 17.70 45.30
92666 2023-03-18 10:33:49 Aussentemperatur 11.70 11.30 90.80
92665 2023-03-18 10:27:59 Terrasse 19.80 19.09 48.10
92664 2023-03-18 10:21:03 Bahnzimmer 18.90 18.02 44.90
92663 2023-03-18 10:05:29 Aussentemperatur 10.30 9.75 90.70
92662 2023-03-18 09:58:59 Terrasse 14.90 13.86 54.30
92661 2023-03-18 09:51:03 Bahnzimmer 19.00 18.14 45.40
92660 2023-03-18 09:37:12 Aussentemperatur 9.20 8.54 90.50
92659 2023-03-18 09:30:35 Terrasse 12.50 11.34 58.90
92658 2023-03-18 09:21:02 Bahnzimmer 19.00 18.15 45.80
92657 2023-03-18 09:08:54 Aussentemperatur 8.20 7.45 90.90
92656 2023-03-18 09:02:02 Terrasse 10.20 9.01 66.40
92655 2023-03-18 08:51:01 Bahnzimmer 19.30 18.47 45.20
92654 2023-03-18 08:40:38 Aussentemperatur 7.20 6.37 91.80
92653 2023-03-18 08:33:39 Terrasse 9.20 8.06 72.00
92652 2023-03-18 08:21:00 Bahnzimmer 19.20 18.33 44.20
92651 2023-03-18 08:12:26 Aussentemperatur 6.70 5.83 92.00
92650 2023-03-18 08:05:18 Terrasse 8.50 7.33 73.80
92649 2023-03-18 07:51:00 Bahnzimmer 18.70 17.77 43.80
92648 2023-03-18 07:44:12 Aussentemperatur 6.50 5.61 91.90
92647 2023-03-18 07:37:00 Terrasse 8.20 7.01 74.00
92646 2023-03-18 07:20:59 Bahnzimmer 18.60 17.66 43.70
92645 2023-03-18 07:16:03 Aussentemperatur 6.60 5.72 92.00
92644 2023-03-18 07:08:43 Terrasse 8.30 7.13 74.50
92643 2023-03-18 06:50:58 Bahnzimmer 18.20 17.22 43.90
92642 2023-03-18 06:47:49 Aussentemperatur 6.70 5.83 92.10
92641 2023-03-18 06:40:25 Terrasse 8.30 7.14 74.90
92640 2023-03-18 06:20:58 Bahnzimmer 17.50 16.48 44.80
92639 2023-03-18 06:19:37 Aussentemperatur 6.50 5.62 92.30
92638 2023-03-18 06:12:09 Terrasse 8.30 7.13 74.60
92637 2023-03-18 05:51:27 Aussentemperatur 6.60 5.73 92.30
92636 2023-03-18 05:50:57 Bahnzimmer 17.50 16.47 44.60
92635 2023-03-18 05:43:53 Terrasse 8.30 7.13 74.50
92634 2023-03-18 05:23:16 Aussentemperatur 6.60 5.73 92.60
92633 2023-03-18 05:20:56 Bahnzimmer 17.50 16.47 44.70
92632 2023-03-18 05:15:37 Terrasse 8.50 7.33 73.70
92631 2023-03-18 04:55:06 Aussentemperatur 7.00 6.17 92.40
92630 2023-03-18 04:50:56 Bahnzimmer 17.50 16.48 44.90
92629 2023-03-18 04:47:19 Terrasse 8.60 7.47 75.00
92628 2023-03-18 04:26:56 Aussentemperatur 7.20 6.39 92.30
92627 2023-03-18 04:20:55 Bahnzimmer 17.60 16.58 44.60
92626 2023-03-18 04:19:02 Terrasse 8.90 7.80 74.70
92625 2023-03-18 03:58:44 Aussentemperatur 7.10 6.28 92.50
92624 2023-03-18 03:50:54 Bahnzimmer 17.70 16.68 44.30
92623 2023-03-18 03:50:43 Terrasse 8.80 7.67 74.20
92622 2023-03-18 03:30:32 Aussentemperatur 7.00 6.17 92.50
92621 2023-03-18 03:22:24 Terrasse 8.90 7.77 73.70
92620 2023-03-18 03:20:53 Bahnzimmer 17.80 16.79 44.20
92619 2023-03-18 03:02:20 Aussentemperatur 7.00 6.17 92.60
92618 2023-03-18 02:54:07 Terrasse 8.90 7.77 73.60
92617 2023-03-18 02:50:53 Bahnzimmer 17.90 16.89 44.00
92616 2023-03-18 02:34:08 Aussentemperatur 7.10 6.29 92.70
92615 2023-03-18 02:25:50 Terrasse 9.00 7.83 71.60
92614 2023-03-18 02:20:52 Bahnzimmer 18.00 17.00 43.80
92613 2023-03-18 02:05:58 Aussentemperatur 7.10 6.29 92.80
92612 2023-03-18 01:57:34 Terrasse 9.20 7.98 69.30
92611 2023-03-18 01:50:51 Bahnzimmer 18.00 17.00 43.90
92610 2023-03-18 01:37:47 Aussentemperatur 7.20 6.39 92.60
92609 2023-03-18 01:29:15 Terrasse 9.20 7.89 65.50
92608 2023-03-18 01:20:51 Bahnzimmer 18.10 17.11 43.70
92607 2023-03-18 01:09:37 Aussentemperatur 7.50 6.72 92.30
92606 2023-03-18 01:00:58 Terrasse 9.40 8.02 62.40
92605 2023-03-18 00:50:50 Bahnzimmer 18.30 17.33 43.70
92604 2023-03-18 00:41:25 Aussentemperatur 7.40 6.62 92.90
92603 2023-03-18 00:32:41 Terrasse 9.20 7.81 62.60
92602 2023-03-18 00:20:49 Bahnzimmer 18.50 17.54 43.40
92601 2023-03-18 00:13:14 Aussentemperatur 7.20 6.41 93.30
92600 2023-03-18 00:04:25 Terrasse 9.20 7.86 64.40
92599 2023-03-17 23:50:49 Bahnzimmer 18.70 17.76 43.30
92598 2023-03-17 23:45:04 Aussentemperatur 7.30 6.52 93.30
92597 2023-03-17 23:36:09 Terrasse 9.40 8.00 61.40
92596 2023-03-17 23:20:48 Bahnzimmer 18.90 17.96 42.80
92595 2023-03-17 23:16:53 Aussentemperatur 7.50 6.74 93.20
92594 2023-03-17 23:07:51 Terrasse 9.40 8.01 61.70
92593 2023-03-17 22:50:47 Bahnzimmer 18.90 17.97 42.90
92592 2023-03-17 22:48:41 Aussentemperatur 7.60 6.85 93.30
92591 2023-03-17 22:39:42 Terrasse 9.40 7.98 60.80
92590 2023-03-17 22:20:47 Bahnzimmer 18.80 17.85 42.60
92589 2023-03-17 22:20:29 Aussentemperatur 7.50 6.75 93.80
92588 2023-03-17 22:11:21 Terrasse 9.40 7.98 60.70
92587 2023-03-17 21:52:18 Aussentemperatur 7.60 6.87 93.90
92586 2023-03-17 21:50:46 Bahnzimmer 18.80 17.85 42.70
92585 2023-03-17 21:43:05 Terrasse 9.60 8.19 60.20
92584 2023-03-17 21:24:06 Aussentemperatur 7.80 7.09 94.10
92583 2023-03-17 21:20:45 Bahnzimmer 18.70 17.75 42.90
92582 2023-03-17 21:14:48 Terrasse 9.80 8.39 59.70
92581 2023-03-17 20:55:56 Aussentemperatur 8.00 7.32 94.20
92580 2023-03-17 20:50:45 Bahnzimmer 18.50 17.52 42.80
92579 2023-03-17 20:46:31 Terrasse 10.00 8.61 59.40
92578 2023-03-17 20:27:46 Aussentemperatur 8.50 7.87 94.40
92577 2023-03-17 20:20:44 Bahnzimmer 18.60 17.63 42.50
92576 2023-03-17 20:18:14 Terrasse 10.20 8.82 59.00
92575 2023-03-17 19:59:34 Aussentemperatur 8.50 7.88 94.70
92574 2023-03-17 19:50:43 Bahnzimmer 18.50 17.51 42.40
92573 2023-03-17 19:49:57 Terrasse 10.50 9.12 58.00
92572 2023-03-17 19:31:23 Aussentemperatur 8.90 8.32 94.90
92571 2023-03-17 19:21:39 Terrasse 10.70 9.35 58.20
92570 2023-03-17 19:20:43 Bahnzimmer 18.40 17.41 42.60
92569 2023-03-17 19:03:14 Aussentemperatur 9.20 8.66 95.20
92568 2023-03-17 18:53:23 Terrasse 11.10 9.77 57.70
92567 2023-03-17 18:50:42 Bahnzimmer 18.20 17.18 42.40
92566 2023-03-17 18:35:04 Aussentemperatur 9.70 9.22 95.70
92565 2023-03-17 18:25:07 Terrasse 11.40 10.11 57.90
92564 2023-03-17 18:20:41 Bahnzimmer 18.20 17.18 42.20
92563 2023-03-17 18:06:55 Aussentemperatur 10.40 10.01 96.20
92562 2023-03-17 17:56:51 Terrasse 11.90 10.63 56.70
92561 2023-03-17 17:50:41 Bahnzimmer 17.80 16.73 42.10
92560 2023-03-17 17:38:48 Aussentemperatur 11.60 11.32 96.10
92559 2023-03-17 17:28:35 Terrasse 12.50 11.12 50.30
92558 2023-03-17 17:20:40 Bahnzimmer 17.70 16.59 40.70
92557 2023-03-17 17:10:40 Aussentemperatur 13.00 12.85 95.50
92556 2023-03-17 17:00:19 Terrasse 13.00 11.66 49.80
92555 2023-03-17 16:50:39 Bahnzimmer 18.50 17.50 41.80
92554 2023-03-17 16:42:28 Aussentemperatur 13.50 13.41 95.80
92553 2023-03-17 16:32:02 Terrasse 13.20 11.86 49.30
92552 2023-03-17 16:20:39 Bahnzimmer 18.70 17.75 43.00
92551 2023-03-17 16:14:18 Aussentemperatur 14.20 14.16 95.30
92550 2023-03-17 16:03:46 Terrasse 13.50 12.16 48.10
92549 2023-03-17 15:50:38 Bahnzimmer 18.70 17.72 42.00
92548 2023-03-17 15:46:11 Aussentemperatur 15.50 15.57 94.50
92547 2023-03-17 15:35:31 Terrasse 14.00 12.66 46.00
92546 2023-03-17 15:20:37 Bahnzimmer 18.50 17.48 41.20
92545 2023-03-17 15:18:02 Aussentemperatur 16.60 16.74 92.80
92544 2023-03-17 15:07:07 Terrasse 13.30 11.93 47.50
92543 2023-03-17 14:50:37 Bahnzimmer 18.80 17.86 43.20
92542 2023-03-17 14:49:50 Aussentemperatur 15.60 15.66 93.70
92541 2023-03-17 14:38:48 Terrasse 13.10 11.73 48.30
92540 2023-03-17 14:21:35 Aussentemperatur 14.90 14.92 94.80
92539 2023-03-17 14:20:36 Bahnzimmer 18.70 17.74 42.70
92538 2023-03-17 14:10:32 Terrasse 13.10 11.73 48.40
92537 2023-03-17 13:53:28 Aussentemperatur 16.00 16.08 93.00
92536 2023-03-17 13:50:35 Bahnzimmer 18.60 17.60 41.50
92535 2023-03-17 13:42:15 Terrasse 13.50 12.15 47.50
92534 2023-03-17 13:25:16 Aussentemperatur 16.40 16.49 91.70
92533 2023-03-17 13:20:35 Bahnzimmer 18.30 17.27 41.70
92532 2023-03-17 13:13:54 Terrasse 13.20 11.79 46.50
92531 2023-03-17 12:56:57 Aussentemperatur 15.20 15.18 92.20
92530 2023-03-17 12:50:34 Bahnzimmer 18.80 17.89 44.10
92529 2023-03-17 12:45:33 Terrasse 12.60 11.20 49.10
92528 2023-03-17 12:28:43 Aussentemperatur 14.80 14.74 91.90
92527 2023-03-17 12:20:33 Bahnzimmer 18.60 17.66 44.00
92526 2023-03-17 12:17:13 Terrasse 12.50 11.07 48.60
92525 2023-03-17 12:00:25 Aussentemperatur 13.60 13.42 92.00
92524 2023-03-17 11:50:33 Bahnzimmer 18.50 17.54 43.40
92523 2023-03-17 11:48:52 Terrasse 11.70 10.22 49.40
92522 2023-03-17 11:32:02 Aussentemperatur 11.90 11.56 92.30
92521 2023-03-17 11:20:36 Terrasse 11.70 10.22 49.40
92520 2023-03-17 11:20:32 Bahnzimmer 18.60 17.65 43.40
92519 2023-03-17 11:03:47 Aussentemperatur 11.70 11.31 91.30
92518 2023-03-17 10:52:18 Terrasse 11.30 9.77 49.10
92517 2023-03-17 10:50:31 Bahnzimmer 18.70 17.76 43.40
92516 2023-03-17 10:35:28 Aussentemperatur 10.20 9.65 91.00
92515 2023-03-17 10:24:00 Terrasse 11.10 9.55 49.10
92514 2023-03-17 10:20:31 Bahnzimmer 18.60 17.65 43.60
92513 2023-03-17 10:07:10 Aussentemperatur 8.90 8.20 90.20
92512 2023-03-17 09:55:52 Terrasse 12.30 10.85 48.40
92511 2023-03-17 09:50:30 Bahnzimmer 18.60 17.64 43.10
92510 2023-03-17 09:38:47 Aussentemperatur 6.50 5.58 90.90
92509 2023-03-17 09:27:19 Terrasse 8.90 7.31 56.10
92508 2023-03-17 09:20:29 Bahnzimmer 18.20 17.20 42.90
92507 2023-03-17 09:10:29 Aussentemperatur 4.90 3.82 90.90
92506 2023-03-17 08:58:50 Terrasse 6.80 5.06 58.30
92505 2023-03-17 08:50:28 Bahnzimmer 18.40 17.41 42.70
92504 2023-03-17 08:42:15 Aussentemperatur 3.90 2.72 90.90
92503 2023-03-17 08:30:28 Terrasse 5.80 3.98 59.10
92502 2023-03-17 08:20:28 Bahnzimmer 18.90 17.91 40.80
92501 2023-03-17 08:14:01 Aussentemperatur 2.90 1.62 91.10
92500 2023-03-17 08:02:07 Terrasse 5.00 3.12 60.10
92499 2023-03-17 07:50:27 Bahnzimmer 18.90 17.88 39.60
92498 2023-03-17 07:45:46 Aussentemperatur 1.80 0.43 91.80
92497 2023-03-17 07:33:50 Terrasse 4.40 2.48 60.80
92496 2023-03-17 07:20:26 Bahnzimmer 19.50 18.61 42.20
92495 2023-03-17 07:17:34 Aussentemperatur 1.40 0.00 92.10
92494 2023-03-17 07:05:32 Terrasse 4.30 2.37 60.50
92493 2023-03-17 06:50:26 Bahnzimmer 19.30 18.40 42.50
92492 2023-03-17 06:49:23 Aussentemperatur 1.10 -0.32 92.50
92491 2023-03-17 06:37:17 Terrasse 4.40 2.47 60.20
92490 2023-03-17 06:21:12 Aussentemperatur 1.20 -0.20 92.70
92489 2023-03-17 06:20:25 Bahnzimmer 19.00 18.07 42.70
92488 2023-03-17 06:09:01 Terrasse 4.50 2.58 60.20
92487 2023-03-17 05:53:01 Aussentemperatur 1.50 0.12 92.60
92486 2023-03-17 05:50:24 Bahnzimmer 18.90 17.96 42.60
92485 2023-03-17 05:40:47 Terrasse 4.70 2.78 59.70
92484 2023-03-17 05:24:52 Aussentemperatur 1.70 0.35 92.80
92483 2023-03-17 05:20:23 Bahnzimmer 18.50 17.53 43.00
92482 2023-03-17 05:12:33 Terrasse 4.90 3.00 59.40
92481 2023-03-17 04:56:42 Aussentemperatur 2.00 0.69 93.10
92480 2023-03-17 04:50:23 Bahnzimmer 17.60 16.56 44.00
92479 2023-03-17 04:44:17 Terrasse 5.00 3.10 59.30
92478 2023-03-17 04:28:32 Aussentemperatur 2.20 0.90 92.90
92477 2023-03-17 04:20:22 Bahnzimmer 17.50 16.46 44.20
92476 2023-03-17 04:16:02 Terrasse 5.10 3.21 59.10
92475 2023-03-17 04:00:22 Aussentemperatur 2.40 1.12 93.00
92474 2023-03-17 03:50:21 Bahnzimmer 17.60 16.56 43.90
92473 2023-03-17 03:47:54 Terrasse 5.20 3.32 59.30
92472 2023-03-17 03:32:11 Aussentemperatur 2.20 0.92 93.50
92471 2023-03-17 03:20:21 Bahnzimmer 17.60 16.57 44.10
92470 2023-03-17 03:19:35 Terrasse 5.30 3.43 59.00
92469 2023-03-17 03:04:02 Aussentemperatur 2.40 1.14 93.50
92468 2023-03-17 02:51:20 Terrasse 5.50 3.64 58.80
92467 2023-03-17 02:50:20 Bahnzimmer 17.60 16.57 44.20
92466 2023-03-17 02:35:51 Aussentemperatur 2.80 1.57 93.40
92465 2023-03-17 02:23:03 Terrasse 5.50 3.64 58.90
92464 2023-03-17 02:20:19 Bahnzimmer 17.70 16.68 44.40
92463 2023-03-17 02:07:39 Aussentemperatur 2.70 1.47 93.80
92462 2023-03-17 01:54:46 Terrasse 5.60 3.75 58.70
92461 2023-03-17 01:50:19 Bahnzimmer 17.80 16.79 44.10
92460 2023-03-17 01:39:28 Aussentemperatur 2.90 1.70 94.10
92459 2023-03-17 01:26:32 Terrasse 5.60 3.76 59.10
92458 2023-03-17 01:20:18 Bahnzimmer 17.80 16.78 44.00
92457 2023-03-17 01:11:17 Aussentemperatur 3.00 1.81 94.00
92456 2023-03-17 00:58:16 Terrasse 5.80 3.97 58.90
92455 2023-03-17 00:50:17 Bahnzimmer 17.90 16.89 44.00
92454 2023-03-17 00:43:06 Aussentemperatur 3.10 1.93 94.20
92453 2023-03-17 00:30:00 Terrasse 5.80 3.97 58.90
92452 2023-03-17 00:20:17 Bahnzimmer 18.00 17.01 44.10
92451 2023-03-17 00:14:55 Aussentemperatur 3.00 1.83 94.80
92450 2023-03-17 00:01:45 Terrasse 6.00 4.19 58.60
92449 2023-03-16 23:50:16 Bahnzimmer 18.20 17.22 43.90
92448 2023-03-16 23:46:46 Aussentemperatur 2.90 1.73 95.10
92447 2023-03-16 23:33:28 Terrasse 6.00 4.18 58.30
92446 2023-03-16 23:20:15 Bahnzimmer 18.50 17.54 43.60
92445 2023-03-16 23:18:36 Aussentemperatur 3.10 1.96 95.50
92444 2023-03-16 23:05:14 Terrasse 6.30 4.50 58.00
92443 2023-03-16 22:50:24 Aussentemperatur 3.30 2.18 95.70
92442 2023-03-16 22:50:15 Bahnzimmer 18.70 17.75 43.00
92441 2023-03-16 22:36:58 Terrasse 6.60 4.82 57.60
92440 2023-03-16 22:22:15 Aussentemperatur 3.60 2.53 96.20
92439 2023-03-16 22:20:14 Bahnzimmer 18.70 17.75 43.20
92438 2023-03-16 22:08:41 Terrasse 6.70 4.91 56.80
92437 2023-03-16 21:54:06 Aussentemperatur 3.70 2.64 96.30
92436 2023-03-16 21:50:13 Bahnzimmer 18.60 17.64 43.20
92435 2023-03-16 21:40:25 Terrasse 7.00 5.23 56.50
92434 2023-03-16 21:25:55 Aussentemperatur 4.10 3.09 96.80
92433 2023-03-16 21:20:13 Bahnzimmer 18.60 17.65 43.50
92432 2023-03-16 21:12:11 Terrasse 7.20 5.45 56.40
92431 2023-03-16 20:57:44 Aussentemperatur 4.40 3.44 97.30
92430 2023-03-16 20:50:12 Bahnzimmer 18.70 17.75 43.20
92429 2023-03-16 20:43:55 Terrasse 7.40 5.67 56.60
92428 2023-03-16 20:29:33 Aussentemperatur 4.40 3.45 97.90
92427 2023-03-16 20:20:12 Bahnzimmer 18.50 17.54 43.30
92426 2023-03-16 20:15:40 Terrasse 7.50 5.79 56.90
92425 2023-03-16 20:01:23 Aussentemperatur 4.60 3.69 98.60
92424 2023-03-16 19:50:11 Bahnzimmer 18.30 17.32 43.60
92423 2023-03-16 19:47:26 Terrasse 7.80 6.10 56.20
92422 2023-03-16 19:33:13 Aussentemperatur 5.00 4.15 99.50
92421 2023-03-16 19:20:10 Bahnzimmer 17.90 16.90 44.20
92420 2023-03-16 19:19:09 Terrasse 8.20 6.54 56.00
92419 2023-03-16 19:05:04 Aussentemperatur 5.50 4.71 99.90
92418 2023-03-16 18:50:54 Terrasse 8.50 6.86 55.60
92417 2023-03-16 18:50:10 Bahnzimmer 18.00 17.01 44.20
92416 2023-03-16 18:36:56 Aussentemperatur 6.60 5.91 99.20
92415 2023-03-16 18:22:41 Terrasse 9.20 7.60 54.40
92414 2023-03-16 18:20:09 Bahnzimmer 18.10 17.11 43.90
92413 2023-03-16 18:08:53 Aussentemperatur 8.30 7.74 97.80
92412 2023-03-16 17:54:28 Terrasse 10.00 8.43 52.50
92411 2023-03-16 17:50:08 Bahnzimmer 18.10 17.11 44.00
92410 2023-03-16 17:40:48 Aussentemperatur 10.10 9.68 96.20
92409 2023-03-16 17:26:14 Terrasse 10.80 9.28 51.60
92408 2023-03-16 17:20:08 Bahnzimmer 18.20 17.23 44.20
92407 2023-03-16 17:12:42 Aussentemperatur 11.50 11.17 94.50
92406 2023-03-16 16:58:03 Terrasse 12.00 10.57 50.50
92405 2023-03-16 16:50:07 Bahnzimmer 18.30 17.33 44.00
92404 2023-03-16 16:44:34 Aussentemperatur 12.70 12.46 93.30
92403 2023-03-16 16:29:52 Terrasse 13.30 11.90 46.60
92402 2023-03-16 16:20:06 Bahnzimmer 18.30 17.33 43.90
92401 2023-03-16 16:16:30 Aussentemperatur 14.10 13.98 92.60
92400 2023-03-16 16:01:30 Terrasse 13.10 11.74 48.80
92399 2023-03-16 15:50:06 Bahnzimmer 18.40 17.44 44.00
92398 2023-03-16 15:48:13 Aussentemperatur 13.80 13.66 92.80
92397 2023-03-16 15:33:14 Terrasse 12.50 11.07 48.40
92396 2023-03-16 15:20:07 Aussentemperatur 14.70 14.59 90.50
92395 2023-03-16 15:20:05 Bahnzimmer 18.50 17.53 43.00
92394 2023-03-16 15:05:16 Terrasse 15.10 13.82 44.10
92393 2023-03-16 14:52:17 Aussentemperatur 20.10 20.28 80.80
92392 2023-03-16 14:50:04 Bahnzimmer 18.40 17.43 43.60
92391 2023-03-16 14:37:03 Terrasse 16.40 15.22 43.00
92390 2023-03-16 14:24:00 Aussentemperatur 24.20 24.69 77.00
92389 2023-03-16 14:20:04 Bahnzimmer 18.40 17.43 43.50
92388 2023-03-16 14:08:26 Terrasse 12.90 11.49 47.50
92387 2023-03-16 13:55:55 Aussentemperatur 19.20 19.33 82.40
92386 2023-03-16 13:50:03 Bahnzimmer 18.30 17.33 44.00
92385 2023-03-16 13:40:04 Terrasse 12.60 11.16 47.50
92384 2023-03-16 13:27:35 Aussentemperatur 16.90 16.87 85.10
92383 2023-03-16 13:20:02 Bahnzimmer 18.30 17.33 43.70
92382 2023-03-16 13:11:44 Terrasse 12.30 10.84 48.20
92381 2023-03-16 12:59:19 Aussentemperatur 17.00 16.89 81.90
92380 2023-03-16 12:50:02 Bahnzimmer 18.10 17.11 43.70
92379 2023-03-16 12:43:31 Terrasse 13.30 11.88 45.60
92378 2023-03-16 12:31:14 Aussentemperatur 20.20 20.25 75.50
92377 2023-03-16 12:20:01 Bahnzimmer 18.00 17.00 43.80
92376 2023-03-16 12:15:07 Terrasse 13.30 11.94 48.00
92375 2023-03-16 12:03:44 Aussentemperatur 21.60 21.74 73.90
92374 2023-03-16 11:50:00 Bahnzimmer 17.90 16.89 43.80
92373 2023-03-16 11:46:34 Terrasse 10.30 8.76 52.60
92372 2023-03-16 11:34:05 Aussentemperatur 11.90 11.45 88.30
92371 2023-03-16 11:20:00 Bahnzimmer 18.00 16.99 43.40
92370 2023-03-16 11:18:07 Terrasse 8.20 6.52 55.40
92369 2023-03-16 11:05:22 Aussentemperatur 7.80 7.06 92.80
92368 2023-03-16 10:49:59 Bahnzimmer 18.00 16.98 43.20
92367 2023-03-16 10:49:46 Terrasse 7.80 6.11 56.30
92366 2023-03-16 10:37:04 Aussentemperatur 6.60 5.72 92.10
92365 2023-03-16 10:21:24 Terrasse 7.10 5.38 58.00
92364 2023-03-16 10:19:58 Bahnzimmer 18.00 16.98 43.00
92363 2023-03-16 10:08:39 Aussentemperatur 4.50 3.44 93.10
92362 2023-03-16 09:52:56 Terrasse 5.50 3.67 60.10
92361 2023-03-16 09:49:58 Bahnzimmer 18.00 16.97 42.60
92360 2023-03-16 09:24:32 Terrasse 4.10 2.23 63.60
92359 2023-03-16 09:19:57 Bahnzimmer 18.00 16.95 42.10
92358 2023-03-16 09:12:21 Aussentemperatur 2.30 1.02 93.20
92357 2023-03-16 08:56:12 Terrasse 3.30 1.36 64.20
92356 2023-03-16 08:49:56 Bahnzimmer 18.10 17.13 44.70
92355 2023-03-16 08:44:10 Aussentemperatur 2.30 1.01 92.80
92354 2023-03-16 08:27:52 Terrasse 2.80 0.83 65.00
92353 2023-03-16 08:19:56 Bahnzimmer 18.00 17.01 44.40
92352 2023-03-16 08:16:04 Aussentemperatur 1.20 -0.20 92.70
92351 2023-03-16 07:59:33 Terrasse 2.20 0.21 66.50
92350 2023-03-16 07:49:55 Bahnzimmer 18.00 17.01 44.20
92349 2023-03-16 07:47:45 Aussentemperatur 0.30 -1.19 92.80
92348 2023-03-16 07:31:12 Terrasse 1.70 -0.33 66.80
92347 2023-03-16 07:19:54 Bahnzimmer 18.40 17.43 43.40
92346 2023-03-16 07:19:31 Aussentemperatur -0.60 -2.17 93.10
92345 2023-03-16 07:02:55 Terrasse 1.20 -0.89 66.40
92344 2023-03-16 06:51:18 Aussentemperatur -1.30 -2.94 93.40
92343 2023-03-16 06:49:54 Bahnzimmer 18.90 17.96 42.80
92342 2023-03-16 06:34:39 Terrasse 0.90 -1.23 66.20
92341 2023-03-16 06:23:06 Aussentemperatur -1.90 -3.58 93.90
92340 2023-03-16 06:19:53 Bahnzimmer 18.80 17.86 43.20
92339 2023-03-16 06:06:23 Terrasse 0.80 -1.35 65.60
92338 2023-03-16 05:54:55 Aussentemperatur -1.90 -3.59 93.80
92337 2023-03-16 05:49:52 Bahnzimmer 18.90 17.97 43.00
92336 2023-03-16 05:38:08 Terrasse 0.90 -1.23 66.00
92335 2023-03-16 05:26:45 Aussentemperatur -1.90 -3.58 94.00
92334 2023-03-16 05:19:52 Bahnzimmer 18.80 17.86 42.90
92333 2023-03-16 05:09:53 Terrasse 0.80 -1.33 66.40
92332 2023-03-16 04:58:35 Aussentemperatur -1.90 -3.58 94.10
92331 2023-03-16 04:49:51 Bahnzimmer 18.40 17.43 43.40
92330 2023-03-16 04:41:38 Terrasse 0.90 -1.26 64.80
92329 2023-03-16 04:30:25 Aussentemperatur -1.70 -3.36 94.10
92328 2023-03-16 04:19:50 Bahnzimmer 17.80 16.78 43.90
92327 2023-03-16 04:13:21 Terrasse 0.80 -1.33 66.50
92326 2023-03-16 04:02:15 Aussentemperatur -2.10 -3.78 94.90
92325 2023-03-16 03:49:50 Bahnzimmer 17.80 16.78 44.00
92324 2023-03-16 03:45:06 Terrasse 0.40 -1.75 67.00
92323 2023-03-16 03:34:05 Aussentemperatur -2.20 -3.89 94.70
92322 2023-03-16 03:19:49 Bahnzimmer 17.80 16.78 44.00
92321 2023-03-16 03:16:51 Terrasse 0.40 -1.78 66.00
92320 2023-03-16 03:05:54 Aussentemperatur -2.20 -3.88 95.10
92319 2023-03-16 02:49:48 Bahnzimmer 17.80 16.78 44.00
92318 2023-03-16 02:48:36 Terrasse 0.50 -1.69 65.20
92317 2023-03-16 02:37:45 Aussentemperatur -2.10 -3.77 95.20
92316 2023-03-16 02:20:23 Terrasse 0.60 -1.60 64.40
92315 2023-03-16 02:19:48 Bahnzimmer 17.60 16.57 44.20
92314 2023-03-16 02:09:36 Aussentemperatur -2.10 -3.76 95.50
92313 2023-03-16 01:52:07 Terrasse 0.50 -1.73 63.90
92312 2023-03-16 01:49:47 Bahnzimmer 17.60 16.57 44.10
92311 2023-03-16 01:41:26 Aussentemperatur -1.90 -3.54 95.70
92310 2023-03-16 01:23:54 Terrasse 0.80 -1.39 64.00
92309 2023-03-16 01:13:17 Aussentemperatur -1.90 -3.53 95.90
92308 2023-03-16 00:55:39 Terrasse 0.90 -1.30 63.50
92307 2023-03-16 00:49:41 Bahnzimmer 17.70 16.68 44.30
92306 2023-03-16 00:45:08 Aussentemperatur -1.60 -3.19 96.20
92305 2023-03-16 00:27:25 Terrasse 1.00 -1.20 62.90
92304 2023-03-16 00:19:40 Bahnzimmer 18.00 17.02 44.70
92303 2023-03-16 00:16:59 Aussentemperatur -1.50 -3.07 96.50
92302 2023-03-15 23:59:12 Terrasse 1.50 -0.67 62.40
92301 2023-03-15 23:49:39 Bahnzimmer 18.40 17.44 43.90
92300 2023-03-15 23:48:48 Aussentemperatur -1.30 -2.85 96.70
92299 2023-03-15 23:30:57 Terrasse 1.70 -0.44 62.50
92298 2023-03-15 23:20:38 Aussentemperatur -1.30 -2.84 96.90
92297 2023-03-15 23:19:39 Bahnzimmer 18.30 17.31 43.00
92296 2023-03-15 23:02:43 Terrasse 1.80 -0.35 61.80
92295 2023-03-15 22:52:28 Aussentemperatur -1.10 -2.62 97.00
92294 2023-03-15 22:49:38 Bahnzimmer 17.80 16.76 43.20
92293 2023-03-15 22:34:29 Terrasse 2.10 -0.03 61.50
92292 2023-03-15 22:24:19 Aussentemperatur -0.70 -2.18 97.00
92291 2023-03-15 22:19:37 Bahnzimmer 17.80 16.79 44.10
92290 2023-03-15 22:06:15 Terrasse 2.40 0.29 61.00
92289 2023-03-15 21:56:09 Aussentemperatur -0.70 -2.19 96.60
92288 2023-03-15 21:49:37 Bahnzimmer 17.90 16.89 43.80
92287 2023-03-15 21:38:00 Terrasse 2.20 0.06 60.80
92286 2023-03-15 21:28:00 Aussentemperatur -0.20 -1.67 95.70
92285 2023-03-15 21:19:36 Bahnzimmer 17.80 16.79 44.10
92284 2023-03-15 21:09:46 Terrasse 2.50 0.37 60.10
92283 2023-03-15 20:59:51 Aussentemperatur 0.10 -1.34 95.40
92282 2023-03-15 20:49:35 Bahnzimmer 18.00 17.01 44.10
92281 2023-03-15 20:41:32 Terrasse 2.90 0.79 59.10
92280 2023-03-15 20:31:42 Aussentemperatur 0.50 -0.91 95.00
92279 2023-03-15 20:19:35 Bahnzimmer 18.00 17.00 43.80
92278 2023-03-15 20:13:18 Terrasse 3.30 1.21 58.20
92277 2023-03-15 20:03:33 Aussentemperatur 0.80 -0.59 94.80
92276 2023-03-15 19:49:34 Bahnzimmer 18.00 17.00 43.90
92275 2023-03-15 19:45:05 Terrasse 3.70 1.64 58.10
92274 2023-03-15 19:35:25 Aussentemperatur 1.50 0.16 94.00
92273 2023-03-15 19:19:33 Bahnzimmer 18.10 17.11 43.90
92272 2023-03-15 19:16:52 Terrasse 4.10 2.04 56.60
92271 2023-03-15 19:07:17 Aussentemperatur 2.20 0.91 93.10
92270 2023-03-15 18:49:33 Bahnzimmer 18.40 17.43 43.50
92269 2023-03-15 18:48:42 Terrasse 5.20 3.16 53.10
92268 2023-03-15 18:39:11 Aussentemperatur 3.50 2.33 92.80
92267 2023-03-15 18:20:32 Terrasse 6.20 4.15 49.00
92266 2023-03-15 18:19:32 Bahnzimmer 18.60 17.66 43.90
92265 2023-03-15 18:11:08 Aussentemperatur 5.00 3.98 92.90
92264 2023-03-15 17:52:20 Terrasse 7.10 5.10 47.40
92263 2023-03-15 17:49:31 Bahnzimmer 18.70 17.77 43.80
92262 2023-03-15 17:43:05 Aussentemperatur 6.90 6.03 91.20
92261 2023-03-15 17:24:08 Terrasse 8.00 6.04 45.50
92260 2023-03-15 17:19:31 Bahnzimmer 18.90 17.99 43.80
92259 2023-03-15 17:14:58 Aussentemperatur 7.80 7.02 91.20
92258 2023-03-15 16:56:01 Terrasse 9.60 7.77 44.20
92257 2023-03-15 16:49:30 Bahnzimmer 19.20 18.31 43.50
92256 2023-03-15 16:46:57 Aussentemperatur 9.20 8.47 87.70
92255 2023-03-15 16:27:46 Terrasse 12.30 10.69 42.30
92254 2023-03-15 16:19:30 Bahnzimmer 19.30 18.41 43.00
92253 2023-03-15 16:18:50 Aussentemperatur 10.10 9.38 85.00
92252 2023-03-15 15:59:35 Terrasse 12.70 11.07 40.00
92251 2023-03-15 15:50:45 Aussentemperatur 11.10 10.39 81.50
92250 2023-03-15 15:49:29 Bahnzimmer 19.30 18.39 42.20
92249 2023-03-15 15:31:32 Terrasse 14.40 12.96 40.90
92248 2023-03-15 15:22:49 Aussentemperatur 13.40 12.75 75.00
92247 2023-03-15 15:19:28 Bahnzimmer 19.60 18.71 42.10
92246 2023-03-15 15:03:30 Terrasse 18.20 17.11 39.70
92245 2023-03-15 14:54:52 Aussentemperatur 17.30 16.72 62.50
92244 2023-03-15 14:49:27 Bahnzimmer 19.20 18.28 42.40
92243 2023-03-15 14:35:00 Terrasse 17.40 16.21 39.00
92242 2023-03-15 14:27:11 Aussentemperatur 35.50 37.94 39.30
92241 2023-03-15 14:19:27 Bahnzimmer 18.40 17.38 41.50
92240 2023-03-15 14:06:38 Terrasse 13.50 12.12 46.50
92239 2023-03-15 13:58:45 Aussentemperatur 34.00 35.28 39.40
92238 2023-03-15 13:49:26 Bahnzimmer 19.10 18.20 43.50
92237 2023-03-15 13:38:10 Terrasse 14.30 13.06 48.70
92236 2023-03-15 13:29:52 Aussentemperatur 25.50 25.46 52.00
92235 2023-03-15 13:19:25 Bahnzimmer 19.00 18.12 44.60
92234 2023-03-15 13:09:44 Terrasse 11.30 9.90 54.20
92233 2023-03-15 13:00:49 Aussentemperatur 17.60 17.23 69.60
92232 2023-03-15 12:41:36 Terrasse 11.00 9.58 54.60
92231 2023-03-15 12:33:29 Aussentemperatur 27.10 27.55 50.60
92230 2023-03-15 12:19:19 Bahnzimmer 18.00 16.98 43.10
92229 2023-03-15 12:13:31 Terrasse 11.40 9.98 53.10
92228 2023-03-15 12:05:31 Aussentemperatur 26.50 26.69 44.10
92227 2023-03-15 11:49:19 Bahnzimmer 19.00 18.14 45.20
92226 2023-03-15 11:45:07 Terrasse 9.80 8.41 60.30
92225 2023-03-15 11:36:49 Aussentemperatur 20.00 19.58 58.30
92224 2023-03-15 11:19:18 Bahnzimmer 19.10 18.24 44.80
92223 2023-03-15 11:15:56 Terrasse 4.10 2.54 75.70
92222 2023-03-15 11:08:07 Aussentemperatur 5.50 4.35 85.90
92221 2023-03-15 10:49:17 Bahnzimmer 19.00 18.09 43.50
92220 2023-03-15 10:47:35 Terrasse 3.00 1.33 75.70
92219 2023-03-15 10:39:47 Aussentemperatur 3.90 2.60 86.40
92218 2023-03-15 10:19:17 Bahnzimmer 18.90 18.04 45.70
92217 2023-03-15 10:19:16 Terrasse 2.20 0.48 76.90
92216 2023-03-15 10:11:32 Aussentemperatur 3.20 1.82 85.80
92215 2023-03-15 09:50:54 Terrasse 1.20 -0.56 79.20
92214 2023-03-15 09:49:16 Bahnzimmer 19.00 18.15 45.80
92213 2023-03-15 09:43:08 Aussentemperatur 0.20 -1.40 89.00
92212 2023-03-15 09:22:39 Terrasse 1.00 -0.81 78.10
92211 2023-03-15 09:19:15 Bahnzimmer 18.90 18.04 45.80
92210 2023-03-15 09:14:59 Aussentemperatur 0.20 -1.42 88.40
92209 2023-03-15 08:54:23 Terrasse 1.00 -0.81 77.90
92208 2023-03-15 08:49:15 Bahnzimmer 18.70 17.78 44.40
92207 2023-03-15 08:46:48 Aussentemperatur 0.30 -1.32 87.90
92206 2023-03-15 08:26:06 Terrasse 0.70 -1.11 78.90
92205 2023-03-15 08:19:14 Bahnzimmer 18.90 18.00 44.30
92204 2023-03-15 08:18:29 Aussentemperatur -0.90 -2.62 88.70
92203 2023-03-15 07:57:53 Terrasse 0.60 -1.24 78.30
92202 2023-03-15 07:50:19 Aussentemperatur -1.00 -2.73 88.80
92201 2023-03-15 07:49:13 Bahnzimmer 18.70 17.76 43.30
92200 2023-03-15 07:29:39 Terrasse 0.80 -1.01 78.70
92199 2023-03-15 07:22:08 Aussentemperatur -1.30 -3.05 89.00
92198 2023-03-15 07:19:13 Bahnzimmer 18.50 17.58 45.00
92197 2023-03-15 07:01:24 Terrasse 0.80 -1.03 78.00
92196 2023-03-15 06:53:57 Aussentemperatur -1.30 -3.05 89.10
92195 2023-03-15 06:49:12 Bahnzimmer 18.50 17.58 45.00
92194 2023-03-15 06:33:09 Terrasse 0.90 -0.98 75.70
92193 2023-03-15 06:25:48 Aussentemperatur -1.00 -2.72 89.00
92192 2023-03-15 06:19:11 Bahnzimmer 18.40 17.48 45.30
92191 2023-03-15 06:04:53 Terrasse 0.80 -1.12 74.30
92190 2023-03-15 05:57:37 Aussentemperatur -1.50 -3.25 89.60
92189 2023-03-15 05:49:11 Bahnzimmer 18.70 17.80 45.00
92188 2023-03-15 05:36:37 Terrasse 0.70 -1.24 73.90
92187 2023-03-15 05:29:25 Aussentemperatur -1.70 -3.47 89.60
92186 2023-03-15 05:19:10 Bahnzimmer 18.70 17.79 44.70
92185 2023-03-15 05:08:21 Terrasse 0.50 -1.44 74.70
92184 2023-03-15 05:01:13 Aussentemperatur -1.80 -3.57 90.00
92183 2023-03-15 04:49:09 Bahnzimmer 18.20 17.27 45.80
92182 2023-03-15 04:40:06 Terrasse 0.40 -1.55 74.80
92181 2023-03-15 04:33:02 Aussentemperatur -2.10 -3.90 90.30
92180 2023-03-15 04:19:09 Bahnzimmer 17.90 16.95 46.10
92179 2023-03-15 04:11:53 Terrasse 0.60 -1.35 74.00
92178 2023-03-15 04:04:50 Aussentemperatur -2.40 -4.21 91.00
92177 2023-03-15 03:49:08 Bahnzimmer 17.80 16.84 46.20
92176 2023-03-15 03:43:39 Terrasse 0.80 -1.13 74.20
92175 2023-03-15 03:36:41 Aussentemperatur -2.30 -4.10 91.10
92174 2023-03-15 03:19:07 Bahnzimmer 17.80 16.85 46.50
92173 2023-03-15 03:15:23 Terrasse 0.80 -1.12 74.30
92172 2023-03-15 03:08:31 Aussentemperatur -2.20 -3.98 91.40
92171 2023-03-15 02:49:07 Bahnzimmer 17.80 16.85 46.60
92170 2023-03-15 02:47:09 Terrasse 1.10 -0.82 73.20
92169 2023-03-15 02:40:23 Aussentemperatur -1.60 -3.32 91.30
92168 2023-03-15 02:19:06 Bahnzimmer 17.80 16.85 46.50
92167 2023-03-15 02:18:54 Terrasse 1.40 -0.51 72.40
92166 2023-03-15 02:12:15 Aussentemperatur -1.30 -2.99 91.50
92165 2023-03-15 01:50:42 Terrasse 1.70 -0.20 71.90
92164 2023-03-15 01:49:05 Bahnzimmer 17.80 16.86 46.90
92163 2023-03-15 01:44:05 Aussentemperatur -1.00 -2.66 91.50
92162 2023-03-15 01:22:27 Terrasse 2.10 0.22 70.90
92161 2023-03-15 01:19:05 Bahnzimmer 17.80 16.86 47.00
92160 2023-03-15 01:15:58 Aussentemperatur -0.30 -1.89 91.50
92159 2023-03-15 00:54:13 Terrasse 2.40 0.58 72.10
92158 2023-03-15 00:49:04 Bahnzimmer 18.00 17.08 47.00
92157 2023-03-15 00:47:49 Aussentemperatur 0.10 -1.45 91.40
92156 2023-03-15 00:25:59 Terrasse 2.80 1.06 73.60
92155 2023-03-15 00:19:39 Aussentemperatur 0.60 -0.90 91.30
92154 2023-03-15 00:19:03 Bahnzimmer 18.20 17.30 47.00
92153 2023-03-14 23:57:44 Terrasse 3.00 1.30 74.60
92152 2023-03-14 23:51:30 Aussentemperatur 1.00 -0.46 91.20
92151 2023-03-14 23:49:03 Bahnzimmer 18.50 17.63 46.80
92150 2023-03-14 23:29:28 Terrasse 3.30 1.65 75.10
92149 2023-03-14 23:23:20 Aussentemperatur 1.20 -0.24 91.20
92148 2023-03-14 23:19:02 Bahnzimmer 18.90 18.06 46.40
92147 2023-03-14 23:01:13 Terrasse 3.50 1.87 75.20
92146 2023-03-14 22:55:08 Aussentemperatur 1.30 -0.13 91.20
92145 2023-03-14 22:49:01 Bahnzimmer 18.90 18.06 46.40
92144 2023-03-14 22:32:57 Terrasse 3.60 1.97 74.80
92143 2023-03-14 22:26:57 Aussentemperatur 1.40 -0.02 91.50
92142 2023-03-14 22:19:01 Bahnzimmer 18.90 18.06 46.40
92141 2023-03-14 22:04:40 Terrasse 3.50 1.84 74.20
92140 2023-03-14 21:58:46 Aussentemperatur 1.10 -0.34 91.60
92139 2023-03-14 21:49:00 Bahnzimmer 18.80 17.95 46.50
92138 2023-03-14 21:36:24 Terrasse 3.50 1.82 73.40
92137 2023-03-14 21:30:35 Aussentemperatur 1.20 -0.24 91.50
92136 2023-03-14 21:18:59 Bahnzimmer 18.80 17.95 46.60
92135 2023-03-14 21:08:07 Terrasse 3.40 1.72 73.80
92134 2023-03-14 21:02:24 Aussentemperatur 1.10 -0.34 91.60
92133 2023-03-14 20:48:59 Bahnzimmer 18.70 17.84 46.70
92132 2023-03-14 20:39:50 Terrasse 3.30 1.65 75.10
92131 2023-03-14 20:34:13 Aussentemperatur 1.10 -0.33 91.90
92130 2023-03-14 20:18:58 Bahnzimmer 18.80 17.96 46.80
92129 2023-03-14 20:11:33 Terrasse 3.40 1.76 75.30
92128 2023-03-14 20:06:01 Aussentemperatur 1.00 -0.44 92.20
92127 2023-03-14 19:48:57 Bahnzimmer 18.80 17.96 46.80
92126 2023-03-14 19:43:19 Terrasse 3.50 1.85 74.40
92125 2023-03-14 19:37:49 Aussentemperatur 1.00 -0.43 92.50
92124 2023-03-14 19:18:57 Bahnzimmer 18.90 18.07 46.90
92123 2023-03-14 19:15:02 Terrasse 3.70 2.07 74.60
92122 2023-03-14 19:09:40 Aussentemperatur 1.30 -0.09 92.70
92121 2023-03-14 18:48:56 Bahnzimmer 19.20 18.39 46.50
92120 2023-03-14 18:46:47 Terrasse 3.90 2.35 76.90
92119 2023-03-14 18:41:32 Aussentemperatur 1.80 0.47 93.10
92118 2023-03-14 18:18:55 Bahnzimmer 18.70 17.84 46.60
92117 2023-03-14 18:18:33 Terrasse 4.20 2.65 75.60
92116 2023-03-14 18:13:31 Aussentemperatur 2.10 0.82 94.10
92115 2023-03-14 17:50:19 Terrasse 4.50 2.98 75.70
92114 2023-03-14 17:48:55 Bahnzimmer 18.60 17.74 47.00
92113 2023-03-14 17:45:23 Aussentemperatur 2.80 1.60 94.20
92112 2023-03-14 17:22:06 Terrasse 5.40 3.96 75.10
92111 2023-03-14 17:18:54 Bahnzimmer 18.60 17.76 47.50
92110 2023-03-14 17:17:16 Aussentemperatur 3.90 2.82 94.80
92109 2023-03-14 16:53:52 Terrasse 5.80 4.36 73.70
92108 2023-03-14 16:49:12 Aussentemperatur 5.20 4.25 94.70
92107 2023-03-14 16:48:53 Bahnzimmer 18.50 17.65 47.50
92106 2023-03-14 16:25:36 Terrasse 6.10 4.68 73.20
92105 2023-03-14 16:21:00 Aussentemperatur 5.50 4.59 95.20
92104 2023-03-14 16:18:53 Bahnzimmer 18.50 17.65 47.60
92103 2023-03-14 15:57:26 Terrasse 7.00 5.64 72.30
92102 2023-03-14 15:52:49 Aussentemperatur 6.40 5.60 95.80
92101 2023-03-14 15:48:52 Bahnzimmer 18.60 17.77 47.90
92100 2023-03-14 15:29:15 Terrasse 8.90 7.67 69.90
92099 2023-03-14 15:24:34 Aussentemperatur 7.80 7.07 93.10
92098 2023-03-14 15:18:51 Bahnzimmer 18.60 17.77 48.00
92097 2023-03-14 15:01:13 Terrasse 9.60 8.29 64.30
92096 2023-03-14 14:56:24 Aussentemperatur 10.00 9.48 92.90
92095 2023-03-14 14:32:51 Terrasse 10.90 9.71 63.60
92094 2023-03-14 14:28:47 Aussentemperatur 18.10 18.02 78.70
92093 2023-03-14 14:18:45 Bahnzimmer 18.20 17.36 49.10
92092 2023-03-14 14:04:26 Terrasse 8.90 7.75 73.00
92091 2023-03-14 14:00:23 Aussentemperatur 12.50 12.06 86.30
92090 2023-03-14 13:48:44 Bahnzimmer 17.80 16.92 49.10
92089 2023-03-14 13:36:05 Terrasse 8.60 7.47 75.00
92088 2023-03-14 13:32:11 Aussentemperatur 12.50 11.98 83.20
92087 2023-03-14 13:18:44 Bahnzimmer 17.80 16.91 48.80
92086 2023-03-14 13:07:44 Terrasse 7.80 6.69 78.60
92085 2023-03-14 13:03:43 Aussentemperatur 7.30 6.50 92.60
92084 2023-03-14 12:48:43 Bahnzimmer 17.80 16.92 49.10
92083 2023-03-14 12:39:26 Terrasse 8.60 7.70 83.50
92082 2023-03-14 12:35:34 Aussentemperatur 8.30 7.59 92.10
92081 2023-03-14 12:18:40 Bahnzimmer 17.80 16.91 49.00
92080 2023-03-14 12:11:09 Terrasse 8.60 7.69 83.20
92079 2023-03-14 12:07:21 Aussentemperatur 8.10 7.38 92.40
92078 2023-03-14 11:42:50 Terrasse 8.50 7.57 82.80
92077 2023-03-14 11:39:10 Aussentemperatur 8.20 7.48 92.10
92076 2023-03-14 11:18:34 Bahnzimmer 18.50 17.67 48.50
92075 2023-03-14 11:14:32 Terrasse 8.50 7.56 82.70
92074 2023-03-14 11:10:59 Aussentemperatur 8.10 7.37 91.90
92073 2023-03-14 10:48:34 Bahnzimmer 18.00 17.13 48.70
92072 2023-03-14 10:46:14 Terrasse 8.50 7.55 82.00
92071 2023-03-14 10:42:45 Aussentemperatur 8.10 7.36 91.70
92070 2023-03-14 10:18:33 Bahnzimmer 18.10 17.23 48.40
92069 2023-03-14 10:17:55 Terrasse 8.30 7.29 80.70
92068 2023-03-14 10:14:33 Aussentemperatur 7.80 7.04 92.00
92067 2023-03-14 09:49:36 Terrasse 8.20 7.16 79.70
92066 2023-03-14 09:48:32 Bahnzimmer 18.00 17.12 48.40
92065 2023-03-14 09:46:20 Aussentemperatur 7.80 7.03 91.60
92064 2023-03-14 09:21:17 Terrasse 8.10 7.04 79.50
92063 2023-03-14 09:18:32 Bahnzimmer 18.10 17.21 47.70
92062 2023-03-14 09:18:06 Aussentemperatur 7.40 6.60 91.90
92061 2023-03-14 08:52:58 Terrasse 8.00 6.92 78.90
92060 2023-03-14 08:49:55 Aussentemperatur 7.20 6.38 91.90
92059 2023-03-14 08:48:31 Bahnzimmer 18.20 17.32 47.50
92058 2023-03-14 08:24:40 Terrasse 7.90 6.79 78.40
92057 2023-03-14 08:21:42 Aussentemperatur 7.20 6.38 92.00
92056 2023-03-14 08:18:30 Bahnzimmer 18.30 17.42 47.40
92055 2023-03-14 07:56:23 Terrasse 8.00 6.89 78.10
92054 2023-03-14 07:53:29 Aussentemperatur 7.00 6.16 92.00
92053 2023-03-14 07:48:30 Bahnzimmer 18.40 17.54 47.50
92052 2023-03-14 07:28:05 Terrasse 8.00 6.89 78.00
92051 2023-03-14 07:25:18 Aussentemperatur 6.90 6.05 92.00
92050 2023-03-14 06:59:47 Terrasse 8.00 6.89 78.00
92049 2023-03-14 06:57:07 Aussentemperatur 7.00 6.16 92.00
92048 2023-03-14 06:48:23 Bahnzimmer 18.60 17.75 47.20
92047 2023-03-14 06:31:31 Terrasse 8.00 6.89 78.10
92046 2023-03-14 06:28:54 Aussentemperatur 7.00 6.16 92.10
92045 2023-03-14 06:18:23 Bahnzimmer 18.50 17.64 47.40
92044 2023-03-14 06:03:15 Terrasse 8.10 7.01 78.40
92043 2023-03-14 06:00:43 Aussentemperatur 7.00 6.16 92.10
92042 2023-03-14 05:48:22 Bahnzimmer 18.40 17.53 47.20
92041 2023-03-14 05:34:57 Terrasse 8.10 7.03 78.90
92040 2023-03-14 05:32:30 Aussentemperatur 6.90 6.05 92.20
92039 2023-03-14 05:18:21 Bahnzimmer 18.00 17.10 47.70
92038 2023-03-14 05:06:38 Terrasse 8.10 7.05 79.70
92037 2023-03-14 05:04:17 Aussentemperatur 6.80 5.95 92.50
92036 2023-03-14 04:48:21 Bahnzimmer 17.50 16.57 48.40
92035 2023-03-14 04:38:22 Terrasse 8.30 7.27 79.90
92034 2023-03-14 04:36:08 Aussentemperatur 7.10 6.27 92.10
92033 2023-03-14 04:18:20 Bahnzimmer 17.50 16.57 48.50
92032 2023-03-14 04:10:04 Terrasse 8.30 7.25 78.90
92031 2023-03-14 04:07:57 Aussentemperatur 7.30 6.49 92.20
92030 2023-03-14 03:48:19 Bahnzimmer 17.50 16.57 48.50
92029 2023-03-14 03:41:45 Terrasse 8.30 7.26 79.30
92028 2023-03-14 03:39:45 Aussentemperatur 7.20 6.39 92.50
92027 2023-03-14 03:18:19 Bahnzimmer 17.60 16.68 48.50
92026 2023-03-14 03:13:29 Terrasse 8.40 7.35 78.70
92025 2023-03-14 03:11:35 Aussentemperatur 7.50 6.71 92.20
92024 2023-03-14 02:45:11 Terrasse 8.50 7.46 78.60
92023 2023-03-14 02:43:24 Aussentemperatur 7.50 6.71 92.20
92022 2023-03-14 02:18:13 Bahnzimmer 17.80 16.90 48.60
92021 2023-03-14 02:16:54 Terrasse 8.40 7.36 79.10
92020 2023-03-14 02:15:12 Aussentemperatur 7.50 6.72 92.40
92019 2023-03-14 01:48:35 Terrasse 8.50 7.48 79.50
92018 2023-03-14 01:48:12 Bahnzimmer 17.90 17.01 48.60
92017 2023-03-14 01:47:00 Aussentemperatur 7.50 6.71 92.20
92016 2023-03-14 01:20:17 Terrasse 8.50 7.50 80.30
92015 2023-03-14 01:18:48 Aussentemperatur 7.50 6.71 92.20
92014 2023-03-14 01:18:11 Bahnzimmer 18.00 17.12 48.60
92013 2023-03-14 00:51:58 Terrasse 8.40 7.40 80.50
92012 2023-03-14 00:50:35 Aussentemperatur 7.40 6.61 92.40
92011 2023-03-14 00:48:11 Bahnzimmer 18.20 17.34 48.30
92010 2023-03-14 00:23:42 Terrasse 8.40 7.39 80.40
92009 2023-03-14 00:22:23 Aussentemperatur 7.40 6.61 92.40
92008 2023-03-14 00:18:10 Bahnzimmer 18.30 17.45 48.50
92007 2023-03-13 23:55:24 Terrasse 8.40 7.39 80.30
92006 2023-03-13 23:54:12 Aussentemperatur 7.20 6.39 92.50
92005 2023-03-13 23:48:09 Bahnzimmer 18.40 17.56 48.60
92004 2023-03-13 23:27:04 Terrasse 8.40 7.38 80.00
92003 2023-03-13 23:25:59 Aussentemperatur 7.10 6.29 92.90
92002 2023-03-13 23:18:09 Bahnzimmer 18.70 17.88 48.00
92001 2023-03-13 22:58:46 Terrasse 8.30 7.29 80.70
92000 2023-03-13 22:57:47 Aussentemperatur 6.70 5.87 93.80
91999 2023-03-13 22:48:08 Bahnzimmer 18.80 17.99 48.10
91998 2023-03-13 22:30:29 Terrasse 8.60 7.64 81.20
91997 2023-03-13 22:29:37 Aussentemperatur 6.80 6.00 94.20
91996 2023-03-13 22:18:07 Bahnzimmer 18.80 17.99 48.20
91995 2023-03-13 22:02:13 Terrasse 9.00 8.06 80.50
91994 2023-03-13 22:01:29 Aussentemperatur 7.50 6.75 93.80
91993 2023-03-13 21:48:07 Bahnzimmer 18.80 18.01 48.70
91992 2023-03-13 21:33:55 Terrasse 9.40 8.50 80.60
91991 2023-03-13 21:33:20 Aussentemperatur 8.10 7.40 93.40
91990 2023-03-13 21:18:06 Bahnzimmer 18.90 18.11 48.40
91989 2023-03-13 21:05:39 Terrasse 9.70 8.84 81.00
91988 2023-03-13 21:05:10 Aussentemperatur 8.50 7.84 93.20
91987 2023-03-13 20:48:05 Bahnzimmer 18.80 18.02 49.10
91986 2023-03-13 20:37:23 Terrasse 9.90 9.10 82.60
91985 2023-03-13 20:37:00 Aussentemperatur 8.80 8.16 93.00
91984 2023-03-13 20:18:05 Bahnzimmer 18.70 17.92 49.50
91983 2023-03-13 20:09:04 Terrasse 10.00 9.26 84.40
91982 2023-03-13 20:08:49 Aussentemperatur 9.10 8.49 92.90
91981 2023-03-13 19:48:04 Bahnzimmer 18.70 17.91 49.30
91980 2023-03-13 19:40:46 Terrasse 9.90 9.15 84.60
91979 2023-03-13 19:40:36 Aussentemperatur 9.00 8.39 93.30
91978 2023-03-13 19:18:03 Bahnzimmer 18.50 17.71 50.00
91977 2023-03-13 19:12:29 Terrasse 10.00 9.23 83.40
91976 2023-03-13 19:12:26 Aussentemperatur 9.00 8.39 93.40
91975 2023-03-13 18:48:03 Bahnzimmer 18.30 17.49 49.80
91974 2023-03-13 18:44:15 Aussentemperatur 9.20 8.62 93.50
91973 2023-03-13 18:44:13 Terrasse 10.10 9.34 83.10
91972 2023-03-13 18:18:02 Bahnzimmer 18.50 17.71 49.90
91971 2023-03-13 18:16:06 Aussentemperatur 9.70 9.16 93.30
91970 2023-03-13 18:15:56 Terrasse 10.40 9.67 83.10
91969 2023-03-13 17:48:01 Bahnzimmer 18.70 17.93 50.00
91968 2023-03-13 17:47:56 Aussentemperatur 10.10 9.60 93.20
91967 2023-03-13 17:47:40 Terrasse 10.60 9.87 82.70
91966 2023-03-13 17:19:44 Aussentemperatur 10.50 10.02 92.40
91965 2023-03-13 17:19:22 Terrasse 10.70 9.98 82.60
91964 2023-03-13 17:18:01 Bahnzimmer 18.90 18.14 49.40
91963 2023-03-13 16:51:33 Aussentemperatur 9.70 9.18 93.90
91962 2023-03-13 16:51:04 Terrasse 10.70 9.98 82.70
91961 2023-03-13 16:48:00 Bahnzimmer 19.00 18.25 49.50
91960 2023-03-13 16:23:23 Aussentemperatur 10.10 9.63 94.20
91959 2023-03-13 16:22:49 Terrasse 11.10 10.38 80.80
91958 2023-03-13 16:17:59 Bahnzimmer 19.20 18.46 49.10
91957 2023-03-13 15:55:15 Aussentemperatur 11.10 10.72 93.90
91956 2023-03-13 15:54:33 Terrasse 11.70 11.06 81.90
91955 2023-03-13 15:47:59 Bahnzimmer 19.20 18.49 50.20
91954 2023-03-13 15:27:09 Aussentemperatur 12.80 12.55 92.40
91953 2023-03-13 15:26:18 Terrasse 12.30 11.68 80.30
91952 2023-03-13 15:17:58 Bahnzimmer 19.10 18.37 49.80
91951 2023-03-13 14:59:02 Aussentemperatur 14.00 13.80 89.90
91950 2023-03-13 14:58:04 Terrasse 12.90 12.32 79.50
91949 2023-03-13 14:47:57 Bahnzimmer 18.90 18.17 50.90
91948 2023-03-13 14:30:23 Aussentemperatur 11.50 11.08 91.10
91947 2023-03-13 14:29:34 Terrasse 10.90 10.24 83.90
91946 2023-03-13 14:17:57 Bahnzimmer 18.30 17.58 53.40
91945 2023-03-13 14:02:02 Aussentemperatur 10.10 9.57 92.20
91944 2023-03-13 14:01:14 Terrasse 10.40 9.70 84.60
91943 2023-03-13 13:47:56 Bahnzimmer 18.50 17.71 50.00
91942 2023-03-13 13:33:50 Aussentemperatur 10.00 9.47 92.40
91941 2023-03-13 13:32:54 Terrasse 10.30 9.59 84.50
91940 2023-03-13 13:17:55 Bahnzimmer 18.70 17.95 50.60
91939 2023-03-13 13:05:40 Aussentemperatur 10.40 9.90 91.90
91938 2023-03-13 13:04:38 Terrasse 10.40 9.70 84.30
91937 2023-03-13 12:47:55 Bahnzimmer 18.10 17.28 50.50
91936 2023-03-13 12:37:25 Aussentemperatur 10.50 10.01 92.10
91935 2023-03-13 12:36:19 Terrasse 10.30 9.60 85.00
91934 2023-03-13 12:17:54 Bahnzimmer 18.80 17.97 47.20
91933 2023-03-13 12:09:17 Aussentemperatur 10.90 10.43 91.40
91932 2023-03-13 12:08:01 Terrasse 10.50 9.82 85.00
91931 2023-03-13 11:47:53 Bahnzimmer 18.90 18.06 46.60
91930 2023-03-13 11:41:02 Aussentemperatur 11.00 10.52 90.70
91929 2023-03-13 11:39:41 Terrasse 10.30 9.58 84.20
91928 2023-03-13 11:17:53 Bahnzimmer 18.80 17.96 47.00
91927 2023-03-13 11:12:42 Aussentemperatur 10.10 9.55 91.40
91926 2023-03-13 11:11:21 Terrasse 10.00 9.25 83.90
91925 2023-03-13 10:47:52 Bahnzimmer 18.70 17.85 46.90
91924 2023-03-13 10:44:30 Aussentemperatur 10.20 9.65 90.90
91923 2023-03-13 10:43:02 Terrasse 9.90 9.15 84.40
91922 2023-03-13 10:17:51 Bahnzimmer 18.80 17.95 46.70
91921 2023-03-13 10:16:19 Aussentemperatur 10.30 9.74 90.20
91920 2023-03-13 10:14:44 Terrasse 9.80 9.06 85.20
91919 2023-03-13 09:48:07 Aussentemperatur 9.80 9.18 89.90
91918 2023-03-13 09:47:51 Bahnzimmer 18.70 17.83 46.30
91917 2023-03-13 09:46:28 Terrasse 9.60 8.84 85.20
91916 2023-03-13 09:19:48 Aussentemperatur 8.80 8.10 90.70
91915 2023-03-13 09:18:05 Terrasse 9.00 8.19 85.70
91914 2023-03-13 09:17:50 Bahnzimmer 18.70 17.84 46.50
91913 2023-03-13 08:51:35 Aussentemperatur 8.60 7.87 90.20
91912 2023-03-13 08:49:46 Terrasse 8.90 8.08 85.40
91911 2023-03-13 08:47:49 Bahnzimmer 18.60 17.66 44.00
91910 2023-03-13 08:23:20 Aussentemperatur 8.20 7.43 90.20
91909 2023-03-13 08:21:26 Terrasse 8.50 7.67 86.60
91908 2023-03-13 08:17:49 Bahnzimmer 18.90 18.00 44.40
91907 2023-03-13 07:55:05 Aussentemperatur 7.50 6.66 90.10
91906 2023-03-13 07:53:06 Terrasse 8.20 7.31 85.60
91905 2023-03-13 07:47:48 Bahnzimmer 19.00 18.10 44.00
91904 2023-03-13 07:26:51 Aussentemperatur 7.20 6.33 90.20
91903 2023-03-13 07:24:46 Terrasse 7.80 6.88 86.00
91902 2023-03-13 07:17:47 Bahnzimmer 18.60 17.64 43.20
91901 2023-03-13 06:58:37 Aussentemperatur 6.90 6.00 90.10
91900 2023-03-13 06:56:25 Terrasse 7.50 6.52 84.80
91899 2023-03-13 06:47:47 Bahnzimmer 18.60 17.63 42.80
91898 2023-03-13 06:30:24 Aussentemperatur 6.50 5.56 90.10
91897 2023-03-13 06:28:07 Terrasse 7.20 6.17 83.90
91896 2023-03-13 06:17:46 Bahnzimmer 18.50 17.52 42.60
91895 2023-03-13 06:02:11 Aussentemperatur 6.10 5.12 90.00
91894 2023-03-13 05:59:47 Terrasse 7.00 5.95 84.00
91893 2023-03-13 05:47:45 Bahnzimmer 18.30 17.29 42.30
91892 2023-03-13 05:33:57 Aussentemperatur 5.80 4.79 90.10
91891 2023-03-13 05:31:30 Terrasse 6.80 5.68 82.30
91890 2023-03-13 05:17:45 Bahnzimmer 18.10 17.07 42.40
91889 2023-03-13 05:05:45 Aussentemperatur 5.50 4.46 90.10
91888 2023-03-13 05:03:12 Terrasse 6.70 5.52 80.20
91887 2023-03-13 04:47:44 Bahnzimmer 17.50 16.43 43.00
91886 2023-03-13 04:37:32 Aussentemperatur 5.30 4.24 90.20
91885 2023-03-13 04:34:54 Terrasse 6.60 5.34 77.50
91884 2023-03-13 04:17:43 Bahnzimmer 17.60 16.54 42.90
91883 2023-03-13 04:09:19 Aussentemperatur 5.30 4.24 90.00
91882 2023-03-13 04:06:38 Terrasse 6.60 5.30 76.10
91881 2023-03-13 03:47:43 Bahnzimmer 17.60 16.54 43.10
91880 2023-03-13 03:41:05 Aussentemperatur 5.10 4.02 90.10
91879 2023-03-13 03:38:20 Terrasse 6.50 5.20 76.20
91878 2023-03-13 03:17:42 Bahnzimmer 17.60 16.53 42.80
91877 2023-03-13 03:12:54 Aussentemperatur 5.00 3.90 89.80
91876 2023-03-13 03:10:03 Terrasse 6.40 5.08 75.90
91875 2023-03-13 02:47:41 Bahnzimmer 17.60 16.53 42.50
91874 2023-03-13 02:44:40 Aussentemperatur 4.70 3.57 89.90
91873 2023-03-13 02:41:44 Terrasse 6.10 4.74 75.80
91872 2023-03-13 02:17:41 Bahnzimmer 17.80 16.75 42.50
91871 2023-03-13 02:16:26 Aussentemperatur 4.30 3.14 90.20
91870 2023-03-13 02:13:25 Terrasse 5.70 4.30 75.70
91869 2023-03-13 01:48:12 Aussentemperatur 4.00 2.82 90.50
91868 2023-03-13 01:47:40 Bahnzimmer 17.80 16.75 42.50
91867 2023-03-13 01:45:08 Terrasse 5.60 4.19 75.70
91866 2023-03-13 01:20:02 Aussentemperatur 4.00 2.82 90.40
91865 2023-03-13 01:17:40 Bahnzimmer 18.00 16.97 42.50
91864 2023-03-13 01:16:51 Terrasse 5.60 4.18 75.30
91863 2023-03-13 00:51:51 Aussentemperatur 3.80 2.60 90.70
91862 2023-03-13 00:48:35 Terrasse 5.50 4.06 74.70
91861 2023-03-13 00:47:39 Bahnzimmer 18.10 17.08 42.70
91860 2023-03-13 00:23:38 Aussentemperatur 3.70 2.50 90.90
91859 2023-03-13 00:20:18 Terrasse 5.60 4.16 74.40
91858 2023-03-13 00:17:38 Bahnzimmer 18.30 17.30 42.50
91857 2023-03-12 23:55:28 Aussentemperatur 4.00 2.83 91.10
91856 2023-03-12 23:52:02 Terrasse 5.80 4.36 73.80
91855 2023-03-12 23:47:38 Bahnzimmer 18.60 17.61 41.90
91854 2023-03-12 23:27:17 Aussentemperatur 4.10 2.95 91.40
91853 2023-03-12 23:23:47 Terrasse 6.00 4.57 73.30
91852 2023-03-12 23:17:37 Bahnzimmer 18.50 17.50 42.00
91851 2023-03-12 22:59:08 Aussentemperatur 4.90 3.82 91.10
91850 2023-03-12 22:55:30 Terrasse 6.40 4.99 72.50
91849 2023-03-12 22:47:36 Bahnzimmer 18.50 17.50 41.90
91848 2023-03-12 22:30:58 Aussentemperatur 5.60 4.58 90.40
91847 2023-03-12 22:27:14 Terrasse 6.70 5.29 71.50
91846 2023-03-12 22:17:36 Bahnzimmer 18.50 17.50 41.90
91845 2023-03-12 22:02:47 Aussentemperatur 6.00 5.01 90.30
91844 2023-03-12 21:58:55 Terrasse 6.70 5.28 71.20
91843 2023-03-12 21:47:35 Bahnzimmer 18.50 17.50 42.00
91842 2023-03-12 21:34:35 Aussentemperatur 6.00 5.01 90.10
91841 2023-03-12 21:30:37 Terrasse 6.80 5.38 70.60
91840 2023-03-12 21:17:34 Bahnzimmer 18.50 17.51 42.20
91839 2023-03-12 21:06:22 Aussentemperatur 5.90 4.90 90.10
91838 2023-03-12 21:02:21 Terrasse 6.70 5.27 70.70
91837 2023-03-12 20:47:34 Bahnzimmer 18.90 17.94 42.10
91836 2023-03-12 20:38:10 Aussentemperatur 6.00 5.01 90.00
91835 2023-03-12 20:34:03 Terrasse 6.70 5.28 70.90
91834 2023-03-12 20:17:33 Bahnzimmer 18.90 17.94 42.00
91833 2023-03-12 20:09:57 Aussentemperatur 5.90 4.90 90.00
91832 2023-03-12 20:05:46 Terrasse 6.60 5.19 71.80
91831 2023-03-12 19:47:32 Bahnzimmer 18.40 17.39 41.90
91830 2023-03-12 19:41:45 Aussentemperatur 5.70 4.68 90.00
91829 2023-03-12 19:37:29 Terrasse 6.50 5.12 73.20
91828 2023-03-12 19:17:32 Bahnzimmer 18.30 17.27 41.60
91827 2023-03-12 19:13:34 Aussentemperatur 5.80 4.78 89.70
91826 2023-03-12 19:09:13 Terrasse 6.50 5.15 74.40
91825 2023-03-12 18:47:31 Bahnzimmer 18.30 17.27 41.70
91824 2023-03-12 18:45:21 Aussentemperatur 5.60 4.56 89.80
91823 2023-03-12 18:40:55 Terrasse 6.40 5.04 74.50
91822 2023-03-12 18:17:30 Bahnzimmer 18.30 17.28 41.80
91821 2023-03-12 18:17:11 Aussentemperatur 5.50 4.45 89.80
91820 2023-03-12 18:12:39 Terrasse 6.30 4.94 75.00
91819 2023-03-12 17:49:10 Aussentemperatur 6.00 4.99 89.30
91818 2023-03-12 17:47:30 Bahnzimmer 18.30 17.28 41.90
91817 2023-03-12 17:44:22 Terrasse 6.40 5.05 74.80
91816 2023-03-12 17:20:55 Aussentemperatur 5.90 4.88 89.30
91815 2023-03-12 17:17:29 Bahnzimmer 18.20 17.16 41.70
91814 2023-03-12 17:16:02 Terrasse 6.10 4.73 75.20
91813 2023-03-12 16:52:43 Aussentemperatur 5.70 4.65 89.00
91812 2023-03-12 16:47:42 Terrasse 5.80 4.43 76.20
91811 2023-03-12 16:47:28 Bahnzimmer 18.20 17.16 41.50
91810 2023-03-12 16:24:34 Aussentemperatur 5.80 4.73 88.00
91809 2023-03-12 16:19:22 Terrasse 5.30 3.85 75.30
91808 2023-03-12 16:17:28 Bahnzimmer 18.20 17.16 41.40
91807 2023-03-12 15:56:18 Aussentemperatur 4.50 3.32 88.70
91806 2023-03-12 15:51:04 Terrasse 4.70 3.20 75.50
91805 2023-03-12 15:47:27 Bahnzimmer 18.20 17.16 41.50
91804 2023-03-12 15:28:02 Aussentemperatur 3.80 2.57 89.40
91803 2023-03-12 15:22:46 Terrasse 4.40 2.86 75.10
91802 2023-03-12 15:17:26 Bahnzimmer 18.30 17.26 41.30
91801 2023-03-12 14:59:56 Aussentemperatur 4.30 3.11 89.10
91800 2023-03-12 14:54:30 Terrasse 4.20 2.63 74.70
91799 2023-03-12 14:47:26 Bahnzimmer 18.50 17.48 41.10
91798 2023-03-12 14:31:51 Aussentemperatur 5.00 3.85 87.90
91797 2023-03-12 14:26:10 Terrasse 4.20 2.60 73.70
91796 2023-03-12 14:17:25 Bahnzimmer 18.70 17.71 41.40
91795 2023-03-12 14:03:39 Aussentemperatur 4.90 3.68 85.50
91794 2023-03-12 13:57:56 Terrasse 3.90 2.25 73.10
91793 2023-03-12 13:47:24 Bahnzimmer 18.80 17.77 39.70
91792 2023-03-12 13:35:04 Aussentemperatur 2.00 0.56 88.20
91791 2023-03-12 13:29:33 Terrasse 2.40 0.65 74.70
91790 2023-03-12 13:17:23 Bahnzimmer 19.50 18.54 39.80
91789 2023-03-12 13:06:51 Aussentemperatur 1.50 0.01 88.10
91788 2023-03-12 13:01:16 Terrasse 1.90 0.10 74.70
91787 2023-03-12 12:47:23 Bahnzimmer 19.50 18.53 39.40
91786 2023-03-12 12:38:42 Aussentemperatur 1.60 0.10 87.60
91785 2023-03-12 12:33:00 Terrasse 1.70 -0.13 74.30
91784 2023-03-12 12:17:22 Bahnzimmer 19.00 17.97 38.70
91783 2023-03-12 12:10:37 Aussentemperatur 1.00 -0.55 87.90
91782 2023-03-12 12:04:42 Terrasse 1.40 -0.49 73.40
91781 2023-03-12 11:47:21 Bahnzimmer 18.70 17.61 37.90
91780 2023-03-12 11:42:35 Aussentemperatur 0.40 -1.21 88.00
91779 2023-03-12 11:36:25 Terrasse 1.20 -0.71 73.20
91778 2023-03-12 11:17:21 Bahnzimmer 19.30 18.34 40.50
91777 2023-03-12 11:14:18 Aussentemperatur -0.10 -1.74 88.50
91776 2023-03-12 11:08:08 Terrasse 1.00 -0.94 73.00
91775 2023-03-12 10:47:20 Bahnzimmer 19.50 18.57 40.60
91774 2023-03-12 10:46:09 Aussentemperatur -0.10 -1.76 88.00
91773 2023-03-12 10:39:52 Terrasse 1.00 -0.96 72.10
91772 2023-03-12 10:17:57 Aussentemperatur -0.30 -1.97 88.20
91771 2023-03-12 10:17:19 Bahnzimmer 19.70 18.78 40.30
91770 2023-03-12 10:11:36 Terrasse 0.90 -1.10 71.00
91769 2023-03-12 09:49:45 Aussentemperatur -0.60 -2.30 88.30
91768 2023-03-12 09:47:19 Bahnzimmer 19.70 18.77 40.10
91767 2023-03-12 09:43:21 Terrasse 0.80 -1.22 70.60
91766 2023-03-12 09:21:33 Aussentemperatur -0.70 -2.40 88.70
91765 2023-03-12 09:17:18 Bahnzimmer 19.50 18.56 40.30
91764 2023-03-12 09:15:05 Terrasse 0.60 -1.49 68.90
91763 2023-03-12 08:53:23 Aussentemperatur -0.60 -2.29 88.70
91762 2023-03-12 08:47:17 Bahnzimmer 19.50 18.55 40.10
91761 2023-03-12 08:46:50 Terrasse 0.80 -1.33 66.50
91760 2023-03-12 08:25:15 Aussentemperatur -0.30 -1.97 88.40
91759 2023-03-12 08:18:43 Terrasse 0.90 -1.35 61.60
91758 2023-03-12 08:17:17 Bahnzimmer 19.40 18.44 39.90
91757 2023-03-12 07:57:04 Aussentemperatur -0.50 -2.18 88.50
91756 2023-03-12 07:50:24 Terrasse 0.90 -1.36 61.00
91755 2023-03-12 07:47:16 Bahnzimmer 18.50 17.46 40.20
91754 2023-03-12 07:28:52 Aussentemperatur -0.70 -2.40 88.60
91753 2023-03-12 07:22:09 Terrasse 1.20 -1.14 57.00
91752 2023-03-12 07:17:15 Bahnzimmer 18.00 16.90 40.10
91751 2023-03-12 07:00:39 Aussentemperatur -0.80 -2.51 88.70
91750 2023-03-12 06:53:53 Terrasse 1.20 -1.13 57.30
91749 2023-03-12 06:47:15 Bahnzimmer 18.50 17.44 39.70
91748 2023-03-12 06:32:28 Aussentemperatur -1.00 -2.73 88.80
91747 2023-03-12 06:25:39 Terrasse 1.10 -1.24 57.10
91746 2023-03-12 06:17:14 Bahnzimmer 17.80 16.69 40.30
91745 2023-03-12 06:04:16 Aussentemperatur -1.20 -2.95 88.70
91744 2023-03-12 05:57:23 Terrasse 1.00 -1.30 59.10
91743 2023-03-12 05:47:13 Bahnzimmer 17.60 16.47 40.40
91742 2023-03-12 05:36:04 Aussentemperatur -1.40 -3.16 89.00
91741 2023-03-12 05:29:07 Terrasse 0.80 -1.49 60.40
91740 2023-03-12 05:17:13 Bahnzimmer 17.50 16.36 40.30
91739 2023-03-12 05:07:53 Aussentemperatur -1.70 -3.49 88.90
91738 2023-03-12 05:00:50 Terrasse 0.80 -1.51 59.70
91737 2023-03-12 04:47:12 Bahnzimmer 17.50 16.36 40.50
91736 2023-03-12 04:39:41 Aussentemperatur -2.10 -3.91 89.60
91735 2023-03-12 04:32:34 Terrasse 0.70 -1.62 59.70
91734 2023-03-12 04:17:11 Bahnzimmer 17.50 16.37 40.60
91733 2023-03-12 04:11:32 Aussentemperatur -2.10 -3.91 89.60
91732 2023-03-12 04:04:20 Terrasse 0.80 -1.51 59.70
91731 2023-03-12 03:47:11 Bahnzimmer 17.60 16.47 40.50
91730 2023-03-12 03:43:21 Aussentemperatur -1.90 -3.69 89.60
91729 2023-03-12 03:36:04 Terrasse 0.80 -1.49 60.30
91728 2023-03-12 03:17:10 Bahnzimmer 17.50 16.36 40.50
91727 2023-03-12 03:15:11 Aussentemperatur -1.90 -3.69 89.60
91726 2023-03-12 03:07:49 Terrasse 0.80 -1.50 60.10
91725 2023-03-12 02:47:09 Bahnzimmer 17.50 16.36 40.50
91724 2023-03-12 02:46:59 Aussentemperatur -2.00 -3.80 89.60
91723 2023-03-12 02:39:33 Terrasse 0.70 -1.61 60.00
91722 2023-03-12 02:18:48 Aussentemperatur -2.10 -3.91 89.60
91721 2023-03-12 02:17:09 Bahnzimmer 17.60 16.47 40.30
91720 2023-03-12 02:11:19 Terrasse 0.80 -1.50 59.80
91719 2023-03-12 01:50:37 Aussentemperatur -2.20 -4.01 90.00
91718 2023-03-12 01:47:08 Bahnzimmer 17.60 16.47 40.30
91717 2023-03-12 01:43:02 Terrasse 0.50 -1.83 59.80
91716 2023-03-12 01:22:25 Aussentemperatur -2.70 -4.55 90.60
91715 2023-03-12 01:17:07 Bahnzimmer 17.60 16.47 40.30
91714 2023-03-12 01:14:45 Terrasse 0.30 -2.06 59.70
91713 2023-03-12 00:54:16 Aussentemperatur -2.90 -4.77 90.70
91712 2023-03-12 00:47:07 Bahnzimmer 17.50 16.36 40.30
91711 2023-03-12 00:46:29 Terrasse 0.30 -2.07 59.30
91710 2023-03-12 00:26:07 Aussentemperatur -2.70 -4.55 90.60
91709 2023-03-12 00:18:15 Terrasse 0.50 -1.86 58.60
91708 2023-03-12 00:17:06 Bahnzimmer 17.80 16.69 40.30
91707 2023-03-11 23:57:56 Aussentemperatur -2.70 -4.53 91.40
91706 2023-03-11 23:49:59 Terrasse 0.40 -1.97 58.70
91705 2023-03-11 23:47:06 Bahnzimmer 18.10 17.01 40.00
91704 2023-03-11 23:29:46 Aussentemperatur -2.80 -4.64 91.50
91703 2023-03-11 23:21:46 Terrasse 0.60 -1.77 58.10
91702 2023-03-11 23:17:05 Bahnzimmer 18.10 17.00 39.70
91701 2023-03-11 23:01:36 Aussentemperatur -2.60 -4.41 91.70
91700 2023-03-11 22:53:31 Terrasse 0.70 -1.65 58.20
91699 2023-03-11 22:47:04 Bahnzimmer 18.10 17.00 39.80
91698 2023-03-11 22:33:27 Aussentemperatur -2.40 -4.18 92.10
91697 2023-03-11 22:25:15 Terrasse 0.80 -1.54 58.20
91696 2023-03-11 22:17:04 Bahnzimmer 18.10 17.00 39.60
91695 2023-03-11 22:05:37 Aussentemperatur -2.30 -4.06 92.40
91694 2023-03-11 21:57:01 Terrasse 1.10 -1.24 57.40
91693 2023-03-11 21:47:03 Bahnzimmer 18.00 16.89 39.80
91692 2023-03-11 21:37:22 Aussentemperatur -2.10 -3.83 92.70
91691 2023-03-11 21:28:47 Terrasse 1.30 -1.02 57.10
91690 2023-03-11 21:17:02 Bahnzimmer 18.10 17.00 39.60
91689 2023-03-11 21:09:12 Aussentemperatur -1.80 -3.49 93.20
91688 2023-03-11 21:00:34 Terrasse 1.50 -0.82 56.60
91687 2023-03-11 20:47:02 Bahnzimmer 18.10 17.00 39.70
91686 2023-03-11 20:41:03 Aussentemperatur -1.50 -3.15 93.70
91685 2023-03-11 20:32:21 Terrasse 1.90 -0.39 55.90
91684 2023-03-11 20:17:01 Bahnzimmer 18.20 17.11 39.60
91683 2023-03-11 20:12:54 Aussentemperatur -1.10 -2.70 94.00
91682 2023-03-11 20:04:07 Terrasse 2.20 -0.09 55.10
91681 2023-03-11 19:47:00 Bahnzimmer 18.90 17.88 39.60
91680 2023-03-11 19:44:57 Aussentemperatur -0.50 -2.02 94.70
91679 2023-03-11 19:35:54 Terrasse 2.50 0.21 53.90
91678 2023-03-11 19:16:59 Bahnzimmer 18.70 17.65 39.20
91677 2023-03-11 19:16:51 Aussentemperatur 0.00 -1.45 95.50
91676 2023-03-11 19:07:41 Terrasse 3.10 0.81 51.60
91675 2023-03-11 18:48:44 Aussentemperatur 1.00 -0.34 96.00
91674 2023-03-11 18:46:59 Bahnzimmer 18.20 17.09 38.70
91673 2023-03-11 18:39:30 Terrasse 3.70 1.39 48.60
91672 2023-03-11 18:20:40 Aussentemperatur 2.70 1.53 95.90
91671 2023-03-11 18:16:58 Bahnzimmer 18.30 17.19 38.40
91670 2023-03-11 18:11:17 Terrasse 4.30 2.02 47.40
91669 2023-03-11 17:52:43 Aussentemperatur 6.00 5.12 94.30
91668 2023-03-11 17:46:58 Bahnzimmer 18.40 17.28 37.90
91667 2023-03-11 17:43:04 Terrasse 5.20 2.98 46.30
91666 2023-03-11 17:24:47 Aussentemperatur 9.40 8.70 88.30
91665 2023-03-11 17:16:57 Bahnzimmer 18.30 17.17 37.60
91664 2023-03-11 17:14:50 Terrasse 5.50 3.30 45.90
91663 2023-03-11 16:56:24 Aussentemperatur 6.40 5.56 94.50
91662 2023-03-11 16:46:56 Bahnzimmer 18.20 17.06 37.60
91661 2023-03-11 16:46:44 Terrasse 7.20 5.10 43.20
91660 2023-03-11 16:28:14 Aussentemperatur 7.70 6.95 92.70
91659 2023-03-11 16:18:18 Terrasse 6.40 4.28 45.50
91658 2023-03-11 16:16:56 Bahnzimmer 18.40 17.28 37.60
91657 2023-03-11 16:00:05 Aussentemperatur 8.20 7.47 91.70
91656 2023-03-11 15:50:02 Terrasse 6.60 4.48 44.60
91655 2023-03-11 15:46:55 Bahnzimmer 18.10 16.91 36.20
91654 2023-03-11 15:31:43 Aussentemperatur 6.30 5.40 92.60
91653 2023-03-11 15:21:48 Terrasse 6.50 4.38 44.90
91652 2023-03-11 15:03:46 Aussentemperatur 9.70 8.99 86.70
91651 2023-03-11 14:53:48 Terrasse 9.40 7.48 41.50
91650 2023-03-11 14:46:49 Bahnzimmer 16.40 14.99 34.40
91649 2023-03-11 14:35:26 Aussentemperatur 10.00 9.25 84.00
91648 2023-03-11 14:25:28 Terrasse 7.20 5.13 44.20
91647 2023-03-11 14:16:48 Bahnzimmer 17.60 16.38 36.90
91646 2023-03-11 14:07:25 Aussentemperatur 12.10 11.38 77.20
91645 2023-03-11 13:57:42 Terrasse 11.00 9.17 38.90
91644 2023-03-11 13:46:47 Bahnzimmer 18.20 17.10 39.10
91643 2023-03-11 13:39:23 Aussentemperatur 20.80 20.63 65.00
91642 2023-03-11 13:29:11 Terrasse 11.30 9.55 40.60
91641 2023-03-11 13:16:47 Bahnzimmer 17.80 16.67 39.50
91640 2023-03-11 13:10:53 Aussentemperatur 14.30 13.91 81.30
91639 2023-03-11 13:00:56 Terrasse 11.10 9.42 44.20
91638 2023-03-11 12:46:46 Bahnzimmer 18.00 16.99 43.60
91637 2023-03-11 12:42:46 Aussentemperatur 14.70 14.18 74.80
91636 2023-03-11 12:32:29 Terrasse 10.20 8.44 44.60
91635 2023-03-11 12:16:45 Bahnzimmer 18.10 17.11 44.00
91634 2023-03-11 12:14:53 Aussentemperatur 18.30 17.84 63.30
91633 2023-03-11 12:04:07 Terrasse 7.80 5.83 45.70
91632 2023-03-11 11:46:45 Bahnzimmer 18.20 17.23 44.30
91631 2023-03-11 11:46:04 Aussentemperatur 19.50 19.29 68.30
91630 2023-03-11 11:35:29 Terrasse 5.50 3.48 52.50
91629 2023-03-11 11:17:51 Aussentemperatur 10.50 9.91 88.40
91628 2023-03-11 11:16:44 Bahnzimmer 18.50 17.55 43.90
91627 2023-03-11 11:07:11 Terrasse 6.60 4.65 51.20
91626 2023-03-11 10:49:32 Aussentemperatur 4.00 2.90 93.70
91625 2023-03-11 10:46:44 Bahnzimmer 18.60 17.67 44.20
91624 2023-03-11 10:38:48 Terrasse 5.50 3.60 57.10
91623 2023-03-11 10:21:11 Aussentemperatur 1.90 0.56 92.50
91622 2023-03-11 10:10:26 Terrasse 4.60 2.62 57.60
91621 2023-03-11 09:53:00 Aussentemperatur 2.10 0.79 92.80
91620 2023-03-11 09:46:37 Bahnzimmer 19.10 18.23 44.60
91619 2023-03-11 09:41:35 Terrasse 2.10 0.02 63.50
91618 2023-03-11 09:24:43 Aussentemperatur 0.60 -0.86 93.00
91617 2023-03-11 09:13:15 Terrasse 1.30 -0.80 65.60
91616 2023-03-11 08:56:33 Aussentemperatur 0.40 -1.09 92.60
91615 2023-03-11 08:46:31 Bahnzimmer 18.90 17.99 43.70
91614 2023-03-11 08:44:57 Terrasse 1.00 -1.11 66.40
91613 2023-03-11 08:28:17 Aussentemperatur -0.60 -2.19 92.50
91612 2023-03-11 08:16:38 Terrasse 0.50 -1.64 67.30
91611 2023-03-11 08:16:30 Bahnzimmer 19.20 18.33 44.10
91610 2023-03-11 08:00:02 Aussentemperatur -1.30 -2.97 92.10
91609 2023-03-11 07:48:20 Terrasse 0.20 -1.92 69.10
91608 2023-03-11 07:46:30 Bahnzimmer 18.90 17.98 43.30
91607 2023-03-11 07:31:51 Aussentemperatur -1.50 -3.19 92.20
91606 2023-03-11 07:20:04 Terrasse 0.30 -1.79 70.00
91605 2023-03-11 07:16:29 Bahnzimmer 19.10 18.19 42.90
91604 2023-03-11 07:03:40 Aussentemperatur -1.60 -3.29 92.30
91603 2023-03-11 06:51:46 Terrasse 0.20 -1.87 70.90
91602 2023-03-11 06:46:28 Bahnzimmer 18.90 17.97 43.10
91601 2023-03-11 06:35:32 Aussentemperatur -1.60 -3.29 92.40
91600 2023-03-11 06:23:31 Terrasse 0.30 -1.78 70.40
91599 2023-03-11 06:16:28 Bahnzimmer 18.10 17.12 44.10
91598 2023-03-11 06:07:21 Aussentemperatur -1.30 -2.96 92.50
91597 2023-03-11 05:55:15 Terrasse 0.50 -1.56 70.40
91596 2023-03-11 05:46:27 Bahnzimmer 18.00 17.01 44.20
91595 2023-03-11 05:39:10 Aussentemperatur -1.30 -2.96 92.60
91594 2023-03-11 05:26:58 Terrasse 0.50 -1.55 70.70
91593 2023-03-11 05:16:27 Bahnzimmer 17.90 16.90 44.30
91592 2023-03-11 05:10:59 Aussentemperatur -1.30 -2.96 92.60
91591 2023-03-11 04:58:40 Terrasse 0.40 -1.67 70.40
91590 2023-03-11 04:46:26 Bahnzimmer 17.90 16.90 44.30
91589 2023-03-11 04:42:48 Aussentemperatur -1.30 -2.95 92.80
91588 2023-03-11 04:30:23 Terrasse 0.40 -1.66 70.60
91587 2023-03-11 04:16:25 Bahnzimmer 17.80 16.80 44.60
91586 2023-03-11 04:14:38 Aussentemperatur -1.40 -3.06 92.70
91585 2023-03-11 04:02:07 Terrasse 0.40 -1.66 70.60
91584 2023-03-11 03:46:28 Aussentemperatur -1.30 -2.95 92.70
91583 2023-03-11 03:46:25 Bahnzimmer 17.80 16.80 44.50
91582 2023-03-11 03:33:50 Terrasse 0.50 -1.54 70.90
91581 2023-03-11 03:18:16 Aussentemperatur -1.30 -2.95 92.80
91580 2023-03-11 03:16:24 Bahnzimmer 18.00 17.01 44.30
91579 2023-03-11 03:05:32 Terrasse 0.30 -1.72 72.50
91578 2023-03-11 02:50:05 Aussentemperatur -1.50 -3.17 92.90
91577 2023-03-11 02:46:23 Bahnzimmer 17.90 16.90 44.40
91576 2023-03-11 02:37:14 Terrasse 0.30 -1.70 73.30
91575 2023-03-11 02:21:54 Aussentemperatur -1.30 -2.95 93.00
91574 2023-03-11 02:16:22 Bahnzimmer 18.00 17.01 44.40
91573 2023-03-11 02:08:58 Terrasse 0.20 -1.82 72.80
91572 2023-03-11 01:53:44 Aussentemperatur -1.30 -2.95 93.00
91571 2023-03-11 01:46:22 Bahnzimmer 18.00 17.02 44.50
91570 2023-03-11 01:40:43 Terrasse 0.30 -1.73 72.10
91569 2023-03-11 01:25:34 Aussentemperatur -1.30 -2.94 93.20
91568 2023-03-11 01:16:21 Bahnzimmer 17.90 16.91 44.50
91567 2023-03-11 01:12:27 Terrasse 0.50 -1.51 72.00
91566 2023-03-11 00:57:23 Aussentemperatur -1.10 -2.72 93.10
91565 2023-03-11 00:46:20 Bahnzimmer 18.10 17.13 44.70
91564 2023-03-11 00:44:09 Terrasse 0.50 -1.50 72.60
91563 2023-03-11 00:29:14 Aussentemperatur -1.10 -2.72 93.40
91562 2023-03-11 00:16:20 Bahnzimmer 18.30 17.35 44.50
91561 2023-03-11 00:15:53 Terrasse 0.40 -1.60 73.10
91560 2023-03-11 00:01:06 Aussentemperatur -1.10 -2.71 93.70
91559 2023-03-10 23:47:40 Terrasse 0.80 -1.15 73.50
91558 2023-03-10 23:46:19 Bahnzimmer 18.90 17.99 43.90
91557 2023-03-10 23:32:59 Aussentemperatur -0.30 -1.83 93.70
91556 2023-03-10 23:19:25 Terrasse 1.10 -0.93 69.00
91555 2023-03-10 23:16:18 Bahnzimmer 18.90 17.99 43.70
91554 2023-03-10 23:04:48 Aussentemperatur -0.20 -1.72 93.80
91553 2023-03-10 22:51:12 Terrasse 1.30 -0.70 69.30
91552 2023-03-10 22:46:18 Bahnzimmer 18.90 17.98 43.50
91551 2023-03-10 22:36:38 Aussentemperatur -0.10 -1.60 93.90
91550 2023-03-10 22:22:55 Terrasse 1.00 -1.01 70.30
91549 2023-03-10 22:16:17 Bahnzimmer 18.70 17.77 43.70
91548 2023-03-10 22:08:27 Aussentemperatur 0.00 -1.49 94.00
91547 2023-03-10 21:54:40 Terrasse 1.00 -1.05 68.60
91546 2023-03-10 21:46:16 Bahnzimmer 18.50 17.55 44.00
91545 2023-03-10 21:40:19 Aussentemperatur 0.20 -1.26 94.20
91544 2023-03-10 21:26:27 Terrasse 1.30 -0.75 67.50
91543 2023-03-10 21:16:16 Bahnzimmer 18.70 17.77 43.70
91542 2023-03-10 21:12:09 Aussentemperatur 0.60 -0.82 94.50
91541 2023-03-10 20:58:13 Terrasse 1.40 -0.64 67.40
91540 2023-03-10 20:46:15 Bahnzimmer 18.60 17.66 44.00
91539 2023-03-10 20:44:01 Aussentemperatur 0.90 -0.47 95.00
91538 2023-03-10 20:30:01 Terrasse 1.90 -0.11 66.80
91537 2023-03-10 20:16:14 Bahnzimmer 18.90 18.00 44.40
91536 2023-03-10 20:15:55 Aussentemperatur 1.50 0.19 95.30
91535 2023-03-10 20:01:49 Terrasse 2.60 0.59 64.20
91534 2023-03-10 19:47:49 Aussentemperatur 2.40 1.18 95.20
91533 2023-03-10 19:46:14 Bahnzimmer 19.50 18.69 45.20
91532 2023-03-10 19:33:43 Terrasse 4.50 2.69 64.70
91531 2023-03-10 19:19:43 Aussentemperatur 3.70 2.64 96.20
91530 2023-03-10 19:16:13 Bahnzimmer 19.20 18.38 46.00
91529 2023-03-10 19:05:32 Terrasse 5.80 4.24 69.00
91528 2023-03-10 18:51:39 Aussentemperatur 4.90 3.97 96.50
91527 2023-03-10 18:46:12 Bahnzimmer 18.40 17.49 45.70
91526 2023-03-10 18:37:18 Terrasse 6.20 4.61 66.50
91525 2023-03-10 18:23:28 Aussentemperatur 5.30 4.41 96.60
91524 2023-03-10 18:16:11 Bahnzimmer 18.60 17.72 46.00
91523 2023-03-10 18:09:03 Terrasse 6.50 4.93 66.20
91522 2023-03-10 17:55:18 Aussentemperatur 5.70 4.85 96.80
91521 2023-03-10 17:46:11 Bahnzimmer 18.60 17.73 46.50
91520 2023-03-10 17:40:47 Terrasse 6.80 5.37 70.40
91519 2023-03-10 17:27:10 Aussentemperatur 6.00 5.19 97.10
91518 2023-03-10 17:16:10 Bahnzimmer 18.70 17.85 46.80
91517 2023-03-10 17:12:32 Terrasse 7.20 5.91 74.00
91516 2023-03-10 16:59:02 Aussentemperatur 6.60 5.85 97.10
91515 2023-03-10 16:46:09 Bahnzimmer 18.90 18.08 47.10
91514 2023-03-10 16:44:17 Terrasse 7.80 6.55 73.50
91513 2023-03-10 16:30:54 Aussentemperatur 7.20 6.51 97.20
91512 2023-03-10 16:16:09 Bahnzimmer 19.20 18.40 46.90
91511 2023-03-10 16:16:01 Terrasse 8.10 6.97 76.80
91510 2023-03-10 16:02:42 Aussentemperatur 7.20 6.52 97.40
91509 2023-03-10 15:47:44 Terrasse 8.10 7.07 80.50
91508 2023-03-10 15:46:08 Bahnzimmer 19.20 18.40 46.90
91507 2023-03-10 15:34:31 Aussentemperatur 7.20 6.53 97.70
91506 2023-03-10 15:19:37 Terrasse 8.40 7.36 79.00
91505 2023-03-10 15:16:07 Bahnzimmer 19.10 18.29 46.90
91504 2023-03-10 15:06:20 Aussentemperatur 7.40 6.75 98.00
91503 2023-03-10 14:51:17 Terrasse 8.50 7.45 78.30
91502 2023-03-10 14:46:07 Bahnzimmer 19.10 18.28 46.60
91501 2023-03-10 14:38:11 Aussentemperatur 7.60 6.99 98.50
91500 2023-03-10 14:23:00 Terrasse 8.80 7.74 76.70
91499 2023-03-10 14:16:06 Bahnzimmer 19.00 18.16 46.30
91498 2023-03-10 14:10:00 Aussentemperatur 7.80 7.22 99.10
91497 2023-03-10 13:54:45 Terrasse 9.10 8.03 75.20
91496 2023-03-10 13:46:05 Bahnzimmer 19.20 18.38 46.10
91495 2023-03-10 13:41:53 Aussentemperatur 8.70 8.22 99.30
91494 2023-03-10 13:26:28 Terrasse 9.60 8.47 71.10
91493 2023-03-10 13:16:05 Bahnzimmer 19.20 18.38 46.10
91492 2023-03-10 13:13:45 Aussentemperatur 9.80 9.43 99.40
91491 2023-03-10 12:58:14 Terrasse 10.20 9.06 68.30
91490 2023-03-10 12:46:04 Bahnzimmer 19.20 18.38 46.10
91489 2023-03-10 12:45:36 Aussentemperatur 10.80 10.51 98.60
91488 2023-03-10 12:29:59 Terrasse 10.40 9.24 67.00
91487 2023-03-10 12:17:21 Aussentemperatur 11.10 10.80 97.00
91486 2023-03-10 12:16:03 Bahnzimmer 19.10 18.28 46.50
91485 2023-03-10 12:01:38 Terrasse 9.80 8.58 67.00
91484 2023-03-10 11:49:08 Aussentemperatur 10.40 10.04 97.40
91483 2023-03-10 11:46:03 Bahnzimmer 19.10 18.28 46.70
91482 2023-03-10 11:33:17 Terrasse 9.20 8.01 70.40
91481 2023-03-10 11:20:56 Aussentemperatur 9.20 8.72 97.40
91480 2023-03-10 11:16:02 Bahnzimmer 19.10 18.29 46.80
91479 2023-03-10 11:04:59 Terrasse 9.70 8.57 70.50
91478 2023-03-10 10:52:41 Aussentemperatur 9.40 8.91 96.40
91477 2023-03-10 10:46:01 Bahnzimmer 19.20 18.39 46.50
91476 2023-03-10 10:36:35 Terrasse 8.40 7.21 73.50
91475 2023-03-10 10:24:26 Aussentemperatur 8.10 7.48 96.30
91474 2023-03-10 10:16:01 Bahnzimmer 19.10 18.28 46.70
91473 2023-03-10 10:08:18 Terrasse 8.70 7.57 74.50
91472 2023-03-10 09:56:15 Aussentemperatur 8.00 7.36 96.10
91471 2023-03-10 09:46:00 Bahnzimmer 18.90 18.07 46.90
91470 2023-03-10 09:39:55 Terrasse 8.20 7.12 78.30
91469 2023-03-10 09:28:01 Aussentemperatur 7.40 6.72 96.60
91468 2023-03-10 09:15:59 Bahnzimmer 18.70 17.83 46.00
91467 2023-03-10 09:11:38 Terrasse 8.40 7.38 80.00
91466 2023-03-10 08:59:43 Aussentemperatur 7.00 6.27 96.40
91465 2023-03-10 08:45:59 Bahnzimmer 18.70 17.83 46.20
91464 2023-03-10 08:43:18 Terrasse 7.90 6.87 81.20
91463 2023-03-10 08:31:33 Aussentemperatur 6.90 6.16 96.20
91462 2023-03-10 08:15:58 Bahnzimmer 18.90 18.04 45.80
91461 2023-03-10 08:14:59 Terrasse 7.70 6.66 81.90
91460 2023-03-10 08:03:19 Aussentemperatur 6.60 5.83 96.20
91459 2023-03-10 07:46:42 Terrasse 7.50 6.44 81.60
91458 2023-03-10 07:45:57 Bahnzimmer 18.90 18.07 46.90
91457 2023-03-10 07:35:08 Aussentemperatur 6.50 5.71 96.10
91456 2023-03-10 07:18:24 Terrasse 7.50 6.44 81.70
91455 2023-03-10 07:15:57 Bahnzimmer 18.50 17.59 45.40
91454 2023-03-10 07:06:58 Aussentemperatur 6.50 5.72 96.20
91453 2023-03-10 06:50:06 Terrasse 7.60 6.53 81.10
91452 2023-03-10 06:45:56 Bahnzimmer 19.20 18.32 43.70
91451 2023-03-10 06:38:45 Aussentemperatur 6.60 5.83 96.20
91450 2023-03-10 06:21:49 Terrasse 7.80 6.74 80.50
91449 2023-03-10 06:15:55 Bahnzimmer 18.80 17.89 44.30
91448 2023-03-10 06:10:33 Aussentemperatur 6.60 5.83 96.30
91447 2023-03-10 05:53:31 Terrasse 7.80 6.76 81.50
91446 2023-03-10 05:45:54 Bahnzimmer 18.90 18.00 44.10
91445 2023-03-10 05:42:22 Aussentemperatur 6.80 6.05 96.30
91444 2023-03-10 05:25:14 Terrasse 7.80 6.79 82.60
91443 2023-03-10 05:15:54 Bahnzimmer 18.30 17.35 44.70
91442 2023-03-10 05:14:10 Aussentemperatur 6.70 5.94 96.40
91441 2023-03-10 04:56:57 Terrasse 7.90 6.88 81.70
91440 2023-03-10 04:46:00 Aussentemperatur 6.70 5.95 96.50
91439 2023-03-10 04:45:53 Bahnzimmer 17.80 16.82 45.40
91438 2023-03-10 04:28:40 Terrasse 8.00 6.97 81.00
91437 2023-03-10 04:17:50 Aussentemperatur 6.90 6.17 96.50
91436 2023-03-10 04:15:52 Bahnzimmer 17.80 16.82 45.20
91435 2023-03-10 04:00:22 Terrasse 8.10 7.03 79.10
91434 2023-03-10 03:49:37 Aussentemperatur 7.00 6.28 96.70
91433 2023-03-10 03:32:05 Terrasse 8.20 7.15 79.40
91432 2023-03-10 03:21:25 Aussentemperatur 6.90 6.17 96.80
91431 2023-03-10 03:15:51 Bahnzimmer 18.00 17.03 44.90
91430 2023-03-10 03:03:48 Terrasse 8.30 7.26 79.30
91429 2023-03-10 02:53:14 Aussentemperatur 7.00 6.29 96.90
91428 2023-03-10 02:45:50 Bahnzimmer 18.00 17.03 45.00
91427 2023-03-10 02:35:31 Terrasse 8.40 7.30 76.60
91426 2023-03-10 02:25:04 Aussentemperatur 7.50 6.83 96.80
91425 2023-03-10 02:15:50 Bahnzimmer 18.10 17.14 45.00
91424 2023-03-10 02:07:14 Terrasse 8.60 7.49 75.70
91423 2023-03-10 01:56:55 Aussentemperatur 7.80 7.16 96.80
91422 2023-03-10 01:45:49 Bahnzimmer 18.30 17.36 44.90
91421 2023-03-10 01:38:56 Terrasse 8.80 7.65 73.50
91420 2023-03-10 01:28:45 Aussentemperatur 8.10 7.49 96.80
91419 2023-03-10 01:15:48 Bahnzimmer 18.40 17.46 44.50
91418 2023-03-10 01:10:39 Terrasse 8.90 7.74 72.60
91417 2023-03-10 01:00:34 Aussentemperatur 8.20 7.60 96.80
91416 2023-03-10 00:45:48 Bahnzimmer 18.60 17.68 44.50
91415 2023-03-10 00:42:21 Terrasse 9.00 7.82 71.40
91414 2023-03-10 00:32:22 Aussentemperatur 8.30 7.71 96.70
91413 2023-03-10 00:15:47 Bahnzimmer 18.80 17.89 44.20
91412 2023-03-10 00:14:02 Terrasse 8.90 7.72 71.90
91411 2023-03-10 00:04:11 Aussentemperatur 8.20 7.60 96.80
91410 2023-03-09 23:45:46 Bahnzimmer 18.90 18.01 44.50
91409 2023-03-09 23:45:44 Terrasse 8.90 7.72 71.80
91408 2023-03-09 23:36:00 Aussentemperatur 8.20 7.60 96.70
91407 2023-03-09 23:17:26 Terrasse 8.90 7.71 71.50
91406 2023-03-09 23:15:46 Bahnzimmer 19.20 18.32 43.90
91405 2023-03-09 23:07:48 Aussentemperatur 8.10 7.49 96.70
91404 2023-03-09 22:49:07 Terrasse 8.70 7.49 71.40
91403 2023-03-09 22:45:45 Bahnzimmer 19.30 18.44 44.20
91402 2023-03-09 22:39:45 Aussentemperatur 7.90 7.27 96.60
91401 2023-03-09 22:20:48 Terrasse 8.50 7.30 72.50
91400 2023-03-09 22:15:44 Bahnzimmer 19.30 18.43 44.00
91399 2023-03-09 22:11:29 Aussentemperatur 7.60 6.94 96.60
91398 2023-03-09 21:52:29 Terrasse 8.40 7.24 74.50
91397 2023-03-09 21:45:44 Bahnzimmer 19.30 18.44 44.20
91396 2023-03-09 21:43:18 Aussentemperatur 7.50 6.83 96.60
91395 2023-03-09 21:24:11 Terrasse 8.50 7.37 75.30
91394 2023-03-09 21:15:43 Bahnzimmer 19.30 18.44 44.30
91393 2023-03-09 21:15:06 Aussentemperatur 7.70 7.05 96.70
91392 2023-03-09 20:55:53 Terrasse 8.60 7.49 75.50
91391 2023-03-09 20:46:55 Aussentemperatur 7.80 7.16 96.80
91390 2023-03-09 20:45:42 Bahnzimmer 19.20 18.34 44.70
91389 2023-03-09 20:27:34 Terrasse 8.60 7.52 76.60
91388 2023-03-09 20:18:44 Aussentemperatur 7.80 7.17 96.90
91387 2023-03-09 20:15:42 Bahnzimmer 19.40 18.58 45.50
91386 2023-03-09 19:59:17 Terrasse 8.70 7.63 76.90
91385 2023-03-09 19:50:32 Aussentemperatur 8.00 7.39 97.10
91384 2023-03-09 19:45:41 Bahnzimmer 19.40 18.53 43.40
91383 2023-03-09 19:31:00 Terrasse 8.90 7.85 76.70
91382 2023-03-09 19:22:22 Aussentemperatur 8.20 7.61 97.20
91381 2023-03-09 19:15:40 Bahnzimmer 19.20 18.31 43.60
91380 2023-03-09 19:02:42 Terrasse 9.10 8.05 76.10
91379 2023-03-09 18:54:12 Aussentemperatur 8.50 7.95 97.50
91378 2023-03-09 18:45:40 Bahnzimmer 19.00 18.10 44.00
91377 2023-03-09 18:34:25 Terrasse 9.30 8.24 74.90
91376 2023-03-09 18:26:00 Aussentemperatur 8.60 8.07 97.70
91375 2023-03-09 18:15:39 Bahnzimmer 19.00 18.10 43.90
91374 2023-03-09 18:06:07 Terrasse 9.50 8.45 74.40
91373 2023-03-09 17:57:50 Aussentemperatur 9.00 8.51 98.00
91372 2023-03-09 17:45:38 Bahnzimmer 18.90 17.99 43.90
91371 2023-03-09 17:37:50 Terrasse 9.80 8.75 73.50
91370 2023-03-09 17:29:40 Aussentemperatur 9.40 8.96 98.40
91369 2023-03-09 17:15:37 Bahnzimmer 18.90 18.00 44.10
91368 2023-03-09 17:09:34 Terrasse 10.00 8.98 73.70
91367 2023-03-09 17:01:31 Aussentemperatur 9.80 9.41 98.70
91366 2023-03-09 16:45:37 Bahnzimmer 18.90 18.00 44.10
91365 2023-03-09 16:41:16 Terrasse 10.10 9.10 74.00
91364 2023-03-09 16:33:22 Aussentemperatur 10.20 9.86 98.90
91363 2023-03-09 16:15:36 Bahnzimmer 19.00 18.11 44.30
91362 2023-03-09 16:12:58 Terrasse 10.10 9.13 75.10
91361 2023-03-09 16:05:12 Aussentemperatur 10.20 9.87 99.40
91360 2023-03-09 15:45:35 Bahnzimmer 18.80 17.88 44.00
91359 2023-03-09 15:44:48 Terrasse 12.10 11.24 71.80
91358 2023-03-09 15:36:51 Aussentemperatur 10.50 10.20 99.20
91357 2023-03-09 15:16:27 Terrasse 9.80 8.79 74.70
91356 2023-03-09 15:15:35 Bahnzimmer 18.90 18.00 44.30
91355 2023-03-09 15:08:39 Aussentemperatur 10.20 9.86 99.00
91354 2023-03-09 14:48:11 Terrasse 10.30 9.29 72.90
91353 2023-03-09 14:45:34 Bahnzimmer 18.80 17.89 44.10
91352 2023-03-09 14:40:41 Aussentemperatur 12.30 12.12 97.20
91351 2023-03-09 14:19:44 Terrasse 9.30 8.30 77.20
91350 2023-03-09 14:15:33 Bahnzimmer 18.80 17.89 44.20
91349 2023-03-09 14:12:11 Aussentemperatur 9.40 8.95 97.70
91348 2023-03-09 13:51:24 Terrasse 9.10 8.10 78.00
91347 2023-03-09 13:45:33 Bahnzimmer 18.80 17.89 44.10
91346 2023-03-09 13:44:00 Aussentemperatur 9.40 8.94 97.50
91345 2023-03-09 13:23:06 Terrasse 9.20 8.25 79.40
91344 2023-03-09 13:15:47 Aussentemperatur 9.40 8.94 97.30
91343 2023-03-09 13:15:32 Bahnzimmer 18.80 17.87 43.50
91342 2023-03-09 12:54:46 Terrasse 8.90 7.94 80.30
91341 2023-03-09 12:47:34 Aussentemperatur 9.00 8.49 97.20
91340 2023-03-09 12:45:31 Bahnzimmer 18.80 17.88 43.70
91339 2023-03-09 12:26:28 Terrasse 8.60 7.63 81.00
91338 2023-03-09 12:19:27 Aussentemperatur 9.00 8.48 96.70
91337 2023-03-09 12:15:31 Bahnzimmer 18.70 17.77 43.80
91336 2023-03-09 11:58:07 Terrasse 8.30 7.36 83.40
91335 2023-03-09 11:51:10 Aussentemperatur 8.30 7.72 97.10
91334 2023-03-09 11:45:30 Bahnzimmer 18.70 17.77 43.80
91333 2023-03-09 11:29:48 Terrasse 8.20 7.26 83.80
91332 2023-03-09 11:22:59 Aussentemperatur 8.30 7.70 96.40
91331 2023-03-09 11:15:29 Bahnzimmer 18.70 17.76 43.60
91330 2023-03-09 11:01:27 Terrasse 7.80 6.85 84.70
91329 2023-03-09 10:54:45 Aussentemperatur 7.80 7.16 96.60
91328 2023-03-09 10:45:29 Bahnzimmer 18.70 17.76 43.50
91327 2023-03-09 10:33:08 Terrasse 7.60 6.62 84.60
91326 2023-03-09 10:26:32 Aussentemperatur 7.80 7.14 96.10
91325 2023-03-09 10:15:28 Bahnzimmer 18.70 17.76 43.50
91324 2023-03-09 10:04:46 Terrasse 7.00 6.01 86.30
91323 2023-03-09 09:58:16 Aussentemperatur 6.70 5.93 95.90
91322 2023-03-09 09:45:27 Bahnzimmer 18.50 17.54 43.40
91321 2023-03-09 09:36:27 Terrasse 7.00 5.99 85.70
91320 2023-03-09 09:30:04 Aussentemperatur 6.60 5.82 95.80
91319 2023-03-09 09:15:26 Bahnzimmer 18.60 17.65 43.30
91318 2023-03-09 09:08:07 Terrasse 6.70 5.67 85.90
91317 2023-03-09 09:01:51 Aussentemperatur 6.20 5.37 95.60
91316 2023-03-09 08:45:26 Bahnzimmer 18.50 17.53 43.20
91315 2023-03-09 08:39:48 Terrasse 6.70 5.66 85.70
91314 2023-03-09 08:33:40 Aussentemperatur 6.20 5.37 95.40
91313 2023-03-09 08:15:25 Bahnzimmer 18.40 17.41 42.70
91312 2023-03-09 08:11:30 Terrasse 6.40 5.31 84.90
91311 2023-03-09 08:05:28 Aussentemperatur 5.70 4.81 95.20
91310 2023-03-09 07:45:24 Bahnzimmer 18.30 17.30 42.80
91309 2023-03-09 07:43:11 Terrasse 6.40 5.30 84.40
91308 2023-03-09 07:37:16 Aussentemperatur 5.60 4.70 95.10
91307 2023-03-09 07:15:23 Bahnzimmer 18.00 16.98 43.10
91306 2023-03-09 07:14:53 Terrasse 6.40 5.33 85.50
91305 2023-03-09 07:09:04 Aussentemperatur 5.60 4.70 95.10
91304 2023-03-09 06:46:35 Terrasse 6.30 5.19 84.60
91303 2023-03-09 06:45:23 Bahnzimmer 18.00 16.98 43.20
91302 2023-03-09 06:40:52 Aussentemperatur 5.50 4.59 95.00
91301 2023-03-09 06:18:16 Terrasse 6.20 5.07 84.10
91300 2023-03-09 06:15:22 Bahnzimmer 18.00 16.98 43.20
91299 2023-03-09 06:12:41 Aussentemperatur 5.50 4.59 95.00
91298 2023-03-09 05:49:58 Terrasse 6.30 5.18 83.90
91297 2023-03-09 05:45:21 Bahnzimmer 18.20 17.19 42.70
91296 2023-03-09 05:44:30 Aussentemperatur 5.50 4.58 94.90
91295 2023-03-09 05:21:40 Terrasse 6.30 5.18 84.10
91294 2023-03-09 05:16:17 Aussentemperatur 5.30 4.36 94.80
91293 2023-03-09 05:15:21 Bahnzimmer 18.30 17.29 42.30
91292 2023-03-09 04:53:20 Terrasse 5.60 4.42 84.60
91291 2023-03-09 04:48:05 Aussentemperatur 5.00 4.03 94.80
91290 2023-03-09 04:45:20 Bahnzimmer 17.60 16.54 43.10
91289 2023-03-09 04:25:02 Terrasse 5.70 4.54 84.80
91288 2023-03-09 04:19:53 Aussentemperatur 4.80 3.81 94.70
91287 2023-03-09 04:15:19 Bahnzimmer 17.70 16.65 43.10
91286 2023-03-09 03:56:44 Terrasse 5.70 4.53 84.30
91285 2023-03-09 03:51:43 Aussentemperatur 4.90 3.92 94.70
91284 2023-03-09 03:45:19 Bahnzimmer 17.70 16.64 42.80
91283 2023-03-09 03:28:26 Terrasse 5.80 4.65 84.70
91282 2023-03-09 03:23:32 Aussentemperatur 4.70 3.70 94.60
91281 2023-03-09 03:15:18 Bahnzimmer 17.80 16.75 42.70
91280 2023-03-09 03:00:08 Terrasse 5.70 4.54 84.80
91279 2023-03-09 02:55:20 Aussentemperatur 4.80 3.80 94.30
91278 2023-03-09 02:45:17 Bahnzimmer 17.80 16.74 42.30
91277 2023-03-09 02:31:48 Terrasse 5.20 3.99 84.80
91276 2023-03-09 02:27:06 Aussentemperatur 4.20 3.14 94.50
91275 2023-03-09 02:15:17 Bahnzimmer 17.80 16.74 42.40
91274 2023-03-09 02:03:29 Terrasse 5.00 3.74 83.60
91273 2023-03-09 01:58:53 Aussentemperatur 3.90 2.81 94.40
91272 2023-03-09 01:45:16 Bahnzimmer 17.80 16.74 42.30
91271 2023-03-09 01:35:10 Terrasse 4.70 3.41 83.50
91270 2023-03-09 01:30:41 Aussentemperatur 3.50 2.37 94.30
91269 2023-03-09 01:15:15 Bahnzimmer 17.90 16.84 42.00
91268 2023-03-09 01:06:51 Terrasse 4.40 3.05 82.60
91267 2023-03-09 01:02:27 Aussentemperatur 3.30 2.15 94.40
91266 2023-03-09 00:45:15 Bahnzimmer 17.90 16.84 42.00
91265 2023-03-09 00:38:33 Terrasse 4.30 2.95 82.90
91264 2023-03-09 00:34:15 Aussentemperatur 3.10 1.93 94.20
91263 2023-03-09 00:15:14 Bahnzimmer 18.00 16.95 42.00
91262 2023-03-09 00:10:14 Terrasse 4.10 2.71 82.20
91261 2023-03-09 00:06:03 Aussentemperatur 2.90 1.70 94.00
91260 2023-03-08 23:45:13 Bahnzimmer 18.10 17.06 41.80
91259 2023-03-08 23:41:56 Terrasse 3.90 2.48 81.80
91258 2023-03-08 23:37:48 Aussentemperatur 2.50 1.26 93.90
91257 2023-03-08 23:15:13 Bahnzimmer 18.20 17.17 41.80
91256 2023-03-08 23:13:37 Terrasse 3.60 2.13 80.80
91255 2023-03-08 23:09:36 Aussentemperatur 2.30 1.03 93.80
91254 2023-03-08 22:45:18 Terrasse 3.60 2.13 80.90
91253 2023-03-08 22:45:12 Bahnzimmer 18.20 17.16 41.70
91252 2023-03-08 22:41:25 Aussentemperatur 2.20 0.92 93.70
91251 2023-03-08 22:17:01 Terrasse 3.50 2.01 80.50
91250 2023-03-08 22:15:11 Bahnzimmer 18.30 17.27 41.70
91249 2023-03-08 22:13:14 Aussentemperatur 2.20 0.92 93.80
91248 2023-03-08 21:48:43 Terrasse 3.40 1.89 80.40
91247 2023-03-08 21:45:11 Bahnzimmer 18.30 17.27 41.50
91246 2023-03-08 21:45:03 Aussentemperatur 2.10 0.81 93.80
91245 2023-03-08 21:20:24 Terrasse 3.40 1.89 80.30
91244 2023-03-08 21:16:52 Aussentemperatur 1.90 0.59 93.80
91243 2023-03-08 21:15:10 Bahnzimmer 18.40 17.38 41.40
91242 2023-03-08 20:52:07 Terrasse 3.30 1.78 80.30
91241 2023-03-08 20:48:40 Aussentemperatur 1.80 0.49 93.90
91240 2023-03-08 20:45:09 Bahnzimmer 18.50 17.48 41.20
91239 2023-03-08 20:23:50 Terrasse 3.30 1.78 80.20
91238 2023-03-08 20:20:30 Aussentemperatur 1.70 0.38 93.90
91237 2023-03-08 20:15:09 Bahnzimmer 18.60 17.59 41.20
91236 2023-03-08 19:55:32 Terrasse 3.40 1.90 80.50
91235 2023-03-08 19:52:19 Aussentemperatur 1.80 0.49 93.90
91234 2023-03-08 19:45:08 Bahnzimmer 18.80 17.80 40.90
91233 2023-03-08 19:27:15 Terrasse 3.50 2.04 81.60
91232 2023-03-08 19:24:08 Aussentemperatur 1.70 0.37 93.60
91231 2023-03-08 19:15:07 Bahnzimmer 19.20 18.23 40.40
91230 2023-03-08 18:58:55 Terrasse 3.10 1.58 81.10
91229 2023-03-08 18:55:56 Aussentemperatur 1.40 0.03 93.30
91228 2023-03-08 18:45:07 Bahnzimmer 19.50 18.55 40.00
91227 2023-03-08 18:30:36 Terrasse 3.10 1.58 80.80
91226 2023-03-08 18:27:45 Aussentemperatur 1.30 -0.08 93.20
91225 2023-03-08 18:15:06 Bahnzimmer 19.50 18.54 39.60
91224 2023-03-08 18:02:16 Terrasse 2.60 1.03 81.00
91223 2023-03-08 17:59:29 Aussentemperatur 0.60 -0.84 93.50
91222 2023-03-08 17:45:05 Bahnzimmer 19.50 18.53 39.30
91221 2023-03-08 17:33:58 Terrasse 2.50 0.89 79.80
91220 2023-03-08 17:31:20 Aussentemperatur 0.40 -1.06 93.60
91219 2023-03-08 17:15:05 Bahnzimmer 19.40 18.41 38.70
91218 2023-03-08 17:05:38 Terrasse 2.30 0.69 80.60
91217 2023-03-08 17:03:09 Aussentemperatur 0.50 -0.95 93.70
91216 2023-03-08 16:45:04 Bahnzimmer 20.00 19.13 41.20
91215 2023-03-08 16:37:22 Terrasse 2.10 0.45 79.90
91214 2023-03-08 16:34:58 Aussentemperatur 0.50 -0.94 93.90
91213 2023-03-08 16:15:03 Bahnzimmer 19.80 18.91 41.00
91212 2023-03-08 16:09:04 Terrasse 2.00 0.34 79.70
91211 2023-03-08 16:06:48 Aussentemperatur 0.30 -1.16 94.10
91210 2023-03-08 15:45:03 Bahnzimmer 19.90 19.00 40.40
91209 2023-03-08 15:40:46 Terrasse 1.90 0.19 78.20
91208 2023-03-08 15:38:38 Aussentemperatur 0.20 -1.26 94.30
91207 2023-03-08 15:15:02 Bahnzimmer 19.70 18.75 39.40
91206 2023-03-08 15:12:27 Terrasse 1.80 0.06 77.50
91205 2023-03-08 15:10:29 Aussentemperatur 0.50 -0.93 94.50
91204 2023-03-08 14:45:01 Bahnzimmer 19.50 18.57 40.60
91203 2023-03-08 14:44:09 Terrasse 1.90 0.16 77.00
91202 2023-03-08 14:42:20 Aussentemperatur 0.50 -0.93 94.30
91201 2023-03-08 14:15:51 Terrasse 1.60 -0.18 76.70
91200 2023-03-08 14:15:00 Bahnzimmer 19.70 18.78 40.30
91199 2023-03-08 14:14:10 Aussentemperatur 0.40 -1.04 94.50
91198 2023-03-08 13:47:34 Terrasse 1.50 -0.30 76.40
91197 2023-03-08 13:45:57 Aussentemperatur 0.00 -1.48 94.40
91196 2023-03-08 13:45:00 Bahnzimmer 19.20 18.22 39.90
91195 2023-03-08 13:19:16 Terrasse 1.50 -0.31 76.00
91194 2023-03-08 13:17:47 Aussentemperatur 0.20 -1.26 94.50
91193 2023-03-08 13:14:59 Bahnzimmer 19.50 18.55 40.00
91192 2023-03-08 12:50:59 Terrasse 1.50 -0.32 75.80
91191 2023-03-08 12:49:38 Aussentemperatur 0.30 -1.14 94.80
91190 2023-03-08 12:44:59 Bahnzimmer 19.30 18.33 39.90
91189 2023-03-08 12:22:42 Terrasse 1.40 -0.43 75.70
91188 2023-03-08 12:21:25 Aussentemperatur 0.00 -1.48 94.40
91187 2023-03-08 12:14:58 Bahnzimmer 20.00 19.12 40.70
91186 2023-03-08 11:54:25 Terrasse 1.20 -0.64 75.90
91185 2023-03-08 11:53:15 Aussentemperatur 0.00 -1.48 94.20
91184 2023-03-08 11:44:57 Bahnzimmer 20.10 19.23 40.60
91183 2023-03-08 11:26:06 Terrasse 1.20 -0.64 76.00
91182 2023-03-08 11:25:03 Aussentemperatur -0.10 -1.60 94.00
91181 2023-03-08 11:14:56 Bahnzimmer 19.90 19.00 40.40
91180 2023-03-08 10:57:49 Terrasse 1.40 -0.44 75.20
91179 2023-03-08 10:56:52 Aussentemperatur -0.10 -1.60 94.10
91178 2023-03-08 10:44:56 Bahnzimmer 20.00 19.12 40.60
91177 2023-03-08 10:29:31 Terrasse 1.10 -0.77 75.30
91176 2023-03-08 10:28:42 Aussentemperatur -0.10 -1.60 93.90
91175 2023-03-08 10:14:55 Bahnzimmer 19.90 19.00 40.20
91174 2023-03-08 10:01:13 Terrasse 1.20 -0.66 75.30
91173 2023-03-08 10:00:38 Aussentemperatur -0.30 -1.84 93.20
91172 2023-03-08 09:44:54 Bahnzimmer 19.50 18.54 39.70
91171 2023-03-08 09:32:54 Terrasse 1.00 -0.87 75.50
91170 2023-03-08 09:32:26 Aussentemperatur -0.50 -2.07 92.90
91169 2023-03-08 09:14:54 Bahnzimmer 19.70 18.77 40.10
91168 2023-03-08 09:04:37 Terrasse 1.10 -0.77 75.20
91167 2023-03-08 09:04:14 Aussentemperatur -0.60 -2.19 92.60
91166 2023-03-08 08:44:53 Bahnzimmer 19.60 18.65 39.50
91165 2023-03-08 08:36:19 Terrasse 1.00 -0.87 75.60
91164 2023-03-08 08:36:03 Aussentemperatur -0.70 -2.30 92.30
91163 2023-03-08 08:14:52 Bahnzimmer 19.70 18.75 39.40
91162 2023-03-08 08:08:01 Terrasse 1.10 -0.76 75.70
91161 2023-03-08 08:07:54 Aussentemperatur -0.60 -2.20 92.20
91160 2023-03-08 07:44:52 Bahnzimmer 19.50 18.52 38.70
91159 2023-03-08 07:39:46 Terrasse 1.20 -0.65 75.50
91158 2023-03-08 07:39:44 Aussentemperatur -0.50 -2.09 92.10
91157 2023-03-08 07:14:51 Bahnzimmer 19.10 18.10 39.70
91156 2023-03-08 07:11:34 Aussentemperatur -0.60 -2.20 91.90
91155 2023-03-08 07:11:29 Terrasse 1.20 -0.66 75.30
91154 2023-03-08 06:44:50 Bahnzimmer 19.00 18.00 40.10
91153 2023-03-08 06:43:24 Aussentemperatur -0.60 -2.20 91.90
91152 2023-03-08 06:43:11 Terrasse 1.20 -0.67 75.00
91151 2023-03-08 06:15:13 Aussentemperatur -0.60 -2.20 92.00
91150 2023-03-08 06:14:53 Terrasse 1.40 -0.44 75.10
91149 2023-03-08 06:14:50 Bahnzimmer 18.90 17.89 40.10
91148 2023-03-08 05:47:02 Aussentemperatur -0.60 -2.20 92.10
91147 2023-03-08 05:46:36 Terrasse 1.20 -0.66 75.10
91146 2023-03-08 05:44:49 Bahnzimmer 18.80 17.78 40.00
91145 2023-03-08 05:18:53 Aussentemperatur -0.40 -1.98 92.00
91144 2023-03-08 05:18:19 Terrasse 1.20 -0.67 74.80
91143 2023-03-08 05:14:48 Bahnzimmer 18.50 17.46 40.20
91142 2023-03-08 04:50:44 Aussentemperatur -0.10 -1.65 92.00
91141 2023-03-08 04:50:02 Terrasse 1.40 -0.45 74.80
91140 2023-03-08 04:44:48 Bahnzimmer 17.70 16.60 41.30
91139 2023-03-08 04:22:35 Aussentemperatur 0.00 -1.54 92.20
91138 2023-03-08 04:21:46 Terrasse 1.40 -0.48 73.80
91137 2023-03-08 04:14:47 Bahnzimmer 17.70 16.60 41.10
91136 2023-03-08 03:54:23 Aussentemperatur -0.10 -1.65 92.20
91135 2023-03-08 03:53:29 Terrasse 1.50 -0.36 73.90
91134 2023-03-08 03:44:46 Bahnzimmer 17.60 16.49 41.30
91133 2023-03-08 03:26:13 Aussentemperatur -0.10 -1.65 92.20
91132 2023-03-08 03:25:11 Terrasse 1.50 -0.38 73.30
91131 2023-03-08 03:14:46 Bahnzimmer 17.80 16.71 41.10
91130 2023-03-08 02:58:04 Aussentemperatur -0.10 -1.64 92.30
91129 2023-03-08 02:56:55 Terrasse 1.50 -0.39 73.00
91128 2023-03-08 02:44:45 Bahnzimmer 17.80 16.71 41.10
91127 2023-03-08 02:29:53 Aussentemperatur -0.20 -1.75 92.40
91126 2023-03-08 02:28:38 Terrasse 1.60 -0.30 72.00
91125 2023-03-08 02:14:44 Bahnzimmer 17.70 16.60 41.20
91124 2023-03-08 02:01:44 Aussentemperatur -0.30 -1.86 92.30
91123 2023-03-08 02:00:19 Terrasse 1.50 -0.38 73.30
91122 2023-03-08 01:44:44 Bahnzimmer 17.80 16.71 41.00
91121 2023-03-08 01:33:34 Aussentemperatur -0.30 -1.86 92.50
91120 2023-03-08 01:32:03 Terrasse 1.40 -0.51 72.70
91119 2023-03-08 01:14:43 Bahnzimmer 17.80 16.71 41.00
91118 2023-03-08 01:05:24 Aussentemperatur -0.30 -1.86 92.60
91117 2023-03-08 01:03:45 Terrasse 1.40 -0.50 72.80
91116 2023-03-08 00:44:42 Bahnzimmer 17.90 16.83 41.40
91115 2023-03-08 00:37:14 Aussentemperatur -0.30 -1.86 92.60
91114 2023-03-08 00:35:28 Terrasse 1.70 -0.18 72.50
91113 2023-03-08 00:14:42 Bahnzimmer 18.10 17.04 41.20
91112 2023-03-08 00:09:04 Aussentemperatur -0.10 -1.63 92.70
91111 2023-03-08 00:07:10 Terrasse 1.60 -0.27 73.20
91110 2023-03-07 23:44:41 Bahnzimmer 18.40 17.36 40.90
91109 2023-03-07 23:40:53 Aussentemperatur -0.10 -1.63 92.70
91108 2023-03-07 23:38:55 Terrasse 1.90 0.04 72.50
91107 2023-03-07 23:14:40 Bahnzimmer 18.90 17.90 40.30
91106 2023-03-07 23:12:43 Aussentemperatur 0.00 -1.52 92.80
91105 2023-03-07 23:10:40 Terrasse 1.70 -0.17 73.10
91104 2023-03-07 22:44:40 Bahnzimmer 19.00 18.00 40.00
91103 2023-03-07 22:44:34 Aussentemperatur 0.00 -1.52 92.70
91102 2023-03-07 22:42:26 Terrasse 2.00 0.12 71.50
91101 2023-03-07 22:16:24 Aussentemperatur 0.00 -1.52 92.70
91100 2023-03-07 22:14:39 Bahnzimmer 19.00 18.00 40.00
91099 2023-03-07 22:14:11 Terrasse 2.00 0.09 70.30
91098 2023-03-07 21:48:15 Aussentemperatur 0.60 -0.85 93.10
91097 2023-03-07 21:45:55 Terrasse 2.40 0.52 69.90
91096 2023-03-07 21:44:38 Bahnzimmer 18.80 17.79 40.40
91095 2023-03-07 21:20:05 Aussentemperatur 0.80 -0.64 92.90
91094 2023-03-07 21:17:41 Terrasse 2.70 0.83 69.20
91093 2023-03-07 21:14:38 Bahnzimmer 18.90 17.90 40.30
91092 2023-03-07 20:51:58 Aussentemperatur 1.50 0.13 92.70
91091 2023-03-07 20:49:30 Terrasse 3.30 1.45 67.70
91090 2023-03-07 20:44:37 Bahnzimmer 19.00 18.00 40.10
91089 2023-03-07 20:23:55 Aussentemperatur 2.70 1.49 94.20
91088 2023-03-07 20:21:16 Terrasse 4.20 2.37 65.00
91087 2023-03-07 20:14:36 Bahnzimmer 19.00 18.00 40.10
91086 2023-03-07 19:55:46 Aussentemperatur 3.10 1.93 94.20
91085 2023-03-07 19:53:01 Terrasse 4.20 2.32 62.80
91084 2023-03-07 19:44:36 Bahnzimmer 19.20 18.23 40.50
91083 2023-03-07 19:27:38 Aussentemperatur 3.10 1.93 94.30
91082 2023-03-07 19:24:46 Terrasse 4.20 2.32 62.90
91081 2023-03-07 19:14:35 Bahnzimmer 19.00 18.01 40.20
91080 2023-03-07 18:59:27 Aussentemperatur 3.30 2.15 94.40
91079 2023-03-07 18:56:29 Terrasse 4.30 2.41 62.30
91078 2023-03-07 18:44:34 Bahnzimmer 18.60 17.55 39.80
91077 2023-03-07 18:31:16 Aussentemperatur 3.40 2.27 94.70
91076 2023-03-07 18:28:16 Terrasse 4.40 2.49 61.10
91075 2023-03-07 18:14:34 Bahnzimmer 18.50 17.45 40.10
91074 2023-03-07 18:03:06 Aussentemperatur 3.60 2.50 95.00
91073 2023-03-07 18:00:02 Terrasse 4.60 2.71 61.00
91072 2023-03-07 17:44:33 Bahnzimmer 18.30 17.23 40.00
91071 2023-03-07 17:35:01 Aussentemperatur 3.90 2.84 95.50
91070 2023-03-07 17:31:46 Terrasse 4.70 2.82 60.90
91069 2023-03-07 17:14:32 Bahnzimmer 18.10 17.02 40.30
91068 2023-03-07 17:06:52 Aussentemperatur 4.70 3.73 95.80
91067 2023-03-07 17:03:31 Terrasse 5.00 3.14 60.80
91066 2023-03-07 16:44:32 Bahnzimmer 18.10 17.02 40.40
91065 2023-03-07 16:38:42 Aussentemperatur 5.10 4.17 95.80
91064 2023-03-07 16:35:16 Terrasse 5.10 3.25 60.70
91063 2023-03-07 16:14:31 Bahnzimmer 18.00 16.91 40.40
91062 2023-03-07 16:10:29 Aussentemperatur 5.10 4.17 95.80
91061 2023-03-07 16:06:59 Terrasse 5.10 3.26 60.90
91060 2023-03-07 15:44:29 Bahnzimmer 18.10 17.02 40.30
91059 2023-03-07 15:42:16 Aussentemperatur 4.80 3.85 96.20
91058 2023-03-07 15:38:44 Terrasse 5.10 3.23 59.80
91057 2023-03-07 15:14:28 Bahnzimmer 18.00 16.91 40.20
91056 2023-03-07 15:14:14 Aussentemperatur 6.00 5.16 95.80
91055 2023-03-07 15:10:32 Terrasse 5.80 3.94 57.80
91054 2023-03-07 14:45:58 Aussentemperatur 5.30 4.40 96.40
91053 2023-03-07 14:44:27 Bahnzimmer 18.10 17.01 40.10
91052 2023-03-07 14:42:14 Terrasse 5.30 3.41 58.40
91051 2023-03-07 14:17:46 Aussentemperatur 5.50 4.62 96.40
91050 2023-03-07 14:14:27 Bahnzimmer 18.00 16.91 40.30
91049 2023-03-07 14:13:58 Terrasse 5.40 3.50 57.80
91048 2023-03-07 13:49:35 Aussentemperatur 5.60 4.75 96.90
91047 2023-03-07 13:45:40 Terrasse 5.30 3.41 58.20
91046 2023-03-07 13:44:26 Bahnzimmer 17.90 16.81 40.70
91045 2023-03-07 13:21:27 Aussentemperatur 5.80 4.96 96.60
91044 2023-03-07 13:17:27 Terrasse 5.60 3.70 56.70
91043 2023-03-07 13:14:26 Bahnzimmer 18.00 16.92 40.70
91042 2023-03-07 12:53:20 Aussentemperatur 6.90 6.15 95.80
91041 2023-03-07 12:49:11 Terrasse 6.00 4.15 57.30
91040 2023-03-07 12:44:25 Bahnzimmer 18.00 16.92 40.70
91039 2023-03-07 12:25:05 Aussentemperatur 6.60 5.81 95.70
91038 2023-03-07 12:20:52 Terrasse 5.60 3.77 59.50
91037 2023-03-07 12:14:24 Bahnzimmer 17.70 16.60 41.10
91036 2023-03-07 11:56:54 Aussentemperatur 7.60 6.85 93.30
91035 2023-03-07 11:52:27 Terrasse 4.90 3.04 61.00
91034 2023-03-07 11:44:24 Bahnzimmer 17.80 16.71 41.20
91033 2023-03-07 11:28:47 Aussentemperatur 5.50 4.58 94.90
91032 2023-03-07 11:24:11 Terrasse 4.70 2.89 63.70
91031 2023-03-07 11:14:23 Bahnzimmer 17.50 16.39 41.50
91030 2023-03-07 11:00:32 Aussentemperatur 5.50 4.56 94.00
91029 2023-03-07 10:55:51 Terrasse 4.30 2.49 65.30
91028 2023-03-07 10:44:22 Bahnzimmer 17.00 15.83 41.10
91027 2023-03-07 10:32:14 Aussentemperatur 4.00 2.92 94.50
91026 2023-03-07 10:27:30 Terrasse 3.50 1.68 67.80
91025 2023-03-07 10:14:22 Bahnzimmer 16.60 15.40 41.40
91024 2023-03-07 10:03:56 Aussentemperatur 2.90 1.71 94.30
91023 2023-03-07 09:59:10 Terrasse 3.20 1.39 69.60
91022 2023-03-07 09:44:17 Bahnzimmer 16.60 15.39 41.00
91021 2023-03-07 09:35:40 Aussentemperatur 2.00 0.70 93.50
91020 2023-03-07 09:30:50 Terrasse 2.50 0.68 71.70
91019 2023-03-07 09:14:16 Bahnzimmer 16.60 15.39 41.30
91018 2023-03-07 09:07:24 Aussentemperatur 1.10 -0.30 93.20
91017 2023-03-07 09:02:33 Terrasse 2.10 0.27 72.80
91016 2023-03-07 08:44:13 Bahnzimmer 16.60 15.39 41.20
91015 2023-03-07 08:39:13 Aussentemperatur 0.80 -0.64 92.90
91014 2023-03-07 08:34:18 Terrasse 2.00 0.19 74.10
91013 2023-03-07 08:14:13 Bahnzimmer 16.60 15.39 41.30
91012 2023-03-07 08:11:01 Aussentemperatur 0.40 -1.09 92.60
91011 2023-03-07 08:06:02 Terrasse 1.80 -0.05 73.50
91010 2023-03-07 07:44:12 Bahnzimmer 16.60 15.39 41.20
91009 2023-03-07 07:42:49 Aussentemperatur 0.00 -1.53 92.50
91008 2023-03-07 07:37:45 Terrasse 1.70 -0.14 74.00
91007 2023-03-07 07:14:37 Aussentemperatur 0.00 -1.53 92.50
91006 2023-03-07 07:09:29 Terrasse 1.80 -0.03 74.20
91005 2023-03-07 06:46:28 Aussentemperatur -0.10 -1.64 92.40
91004 2023-03-07 06:44:06 Bahnzimmer 16.70 15.50 41.20
91003 2023-03-07 06:41:12 Terrasse 1.50 -0.35 74.60
91002 2023-03-07 06:18:16 Aussentemperatur -0.30 -1.87 92.20
91001 2023-03-07 06:14:05 Bahnzimmer 16.70 15.50 41.00
91000 2023-03-07 06:12:57 Terrasse 1.40 -0.45 74.80
90999 2023-03-07 05:50:04 Aussentemperatur -0.50 -2.09 92.20
90998 2023-03-07 05:44:41 Terrasse 1.40 -0.46 74.60
90997 2023-03-07 05:44:04 Bahnzimmer 16.80 15.61 41.10
90996 2023-03-07 05:21:54 Aussentemperatur -0.60 -2.20 92.20
90995 2023-03-07 05:16:24 Terrasse 1.20 -0.66 75.30
90994 2023-03-07 05:14:04 Bahnzimmer 16.90 15.71 40.70
90993 2023-03-07 04:53:43 Aussentemperatur -0.70 -2.31 92.20
90992 2023-03-07 04:48:09 Terrasse 1.10 -0.80 74.00
90991 2023-03-07 04:44:03 Bahnzimmer 16.70 15.49 40.80
90990 2023-03-07 04:25:33 Aussentemperatur -0.70 -2.31 92.20
90989 2023-03-07 04:19:53 Terrasse 1.10 -0.79 74.60
90988 2023-03-07 04:14:02 Bahnzimmer 16.60 15.39 41.00
90987 2023-03-07 03:57:22 Aussentemperatur -0.70 -2.31 92.20
90986 2023-03-07 03:51:37 Terrasse 1.10 -0.82 73.40
90985 2023-03-07 03:44:02 Bahnzimmer 16.70 15.49 40.90
90984 2023-03-07 03:29:13 Aussentemperatur -0.70 -2.31 92.00
90983 2023-03-07 03:23:22 Terrasse 1.10 -0.84 72.70
90982 2023-03-07 03:14:01 Bahnzimmer 16.70 15.49 40.70
90981 2023-03-07 03:01:03 Aussentemperatur -0.60 -2.20 92.20
90980 2023-03-07 02:55:07 Terrasse 1.10 -0.85 72.00
90979 2023-03-07 02:44:00 Bahnzimmer 16.70 15.49 40.70
90978 2023-03-07 02:32:52 Aussentemperatur -0.50 -2.09 92.20
90977 2023-03-07 02:26:52 Terrasse 1.10 -0.87 71.40
90976 2023-03-07 02:14:00 Bahnzimmer 16.70 15.49 40.80
90975 2023-03-07 02:04:43 Aussentemperatur -0.60 -2.20 92.10
90974 2023-03-07 01:58:37 Terrasse 1.00 -0.99 71.00
90973 2023-03-07 01:43:59 Bahnzimmer 16.70 15.48 40.40
90972 2023-03-07 01:36:32 Aussentemperatur -0.40 -1.98 92.20
90971 2023-03-07 01:30:22 Terrasse 1.40 -0.60 69.10
90970 2023-03-07 01:13:58 Bahnzimmer 16.70 15.48 40.30
90969 2023-03-07 01:08:23 Aussentemperatur -0.40 -1.98 92.10
90968 2023-03-07 01:02:06 Terrasse 1.10 -0.96 68.00
90967 2023-03-07 00:43:58 Bahnzimmer 16.40 15.16 40.90
90966 2023-03-07 00:40:14 Aussentemperatur -0.10 -1.65 92.20
90965 2023-03-07 00:33:51 Terrasse 1.20 -0.92 65.40
90964 2023-03-07 00:13:57 Bahnzimmer 16.50 15.28 41.00
90963 2023-03-07 00:12:04 Aussentemperatur -0.20 -1.76 92.20
90962 2023-03-07 00:05:37 Terrasse 1.40 -0.73 64.30
90961 2023-03-06 23:43:56 Bahnzimmer 16.70 15.49 40.70
90960 2023-03-06 23:43:53 Aussentemperatur -0.20 -1.76 92.00
90959 2023-03-06 23:37:20 Terrasse 1.20 -0.96 63.60
90958 2023-03-06 23:15:43 Aussentemperatur -0.20 -1.77 91.80
90957 2023-03-06 23:13:56 Bahnzimmer 16.70 15.49 40.60
90956 2023-03-06 23:09:04 Terrasse 1.30 -0.88 62.50
90955 2023-03-06 22:47:33 Aussentemperatur -0.20 -1.77 91.80
90954 2023-03-06 22:43:55 Bahnzimmer 16.80 15.60 40.70
90953 2023-03-06 22:40:48 Terrasse 1.30 -0.91 61.50
90952 2023-03-06 22:19:24 Aussentemperatur -0.10 -1.66 91.80
90951 2023-03-06 22:13:54 Bahnzimmer 16.80 15.60 40.60
90950 2023-03-06 22:12:33 Terrasse 1.60 -0.61 60.40
90949 2023-03-06 21:51:15 Aussentemperatur 0.00 -1.54 92.00
90948 2023-03-06 21:44:19 Terrasse 1.70 -0.52 59.40
90947 2023-03-06 21:43:54 Bahnzimmer 16.80 15.60 40.70
90946 2023-03-06 21:23:08 Aussentemperatur 0.30 -1.21 92.20
90945 2023-03-06 21:16:02 Terrasse 2.00 -0.22 58.40
90944 2023-03-06 21:13:53 Bahnzimmer 16.90 15.71 40.80
90943 2023-03-06 20:54:58 Aussentemperatur 0.80 -0.65 92.60
90942 2023-03-06 20:47:45 Terrasse 2.40 0.21 57.90
90941 2023-03-06 20:43:52 Bahnzimmer 16.80 15.60 40.90
90940 2023-03-06 20:26:50 Aussentemperatur 1.00 -0.42 92.80
90939 2023-03-06 20:19:31 Terrasse 2.70 0.53 57.50
90938 2023-03-06 20:13:52 Bahnzimmer 16.80 15.60 40.90
90937 2023-03-06 19:58:43 Aussentemperatur 1.60 0.25 93.20
90936 2023-03-06 19:51:16 Terrasse 3.10 0.94 56.60
90935 2023-03-06 19:43:51 Bahnzimmer 16.90 15.72 41.10
90934 2023-03-06 19:30:35 Aussentemperatur 2.10 0.81 93.60
90933 2023-03-06 19:23:01 Terrasse 3.60 1.48 55.90
90932 2023-03-06 19:13:50 Bahnzimmer 16.90 15.72 41.10
90931 2023-03-06 19:02:27 Aussentemperatur 2.50 1.26 94.10
90930 2023-03-06 18:54:45 Terrasse 3.90 1.80 55.70
90929 2023-03-06 18:43:50 Bahnzimmer 16.90 15.72 41.30
90928 2023-03-06 18:34:19 Aussentemperatur 2.80 1.61 94.60
90927 2023-03-06 18:26:29 Terrasse 4.10 2.00 55.00
90926 2023-03-06 18:13:49 Bahnzimmer 17.00 15.83 41.20
90925 2023-03-06 18:06:11 Aussentemperatur 3.20 2.05 94.90
90924 2023-03-06 17:58:13 Terrasse 4.40 2.31 54.30
90923 2023-03-06 17:43:48 Bahnzimmer 17.00 15.83 41.30
90922 2023-03-06 17:38:02 Aussentemperatur 3.50 2.40 95.50
90921 2023-03-06 17:29:56 Terrasse 4.40 2.29 53.50
90920 2023-03-06 17:13:48 Bahnzimmer 17.10 15.94 41.30
90919 2023-03-06 17:09:53 Aussentemperatur 3.90 2.85 96.00
90918 2023-03-06 17:01:40 Terrasse 4.70 2.62 53.30
90917 2023-03-06 16:43:47 Bahnzimmer 17.20 16.05 41.20
90916 2023-03-06 16:41:43 Aussentemperatur 4.20 3.19 96.40
90915 2023-03-06 16:33:25 Terrasse 4.90 2.83 53.20
90914 2023-03-06 16:13:46 Bahnzimmer 17.20 16.05 41.30
90913 2023-03-06 16:13:33 Aussentemperatur 4.40 3.43 97.00
90912 2023-03-06 16:05:09 Terrasse 5.10 3.03 52.30
90911 2023-03-06 15:45:30 Aussentemperatur 5.70 4.86 97.10
90910 2023-03-06 15:43:45 Bahnzimmer 17.40 16.26 40.80
90909 2023-03-06 15:36:57 Terrasse 6.30 4.31 50.70
90908 2023-03-06 15:17:26 Aussentemperatur 6.90 6.17 96.50
90907 2023-03-06 15:13:45 Bahnzimmer 17.30 16.15 40.90
90906 2023-03-06 15:08:40 Terrasse 7.00 5.05 49.70
90905 2023-03-06 14:49:02 Aussentemperatur 5.10 4.21 97.50
90904 2023-03-06 14:43:44 Bahnzimmer 17.40 16.27 41.10
90903 2023-03-06 14:40:17 Terrasse 5.10 3.10 55.10
90902 2023-03-06 14:20:47 Aussentemperatur 4.40 3.44 97.50
90901 2023-03-06 14:13:43 Bahnzimmer 17.50 16.37 40.80
90900 2023-03-06 14:12:03 Terrasse 5.20 3.22 55.20
90899 2023-03-06 13:52:44 Aussentemperatur 5.60 4.79 98.50
90898 2023-03-06 13:43:48 Terrasse 5.90 3.95 53.60
90897 2023-03-06 13:43:43 Bahnzimmer 17.50 16.37 40.70
90896 2023-03-06 13:24:34 Aussentemperatur 6.10 5.33 98.10
90895 2023-03-06 13:15:36 Terrasse 6.50 4.52 50.50
90894 2023-03-06 13:13:42 Bahnzimmer 17.60 16.48 40.70
90893 2023-03-06 12:56:29 Aussentemperatur 7.80 7.09 93.90
90892 2023-03-06 12:47:34 Terrasse 8.10 6.23 48.60
90891 2023-03-06 12:43:41 Bahnzimmer 17.50 16.39 41.50
90890 2023-03-06 12:28:26 Aussentemperatur 11.70 11.16 85.60
90889 2023-03-06 12:18:54 Terrasse 6.60 4.77 55.80
90888 2023-03-06 12:13:41 Bahnzimmer 17.60 16.50 41.40
90887 2023-03-06 11:59:53 Aussentemperatur 6.40 5.48 91.40
90886 2023-03-06 11:50:23 Terrasse 4.50 2.66 63.40
90885 2023-03-06 11:43:40 Bahnzimmer 17.80 16.70 40.70
90884 2023-03-06 11:31:32 Aussentemperatur 4.20 3.10 93.00
90883 2023-03-06 11:22:02 Terrasse 3.50 1.61 65.40
90882 2023-03-06 11:13:39 Bahnzimmer 17.80 16.71 41.00
90881 2023-03-06 11:03:15 Aussentemperatur 2.40 1.16 94.40
90880 2023-03-06 10:53:41 Terrasse 2.80 0.90 67.60
90879 2023-03-06 10:43:38 Bahnzimmer 17.60 16.48 40.80
90878 2023-03-06 10:35:02 Aussentemperatur 1.90 0.59 93.60
90877 2023-03-06 10:25:26 Terrasse 3.20 1.30 65.90
90876 2023-03-06 10:13:37 Bahnzimmer 17.80 16.71 41.30
90875 2023-03-06 10:06:50 Aussentemperatur 2.10 0.82 94.10
90874 2023-03-06 09:57:09 Terrasse 3.00 1.04 64.50
90873 2023-03-06 09:43:37 Bahnzimmer 17.90 16.83 41.40
90872 2023-03-06 09:38:41 Aussentemperatur 2.50 1.25 93.80
90871 2023-03-06 09:28:55 Terrasse 3.30 1.33 63.00
90870 2023-03-06 09:13:36 Bahnzimmer 18.00 16.94 41.40
90869 2023-03-06 09:10:31 Aussentemperatur 2.70 1.46 93.40
90868 2023-03-06 09:00:33 Terrasse 2.80 0.85 65.70
90867 2023-03-06 08:43:35 Bahnzimmer 18.10 17.03 40.70
90866 2023-03-06 08:42:17 Aussentemperatur 1.90 0.57 93.00
90865 2023-03-06 08:32:13 Terrasse 2.40 0.46 67.50
90864 2023-03-06 08:14:04 Aussentemperatur 1.20 -0.20 92.70
90863 2023-03-06 08:13:35 Bahnzimmer 18.50 17.45 40.00
90862 2023-03-06 08:03:54 Terrasse 2.00 0.03 68.10
90861 2023-03-06 07:45:51 Aussentemperatur 0.50 -0.98 92.50
90860 2023-03-06 07:43:34 Bahnzimmer 18.60 17.56 39.90
90859 2023-03-06 07:35:37 Terrasse 1.70 -0.29 68.20
90858 2023-03-06 07:17:42 Aussentemperatur 0.60 -0.87 92.40
90857 2023-03-06 07:13:33 Bahnzimmer 18.70 17.66 39.70
90856 2023-03-06 07:07:19 Terrasse 1.80 -0.22 66.70
90855 2023-03-06 06:49:31 Aussentemperatur 0.60 -0.87 92.50
90854 2023-03-06 06:43:33 Bahnzimmer 18.70 17.67 39.90
90853 2023-03-06 06:39:03 Terrasse 2.10 0.10 66.60
90852 2023-03-06 06:21:21 Aussentemperatur 0.60 -0.87 92.50
90851 2023-03-06 06:13:32 Bahnzimmer 18.60 17.56 40.00
90850 2023-03-06 06:10:46 Terrasse 2.10 0.12 67.30
90849 2023-03-06 05:53:12 Aussentemperatur 0.60 -0.87 92.50
90848 2023-03-06 05:43:31 Bahnzimmer 18.60 17.55 39.70
90847 2023-03-06 05:42:29 Terrasse 2.10 0.12 67.30
90846 2023-03-06 05:25:02 Aussentemperatur 0.60 -0.87 92.40
90845 2023-03-06 05:14:12 Terrasse 2.20 0.22 66.70
90844 2023-03-06 05:13:30 Bahnzimmer 18.60 17.55 39.70
90843 2023-03-06 04:56:53 Aussentemperatur 0.70 -0.76 92.40
90842 2023-03-06 04:45:55 Terrasse 2.00 0.00 66.70
90841 2023-03-06 04:43:30 Bahnzimmer 17.70 16.59 40.60
90840 2023-03-06 04:28:43 Aussentemperatur 0.60 -0.87 92.50
90839 2023-03-06 04:17:38 Terrasse 2.20 0.20 66.20
90838 2023-03-06 04:13:29 Bahnzimmer 17.60 16.47 40.40
90837 2023-03-06 04:00:34 Aussentemperatur 0.70 -0.76 92.40
90836 2023-03-06 03:49:22 Terrasse 2.20 0.21 66.40
90835 2023-03-06 03:43:28 Bahnzimmer 17.60 16.47 40.50
90834 2023-03-06 03:32:25 Aussentemperatur 0.80 -0.65 92.50
90833 2023-03-06 03:21:06 Terrasse 2.30 0.30 65.50
90832 2023-03-06 03:13:28 Bahnzimmer 17.80 16.69 40.40
90831 2023-03-06 03:04:16 Aussentemperatur 1.00 -0.43 92.50
90830 2023-03-06 02:52:51 Terrasse 2.50 0.45 62.90
90829 2023-03-06 02:43:27 Bahnzimmer 17.70 16.59 40.60
90828 2023-03-06 02:36:07 Aussentemperatur 1.10 -0.31 92.70
90827 2023-03-06 02:24:33 Terrasse 2.50 0.43 62.40
90826 2023-03-06 02:13:26 Bahnzimmer 17.70 16.58 40.50
90825 2023-03-06 02:07:56 Aussentemperatur 1.10 -0.31 92.80
90824 2023-03-06 01:56:16 Terrasse 2.50 0.42 62.00
90823 2023-03-06 01:43:26 Bahnzimmer 17.80 16.69 40.50
90822 2023-03-06 01:39:46 Aussentemperatur 1.10 -0.31 92.80
90821 2023-03-06 01:27:58 Terrasse 2.60 0.53 61.90
90820 2023-03-06 01:13:25 Bahnzimmer 18.00 16.91 40.50
90819 2023-03-06 01:11:37 Aussentemperatur 1.20 -0.20 92.90
90818 2023-03-06 00:59:42 Terrasse 2.50 0.41 61.60
90817 2023-03-06 00:43:26 Aussentemperatur 1.20 -0.20 92.90
90816 2023-03-06 00:43:24 Bahnzimmer 18.20 17.13 40.40
90815 2023-03-06 00:31:25 Terrasse 2.50 0.42 61.90
90814 2023-03-06 00:15:17 Aussentemperatur 1.20 -0.20 92.90
90813 2023-03-06 00:13:24 Bahnzimmer 18.50 17.45 39.90
90812 2023-03-06 00:03:09 Terrasse 2.70 0.63 61.60
90811 2023-03-05 23:47:05 Aussentemperatur 1.20 -0.20 92.90
90810 2023-03-05 23:43:23 Bahnzimmer 18.80 17.77 39.70
90809 2023-03-05 23:34:54 Terrasse 2.70 0.64 62.00
90808 2023-03-05 23:18:56 Aussentemperatur 1.30 -0.09 92.90
90807 2023-03-05 23:13:22 Bahnzimmer 18.80 17.77 39.70
90806 2023-03-05 23:06:39 Terrasse 2.90 0.86 61.70
90805 2023-03-05 22:50:46 Aussentemperatur 1.40 0.02 92.80
90804 2023-03-05 22:43:22 Bahnzimmer 18.80 17.77 39.60
90803 2023-03-05 22:38:24 Terrasse 2.90 0.86 62.00
90802 2023-03-05 22:22:37 Aussentemperatur 1.50 0.13 92.90
90801 2023-03-05 22:13:21 Bahnzimmer 18.70 17.66 39.70
90800 2023-03-05 22:10:09 Terrasse 3.00 0.95 61.10
90799 2023-03-05 21:54:27 Aussentemperatur 1.60 0.24 93.00
90798 2023-03-05 21:43:20 Bahnzimmer 18.70 17.66 39.50
90797 2023-03-05 21:41:54 Terrasse 3.10 1.05 60.50
90796 2023-03-05 21:26:17 Aussentemperatur 1.60 0.24 93.00
90795 2023-03-05 21:13:37 Terrasse 3.00 0.93 60.20
90794 2023-03-05 21:13:20 Bahnzimmer 18.80 17.76 39.40
90793 2023-03-05 20:58:07 Aussentemperatur 1.60 0.25 93.20
90792 2023-03-05 20:45:21 Terrasse 3.10 1.03 59.80
90791 2023-03-05 20:43:19 Bahnzimmer 18.60 17.54 39.40
90790 2023-03-05 20:29:57 Aussentemperatur 1.70 0.36 93.20
90789 2023-03-05 20:17:06 Terrasse 3.10 1.02 59.60
90788 2023-03-05 20:13:18 Bahnzimmer 17.90 16.79 40.10
90787 2023-03-05 20:01:47 Aussentemperatur 1.80 0.47 93.30
90786 2023-03-05 19:48:51 Terrasse 3.20 1.13 59.60
90785 2023-03-05 19:43:18 Bahnzimmer 17.50 16.37 40.80
90784 2023-03-05 19:33:37 Aussentemperatur 2.00 0.69 93.40
90783 2023-03-05 19:20:36 Terrasse 3.30 1.22 58.70
90782 2023-03-05 19:13:17 Bahnzimmer 17.50 16.37 40.70
90781 2023-03-05 19:05:28 Aussentemperatur 2.10 0.81 93.60
90780 2023-03-05 18:52:21 Terrasse 3.50 1.44 58.80
90779 2023-03-05 18:43:16 Bahnzimmer 17.50 16.37 40.70
90778 2023-03-05 18:37:17 Aussentemperatur 2.10 0.81 93.70
90777 2023-03-05 18:24:06 Terrasse 3.50 1.42 58.10
90776 2023-03-05 18:13:16 Bahnzimmer 17.50 16.37 40.70
90775 2023-03-05 18:09:07 Aussentemperatur 2.30 1.04 94.00
90774 2023-03-05 17:55:50 Terrasse 3.60 1.52 57.80
90773 2023-03-05 17:43:15 Bahnzimmer 17.60 16.48 40.80
90772 2023-03-05 17:40:58 Aussentemperatur 2.50 1.27 94.30
90771 2023-03-05 17:27:43 Terrasse 3.70 1.62 57.40
90770 2023-03-05 17:13:14 Bahnzimmer 17.60 16.48 40.90
90769 2023-03-05 17:12:48 Aussentemperatur 2.80 1.61 94.60
90768 2023-03-05 16:59:23 Terrasse 3.70 1.62 57.30
90767 2023-03-05 16:44:37 Aussentemperatur 2.90 1.72 94.90
90766 2023-03-05 16:43:14 Bahnzimmer 17.80 16.71 41.00
90765 2023-03-05 16:31:11 Terrasse 3.80 1.74 57.80
90764 2023-03-05 16:16:27 Aussentemperatur 3.10 1.95 95.20
90763 2023-03-05 16:13:13 Bahnzimmer 17.80 16.70 40.90
90762 2023-03-05 16:02:56 Terrasse 4.00 1.95 57.10
90761 2023-03-05 15:48:18 Aussentemperatur 3.40 2.29 95.60
90760 2023-03-05 15:43:12 Bahnzimmer 18.00 16.93 41.10
90759 2023-03-05 15:34:43 Terrasse 4.30 2.22 54.80
90758 2023-03-05 15:20:09 Aussentemperatur 3.90 2.85 95.80
90757 2023-03-05 15:13:12 Bahnzimmer 18.20 17.15 41.10
90756 2023-03-05 15:06:29 Terrasse 4.50 2.44 54.90
90755 2023-03-05 14:52:02 Aussentemperatur 4.50 3.50 95.70
90754 2023-03-05 14:43:11 Bahnzimmer 18.40 17.35 40.40
90753 2023-03-05 14:38:11 Terrasse 4.20 2.10 54.70
90752 2023-03-05 14:23:49 Aussentemperatur 4.10 3.07 95.80
90751 2023-03-05 14:13:10 Bahnzimmer 18.40 17.32 39.30
90750 2023-03-05 14:09:55 Terrasse 4.10 2.00 54.90
90749 2023-03-05 13:55:35 Aussentemperatur 3.60 2.52 96.10
90748 2023-03-05 13:43:10 Bahnzimmer 17.60 16.34 35.50
90747 2023-03-05 13:41:42 Terrasse 4.50 2.47 56.00
90746 2023-03-05 13:27:33 Aussentemperatur 5.00 4.05 95.70
90745 2023-03-05 13:13:29 Terrasse 4.70 2.72 57.30
90744 2023-03-05 13:13:09 Bahnzimmer 19.00 18.02 40.90
90743 2023-03-05 12:59:28 Aussentemperatur 5.40 4.47 94.90
90742 2023-03-05 12:45:08 Terrasse 4.20 2.31 62.70
90741 2023-03-05 12:43:08 Bahnzimmer 19.00 18.02 40.90
90740 2023-03-05 12:31:09 Aussentemperatur 3.60 2.50 95.00
90739 2023-03-05 12:16:45 Terrasse 3.30 1.38 64.80
90738 2023-03-05 12:13:08 Bahnzimmer 18.90 17.92 41.00
90737 2023-03-05 12:02:49 Aussentemperatur 1.80 0.51 94.60
90736 2023-03-05 11:48:33 Terrasse 3.30 1.34 63.20
90735 2023-03-05 11:43:07 Bahnzimmer 18.90 17.93 41.40
90734 2023-03-05 11:34:43 Aussentemperatur 2.70 1.50 94.70
90733 2023-03-05 11:20:18 Terrasse 3.70 1.66 58.60
90732 2023-03-05 11:13:06 Bahnzimmer 18.90 17.94 41.80
90731 2023-03-05 11:06:37 Aussentemperatur 3.60 2.50 95.10
90730 2023-03-05 10:52:05 Terrasse 4.00 1.98 58.40
90729 2023-03-05 10:43:06 Bahnzimmer 19.40 18.50 42.20
90728 2023-03-05 10:38:26 Aussentemperatur 3.90 2.82 94.70
90727 2023-03-05 10:23:45 Terrasse 3.50 1.47 60.00
90726 2023-03-05 10:13:05 Bahnzimmer 19.40 18.48 41.70
90725 2023-03-05 10:10:11 Aussentemperatur 2.60 1.38 94.40
90724 2023-03-05 09:55:29 Terrasse 3.20 1.20 62.10
90723 2023-03-05 09:43:04 Bahnzimmer 19.30 18.34 40.50
90722 2023-03-05 09:42:11 Aussentemperatur 2.30 1.04 94.10
90721 2023-03-05 09:27:11 Terrasse 2.70 0.68 63.40
90720 2023-03-05 09:13:54 Aussentemperatur 1.90 0.60 93.90
90719 2023-03-05 09:13:04 Bahnzimmer 19.40 18.47 41.20
90718 2023-03-05 08:58:57 Terrasse 2.80 0.81 64.00
90717 2023-03-05 08:45:43 Aussentemperatur 1.80 0.48 93.60
90716 2023-03-05 08:43:03 Bahnzimmer 18.90 17.90 40.40
90715 2023-03-05 08:30:41 Terrasse 2.60 0.58 63.70
90714 2023-03-05 08:17:30 Aussentemperatur 1.60 0.26 93.50
90713 2023-03-05 08:13:02 Bahnzimmer 19.10 18.12 40.30
90712 2023-03-05 08:02:25 Terrasse 2.60 0.52 61.40
90711 2023-03-05 07:49:19 Aussentemperatur 1.40 0.03 93.20
90710 2023-03-05 07:43:01 Bahnzimmer 18.80 17.79 40.40
90709 2023-03-05 07:34:08 Terrasse 2.50 0.39 60.70
90708 2023-03-05 07:21:10 Aussentemperatur 1.20